[[{"header":{"parameterUnit":"m.s-1","parameterCategory":1,"la1":31.0,"la2":29.5877,"lo1":-88.7671,"lo2":-86.6584,"dy":0.0162,"dx":0.0185,"nx":115,"ny":88,"refTime":"2024-08-27T06:00:00:Z","depth":0,"parameterNumber":2,"parameterNumberName":"U-component_of_WINDS"},"data":[0.0,0.0,0.0,0.0,0.0,0.0,0.0,0.0,0.0,0.0,0.0,0.0,0.0,0.0,0.0,0.0,0.0,0.0,0.0,0.0,0.0,0.0,0.0,0.0,0.0,0.0,0.0,0.0,0.0,0.0,0.0,0.0,0.0,0.0,0.0,0.0,0.0,0.0,0.0,0.0,0.0,0.0,0.0,0.0,0.0,0.0,0.0,0.0,0.0,0.0,0.0,0.0,0.0,0.0,0.0,0.0,0.0,0.0,0.0,0.0,0.0,0.0,0.0,0.0,0.0,0.0,0.0,0.0,0.0,0.0,0.0,0.0,0.0,0.0,0.0,0.0,0.0,0.0,0.0,0.0,0.0,0.0,0.0,0.0,0.0,0.0,0.0,0.0,0.0,0.0,0.0,0.0,0.0,0.0,0.0,0.0,0.0,0.0,0.0,0.0,0.0,0.0,0.0,0.0,0.0,0.0,0.0,0.0,0.0,0.0,0.0,0.0,0.0,0.0,0.0,0.0,0.0,0.0,0.0,0.0,0.0,0.0,0.0,0.0,0.0,0.0,0.0,0.0,0.0,0.0,0.0,0.0,0.0,0.0,0.0,0.0,0.0,0.0,0.0,0.0,0.0,0.0,0.0,0.0,0.0,0.0,0.0,0.0,0.0,0.0,0.0,0.0,0.0,0.0,0.0,0.0,0.0,0.0,0.0,0.0,0.0,0.0,0.0,0.0,0.0,0.0,0.0,0.0,0.0,0.0,0.0,0.0,0.0,0.0,0.0,0.0,0.0,0.0,0.0,0.0,0.0,0.0,0.0,0.0,0.0,0.0,0.0,0.0,0.0,0.0,0.0,0.0,0.0,0.0,0.0,0.0,0.0,0.0,0.0,0.0,0.0,0.0,0.0,0.0,0.0,0.0,0.0,0.0,0.0,0.0,0.0,0.0,0.0,0.0,0.0,0.0,0.0,0.0,0.0,0.0,0.0,0.0,0.0,0.0,0.0,0.0,0.0,0.0,0.0,0.0,0.0,0.0,0.0,0.0,0.0,0.0,0.0,0.0,0.0,0.0,0.0,0.0,0.0,0.0,0.0,0.0,0.0,0.0,0.0,0.0,0.0,0.0,0.0,0.0,0.0,0.0,0.0,0.0,0.0,0.0,0.0,0.0,0.0,0.0,0.0,0.0,0.0,0.0,0.0,0.0,0.0,0.0,0.0,0.0,0.0,0.0,0.0,0.0,0.0,0.0,0.0,0.0,0.0,0.0,0.0,0.0,0.0,0.0,0.0,0.0,0.0,0.0,0.0,0.0,0.0,0.0,0.0,0.0,0.0,0.0,0.0,0.0,0.0,0.0,0.0,0.0,0.0,0.0,0.0,0.0,0.0,0.0,0.0,0.0,0.0,0.0,0.0,0.0,0.0,0.0,0.0,0.0,0.0,0.0,0.0,0.0,0.0,0.0,0.0,0.0,0.0,0.0,0.0,0.0,0.0,0.0,0.0,0.0,0.0,0.0,0.0,0.0,0.0,0.0,0.0,0.0,0.0,0.0,0.0,0.0,0.0,0.0,0.0,0.0,0.0,0.0,0.0,0.0,0.0,0.0,0.0,0.0,0.0,0.0,0.0,0.0,0.0,0.0,0.0,0.0,0.0,0.0,0.0,0.0,0.0,0.0,0.0,0.0,0.0,0.0,0.0,0.0,0.0,0.0,0.0,0.0,0.0,0.0,0.0,0.0,0.0,0.0,0.0,0.0,0.0,0.0,0.0,0.0,0.0,0.0,0.0,0.0,0.0,0.0,0.0,0.0,0.0,0.0,0.0,0.0,0.0,0.0,0.0,0.0,0.0,0.0,0.0,0.0,0.0,0.0,0.0,0.0,0.0,0.0,0.0,0.0,0.0,0.0,0.0,0.0,0.0,0.0,0.0,0.0,0.0,0.0,0.0,0.0,0.0,0.0,0.0,0.0,0.0,0.0,0.0,0.0,0.0,0.0,0.0,0.0,0.0,0.0,0.0,0.0,0.0,0.0,0.0,0.0,0.0,0.0,0.0,0.0,0.0,0.0,0.0,0.0,0.0,0.0,0.0,0.0,0.0,0.0,0.0,0.0,0.0,0.0,0.0,0.0,0.0,0.0,0.0,0.0,0.0,0.0,0.0,0.0,0.0,0.0,0.0,0.0,0.0,0.0,0.0,0.0,0.0,0.0,0.0,0.0,0.0,0.0,0.0,0.0,0.0,0.0,0.0,0.0,0.0,0.0,0.0,0.0,0.0,0.0,0.0,0.0,0.0,0.0,0.0,0.0,0.0,0.0,0.0,0.0,0.0,0.0,0.0,0.0,0.0,0.0,0.0,0.0,0.0,0.0,0.0,0.0,0.0,0.0,0.0,0.0,0.0,0.0,0.0,0.0,0.0,0.0,0.0,0.0,0.0,0.0,0.0,0.0,0.0,0.0,0.0,0.0,0.0,0.0,0.0,0.0,0.0,0.0,0.0,0.0,0.0,0.0,0.0,0.0,0.0,0.0,0.0,0.0,0.0,0.0,0.0,0.0,0.0,0.0,0.0,0.0,0.0,0.0,0.0,0.0,0.0,0.0,0.0,0.0,0.0,0.0,0.0,0.0,0.0,0.0,0.0,0.0,0.0,0.0,0.0,0.0,0.0,0.0,0.0,0.0,0.0,0.0,0.0,0.0,0.0,0.0,0.0,0.0,0.0,0.0,0.0,0.0,0.0,0.0,0.0,0.0,0.0,0.0,0.0,0.0,0.0,0.0,0.0,0.0,0.0,0.0,0.0,0.0,0.0,0.0,0.0,0.0,0.0,0.0,0.0,0.0,0.0,0.0,0.0,0.0,0.0,0.0,0.0,0.0,0.0,0.0,0.0,0.0,0.0,0.0,0.0,0.0,0.0,0.0,0.0,0.0,0.0,0.0,0.0,0.0,0.0,0.0,0.0,0.0,0.0,0.0,0.0,0.0,0.0,0.0,0.0,0.0,0.0,0.0,0.0,0.0,0.0,0.0,0.0,0.0,0.0,0.0,0.0,0.0,0.0,0.0,0.0,0.0,0.0,0.0,0.0,0.0,0.0,0.0,0.0,0.0,0.0,0.0,0.0,0.0,0.0,0.0,0.0,0.0,0.0,0.0,0.0,0.0,0.0,0.0,0.0,0.0,0.0,0.0,0.0,0.0,0.0,0.0,0.0,0.0,0.0,0.0,0.0,0.0,0.0,0.0,0.0,0.0,0.0,0.0,0.0,0.0,0.0,0.0,0.0,0.0,0.0,0.0,0.0,0.0,0.0,0.0,0.0,0.0,0.0,0.0,0.0,0.0,0.0,0.0,0.0,0.0,0.0,0.0,0.0,0.0,0.0,0.0,0.0,0.0,0.0,0.0,0.0,0.0,0.0,0.0,0.0,0.0,0.0,0.0,0.0,0.0,0.0,0.0,0.0,0.0,0.0,0.0,0.0,0.0,0.0,0.0,0.0,0.0,0.0,0.0,0.0,0.0,0.0,0.0,0.0,0.0,0.0,0.0,0.0,0.0,0.0,0.0,0.0,0.0,0.0,0.0,0.0,0.0,0.0,0.0,0.0,0.0,0.0,0.0,0.0,0.0,0.0,0.0,0.0,0.0,0.0,0.0,0.0,0.0,0.0,0.0,0.0,0.0,0.0,0.0,0.0,0.0,0.0,0.0,0.0,0.0,0.0,0.0,0.0,0.0,0.0,0.0,0.0,0.0,0.0,0.0,0.0,0.0,0.0,0.0,0.0,0.0,0.0,0.0,0.0,0.0,0.0,0.0,0.0,0.0,0.0,0.0,0.0,0.0,0.0,0.0,0.0,0.0,0.0,0.0,0.0,0.0,0.0,0.0,0.0,0.0,0.0,0.0,0.0,0.0,0.0,0.0,0.0,0.0,0.0,0.0,0.0,0.0,0.0,0.0,0.0,0.0,0.0,0.0,0.0,0.0,0.0,0.0,0.0,0.0,0.0,0.0,0.0,0.0,0.0,0.0,0.0,0.0,0.0,0.0,0.0,0.0,0.0,0.0,0.0,0.0,0.0,0.0,0.0,0.0,0.0,0.0,0.0,0.0,0.0,0.0,0.0,0.0,0.0,0.0,0.0,0.0,0.0,0.0,0.0,0.0,0.0,0.0,0.0,0.0,0.0,0.0,0.0,0.0,0.0,0.0,0.0,0.0,0.0,0.0,0.0,0.0,0.0,0.0,0.0,0.0,0.0,0.0,0.0,0.0,0.0,0.0,0.0,0.0,0.0,0.0,0.0,0.0,-0.8897,0.0,0.0,0.0,0.0,0.0,0.0,0.0,0.0,0.0,0.0,0.0,0.0,0.0,0.0,0.0,0.0,0.0,0.0,0.0,0.0,0.0,0.0,0.0,0.0,0.0,0.0,0.0,0.0,0.0,0.0,0.0,0.0,0.0,0.0,0.0,0.0,0.0,0.0,0.0,0.0,0.0,0.0,0.0,0.0,0.0,0.0,0.0,0.0,0.0,0.0,0.0,0.0,0.0,0.0,0.0,0.0,0.0,0.0,0.0,0.0,0.0,0.0,0.0,0.0,0.0,0.0,0.0,0.0,0.0,0.0,0.0,0.0,0.0,0.0,0.0,0.0,0.0,0.0,0.0,0.0,0.0,0.0,0.0,0.0,0.0,0.0,0.0,0.0,0.0,0.0,0.0,0.0,0.0,0.0,0.0,0.0,0.0,0.0,0.0,0.0,0.0,0.0,0.0,0.0,0.0,0.0,0.0,0.0,0.0,0.0,-0.9088,-0.9002,-0.8998,-0.897,-0.8908,0.0,0.0,0.0,0.0,0.0,0.0,0.0,0.0,0.0,0.0,0.0,0.0,0.0,0.0,0.0,0.0,0.0,0.0,0.0,0.0,0.0,0.0,0.0,0.0,0.0,0.0,0.0,0.0,0.0,0.0,0.0,0.0,0.0,0.0,0.0,0.0,0.0,0.0,0.0,0.0,0.0,0.0,0.0,0.0,0.0,0.0,0.0,0.0,0.0,0.0,0.0,0.0,0.0,0.0,0.0,0.0,0.0,0.0,0.0,0.0,0.0,0.0,0.0,0.0,0.0,0.0,0.0,0.0,0.0,0.0,0.0,0.0,0.0,0.0,0.0,0.0,0.0,0.0,0.0,0.0,0.0,0.0,0.0,0.0,0.0,0.0,0.0,0.0,0.0,0.0,0.0,0.0,0.0,0.0,0.0,0.0,0.0,0.0,0.0,0.0,0.0,0.0,0.0,0.0,0.0,0.0,0.0,0.0,0.0,0.0,0.0,0.0,-0.9225,-0.91,-0.8897,0.0,0.0,0.0,0.0,0.0,0.0,0.0,0.0,0.0,0.0,0.0,0.0,0.0,0.0,0.0,0.0,0.0,0.0,0.0,0.0,0.0,0.0,0.0,0.0,0.0,0.0,0.0,0.0,0.0,0.0,0.0,0.0,0.0,0.0,0.0,0.0,0.0,0.0,0.0,0.0,0.0,0.0,0.0,0.0,0.0,0.0,0.0,0.0,0.0,0.0,0.0,0.0,0.0,0.0,0.0,0.0,0.0,0.0,0.0,0.0,0.0,0.0,0.0,0.0,0.0,0.0,0.0,0.0,0.0,0.0,0.0,0.0,0.0,0.0,0.0,0.0,0.0,0.0,0.0,0.0,0.0,0.0,0.0,0.0,0.0,0.0,0.0,0.0,0.0,0.0,0.0,0.0,0.0,0.0,0.0,0.0,0.0,0.0,0.0,0.0,0.0,0.0,0.0,0.0,0.0,0.0,0.0,0.0,0.0,0.0,-1.0062,-0.9985,-0.9931,0.0,-0.8871,0.0,0.0,0.0,0.0,0.0,0.0,0.0,0.0,0.0,0.0,0.0,0.0,0.0,0.0,0.0,0.0,0.0,0.0,0.0,0.0,0.0,0.0,0.0,0.0,0.0,0.0,0.0,0.0,0.0,0.0,0.0,0.0,0.0,0.0,0.0,0.0,0.0,0.0,0.0,0.0,0.0,0.0,0.0,0.0,0.0,0.0,0.0,0.0,0.0,0.0,0.0,0.0,0.0,0.0,0.0,0.0,0.0,0.0,0.0,0.0,0.0,0.0,0.0,0.0,0.0,0.0,0.0,0.0,0.0,0.0,0.0,0.0,0.0,0.0,0.0,0.0,0.0,0.0,0.0,0.0,0.0,0.0,0.0,0.0,0.0,0.0,0.0,0.0,0.0,0.0,0.0,0.0,0.0,0.0,0.0,0.0,0.0,0.0,0.0,0.0,0.0,0.0,0.0,0.0,0.0,0.0,0.0,0.0,0.0,0.0,0.0,-1.0747,-1.0224,-0.9767,0.0,0.0,0.0,0.0,0.0,0.0,0.0,0.0,0.0,0.0,0.0,0.0,0.0,0.0,0.0,0.0,0.0,0.0,0.0,0.0,0.0,0.0,0.0,0.0,0.0,0.0,0.0,0.0,0.0,0.0,0.0,0.0,0.0,0.0,0.0,0.0,0.0,0.0,0.0,0.0,0.0,0.0,0.0,0.0,0.0,0.0,0.0,0.0,0.0,0.0,0.0,0.0,0.0,0.0,0.0,0.0,0.0,0.0,0.0,0.0,0.0,0.0,0.0,0.0,0.0,0.0,0.0,0.0,0.0,0.0,0.0,0.0,0.0,0.0,0.0,0.0,0.0,0.0,0.0,0.0,0.0,0.0,0.0,0.0,0.0,0.0,0.0,0.0,0.0,0.0,0.0,0.0,0.0,0.0,0.0,0.0,0.0,0.0,0.0,0.0,0.0,0.0,0.0,0.0,0.0,0.0,0.0,0.0,0.0,0.0,-1.0312,0.0,-1.1383,-1.0656,-1.0062,-0.9779,0.0,0.0,0.0,0.0,0.0,0.0,0.0,0.0,0.0,0.0,0.0,0.0,0.0,0.0,0.0,0.0,0.0,0.0,0.0,0.0,0.0,0.0,0.0,0.0,0.0,0.0,0.0,0.0,0.0,0.0,0.0,0.0,0.0,0.0,0.0,0.0,0.0,0.0,0.0,0.0,0.0,0.0,0.0,0.0,0.0,0.0,0.0,0.0,0.0,0.0,0.0,0.0,0.0,0.0,0.0,0.0,0.0,0.0,0.0,0.0,0.0,0.0,0.0,0.0,0.0,0.0,0.0,0.0,0.0,0.0,0.0,0.0,0.0,0.0,0.0,0.0,0.0,0.0,0.0,0.0,0.0,0.0,0.0,0.0,0.0,0.0,0.0,0.0,0.0,0.0,0.0,0.0,0.0,0.0,0.0,0.0,0.0,0.0,0.0,0.0,0.0,0.0,0.0,0.0,0.0,0.0,0.0,0.0,0.0,-1.0805,-1.1485,-1.2133,-1.1377,-1.0572,0.0,0.0,0.0,0.0,0.0,0.0,0.0,0.0,0.0,0.0,0.0,0.0,0.0,0.0,0.0,0.0,0.0,0.0,0.0,0.0,0.0,0.0,0.0,0.0,0.0,0.0,0.0,0.0,0.0,0.0,0.0,0.0,0.0,0.0,0.0,0.0,0.0,0.0,0.0,0.0,0.0,0.0,0.0,0.0,0.0,0.0,0.0,0.0,0.0,0.0,0.0,0.0,0.0,0.0,0.0,0.0,0.0,0.0,0.0,0.0,0.0,0.0,0.0,0.0,0.0,0.0,0.0,0.0,0.0,0.0,0.0,0.0,0.0,0.0,0.0,0.0,0.0,0.0,0.0,0.0,0.0,0.0,0.0,0.0,0.0,0.0,0.0,0.0,0.0,0.0,0.0,0.0,0.0,0.0,0.0,0.0,0.0,0.0,0.0,0.0,0.0,0.0,0.0,0.0,0.0,0.0,0.0,0.0,0.0,-1.0832,-1.1972,-1.2679,0.0,-1.1646,-1.0814,0.0,0.0,0.0,0.0,0.0,0.0,0.0,0.0,0.0,0.0,0.0,0.0,0.0,0.0,0.0,0.0,0.0,0.0,0.0,0.0,0.0,0.0,0.0,0.0,0.0,0.0,0.0,0.0,0.0,0.0,0.0,0.0,0.0,0.0,0.0,0.0,0.0,0.0,0.0,0.0,0.0,0.0,0.0,0.0,0.0,0.0,0.0,0.0,0.0,0.0,0.0,0.0,0.0,0.0,0.0,0.0,0.0,0.0,0.0,0.0,0.0,0.0,0.0,0.0,0.0,0.0,0.0,0.0,0.0,0.0,0.0,0.0,0.0,0.0,0.0,0.0,0.0,0.0,0.0,0.0,0.0,0.0,0.0,0.0,0.0,0.0,0.0,0.0,0.0,0.0,0.0,0.0,0.0,0.0,0.0,0.0,0.0,0.0,0.0,0.0,0.0,0.0,0.0,0.0,0.0,0.0,0.0,0.0,0.0,-1.1557,0.0,-1.3337,0.0,-1.1989,-1.114,0.0,0.0,0.0,0.0,0.0,0.0,0.0,0.0,0.0,0.0,0.0,0.0,0.0,0.0,0.0,0.0,0.0,0.0,0.0,0.0,0.0,0.0,0.0,0.0,0.0,0.0,0.0,0.0,0.0,0.0,0.0,0.0,0.0,0.0,0.0,0.0,0.0,0.0,0.0,0.0,0.0,0.0,0.0,0.0,0.0,0.0,0.0,0.0,0.0,0.0,0.0,0.0,0.0,0.0,0.0,0.0,0.0,0.0,0.0,0.0,0.0,0.0,0.0,0.0,0.0,0.0,0.0,0.0,0.0,0.0,0.0,0.0,0.0,0.0,0.0,0.0,0.0,0.0,0.0,0.0,0.0,0.0,0.0,0.0,0.0,0.0,0.0,0.0,0.0,0.0,0.0,0.0,0.0,0.0,0.0,0.0,0.0,0.0,0.0,0.0,0.0,0.0,0.0,0.0,0.0,0.0,0.0,0.0,-1.0866,-1.2288,-1.3049,-1.3405,-1.321,-1.2432,-1.1605,0.0,0.0,0.0,0.0,0.0,0.0,0.0,0.0,0.0,0.0,0.0,0.0,0.0,0.0,0.0,0.0,0.0,0.0,0.0,0.0,0.0,0.0,0.0,0.0,0.0,0.0,0.0,0.0,0.0,0.0,0.0,0.0,0.0,0.0,0.0,0.0,0.0,0.0,0.0,0.0,0.0,0.0,0.0,0.0,0.0,0.0,0.0,0.0,0.0,0.0,0.0,0.0,0.0,0.0,0.0,0.0,0.0,0.0,0.0,0.0,0.0,0.0,0.0,0.0,0.0,0.0,0.0,0.0,0.0,0.0,0.0,0.0,0.0,0.0,0.0,0.0,0.0,0.0,0.0,0.0,0.0,0.0,0.0,0.0,0.0,0.0,0.0,0.0,0.0,0.0,0.0,0.0,0.0,0.0,0.0,0.0,0.0,0.0,0.0,0.0,0.0,0.0,0.0,0.0,0.0,0.0,0.0,0.0,0.0,-1.376,-1.403,-1.4096,-1.3946,-1.3189,-1.2099,0.0,0.0,0.0,0.0,0.0,0.0,0.0,0.0,0.0,0.0,0.0,0.0,0.0,0.0,0.0,0.0,0.0,0.0,0.0,0.0,0.0,0.0,0.0,0.0,0.0,0.0,0.0,0.0,0.0,0.0,0.0,0.0,0.0,0.0,0.0,0.0,0.0,0.0,0.0,0.0,0.0,0.0,0.0,0.0,0.0,0.0,0.0,0.0,0.0,0.0,0.0,0.0,0.0,0.0,0.0,0.0,0.0,0.0,0.0,0.0,0.0,0.0,0.0,0.0,0.0,0.0,0.0,0.0,0.0,0.0,0.0,0.0,0.0,0.0,0.0,0.0,0.0,0.0,0.0,0.0,0.0,0.0,0.0,0.0,0.0,0.0,0.0,0.0,0.0,0.0,0.0,0.0,0.0,0.0,0.0,0.0,0.0,0.0,0.0,0.0,0.0,0.0,0.0,0.0,0.0,0.0,0.0,0.0,0.0,-1.5201,-1.5035,-1.4828,-1.4716,-1.3939,-1.2752,-1.1173,0.0,0.0,0.0,0.0,0.0,0.0,0.0,0.0,0.0,0.0,0.0,0.0,0.0,0.0,0.0,0.0,0.0,0.0,0.0,0.0,0.0,0.0,0.0,0.0,0.0,0.0,0.0,0.0,0.0,0.0,0.0,0.0,0.0,0.0,0.0,0.0,0.0,0.0,0.0,0.0,0.0,0.0,0.0,0.0,0.0,0.0,0.0,0.0,0.0,0.0,0.0,0.0,0.0,0.0,0.0,0.0,0.0,0.0,0.0,0.0,0.0,0.0,0.0,0.0,0.0,0.0,0.0,0.0,0.0,0.0,0.0,0.0,0.0,0.0,0.0,0.0,0.0,0.0,0.0,0.0,0.0,0.0,0.0,0.0,0.0,0.0,0.0,0.0,0.0,0.0,0.0,0.0,0.0,0.0,0.0,0.0,0.0,0.0,0.0,0.0,0.0,0.0,0.0,0.0,0.0,0.0,0.0,0.0,-1.6633,-1.6079,-1.5721,-1.5532,-1.4745,-1.3535,0.0,0.0,0.0,0.0,0.0,0.0,0.0,0.0,0.0,0.0,0.0,0.0,0.0,0.0,0.0,0.0,0.0,0.0,0.0,0.0,0.0,0.0,0.0,0.0,0.0,0.0,0.0,0.0,0.0,0.0,0.0,0.0,0.0,0.0,0.0,0.0,0.0,0.0,0.0,0.0,0.0,0.0,0.0,0.0,0.0,0.0,0.0,0.0,0.0,0.0,0.0,0.0,0.0,0.0,0.0,0.0,0.0,0.0,0.0,0.0,0.0,0.0,0.0,0.0,0.0,0.0,0.0,0.0,0.0,0.0,0.0,0.0,0.0,0.0,0.0,0.0,0.0,0.0,0.0,0.0,0.0,0.0,0.0,0.0,0.0,0.0,0.0,0.0,0.0,0.0,0.0,0.0,0.0,0.0,0.0,0.0,0.0,0.0,0.0,0.0,0.0,0.0,0.0,0.0,0.0,0.0,0.0,0.0,0.0,-1.73,-1.7708,-1.7612,-1.7015,-1.6149,-1.4677,0.0,0.0,0.0,0.0,0.0,0.0,0.0,0.0,0.0,0.0,0.0,0.0,0.0,0.0,0.0,0.0,0.0,0.0,0.0,0.0,0.0,0.0,0.0,0.0,0.0,0.0,0.0,0.0,0.0,0.0,0.0,0.0,0.0,0.0,0.0,0.0,0.0,0.0,0.0,0.0,0.0,0.0,0.0,0.0,0.0,0.0,0.0,0.0,0.0,0.0,0.0,0.0,0.0,0.0,0.0,0.0,0.0,0.0,0.0,0.0,0.0,0.0,0.0,0.0,0.0,0.0,0.0,0.0,0.0,0.0,0.0,0.0,0.0,0.0,0.0,0.0,0.0,0.0,0.0,0.0,0.0,0.0,0.0,0.0,0.0,0.0,0.0,0.0,0.0,0.0,0.0,0.0,0.0,0.0,0.0,0.0,0.0,0.0,0.0,0.0,0.0,0.0,0.0,0.0,0.0,0.0,0.0,0.0,-1.6016,-1.8,-1.898,-1.9293,-1.8836,-1.7428,-1.5555,0.0,0.0,0.0,0.0,0.0,0.0,0.0,0.0,0.0,0.0,0.0,0.0,0.0,0.0,0.0,0.0,0.0,0.0,0.0,0.0,0.0,0.0,0.0,0.0,0.0,0.0,0.0,0.0,0.0,0.0,0.0,0.0,0.0,0.0,0.0,0.0,0.0,0.0,0.0,0.0,0.0,0.0,0.0,0.0,0.0,0.0,0.0,0.0,0.0,0.0,0.0,0.0,0.0,0.0,0.0,0.0,0.0,0.0,0.0,0.0,0.0,0.0,0.0,0.0,0.0,0.0,0.0,0.0,0.0,0.0,0.0,0.0,0.0,0.0,0.0,0.0,0.0,0.0,0.0,0.0,0.0,0.0,0.0,0.0,0.0,0.0,0.0,0.0,0.0,0.0,0.0,0.0,0.0,0.0,0.0,0.0,0.0,0.0,0.0,0.0,0.0,0.0,0.0,0.0,0.0,0.0,0.0,0.0,-1.6961,-1.8557,-1.9874,-2.0537,-2.0443,-1.848,-1.6279,0.0,0.0,0.0,0.0,0.0,0.0,0.0,0.0,0.0,0.0,0.0,0.0,0.0,0.0,0.0,0.0,0.0,0.0,0.0,0.0,0.0,0.0,0.0,0.0,0.0,0.0,0.0,0.0,0.0,0.0,0.0,0.0,0.0,0.0,0.0,0.0,0.0,0.0,0.0,0.0,0.0,0.0,0.0,0.0,0.0,0.0,0.0,0.0,0.0,0.0,0.0,0.0,0.0,0.0,0.0,0.0,0.0,0.0,0.0,0.0,0.0,0.0,0.0,0.0,0.0,0.0,0.0,0.0,0.0,0.0,0.0,0.0,0.0,0.0,0.0,0.0,0.0,0.0,0.0,0.0,0.0,0.0,0.0,0.0,0.0,0.0,0.0,0.0,0.0,0.0,0.0,0.0,0.0,0.0,0.0,0.0,0.0,0.0,0.0,0.0,0.0,0.0,0.0,0.0,0.0,0.0,0.0,0.0,-1.6962,-1.9159,-1.9919,-2.0331,-2.042,-1.8762,-1.6979,0.0,0.0,0.0,0.0,0.0,0.0,0.0,0.0,0.0,0.0,0.0,0.0,0.0,0.0,0.0,0.0,0.0,0.0,0.0,0.0,0.0,0.0,0.0,0.0,0.0,0.0,0.0,0.0,0.0,0.0,0.0,0.0,0.0,0.0,0.0,0.0,0.0,0.0,0.0,0.0,0.0,0.0,0.0,0.0,0.0,0.0,0.0,0.0,-0.8109,0.0,0.0,0.0,0.0,0.0,0.0,0.0,0.0,0.0,0.0,0.0,0.0,0.0,0.0,0.0,0.0,0.0,0.0,0.0,0.0,0.0,0.0,0.0,0.0,0.0,0.0,0.0,0.0,0.0,0.0,0.0,0.0,0.0,0.0,0.0,0.0,0.0,0.0,0.0,0.0,0.0,0.0,0.0,0.0,0.0,0.0,0.0,0.0,0.0,0.0,0.0,0.0,0.0,0.0,0.0,0.0,0.0,0.0,0.0,-1.7406,-1.9026,-1.9996,-2.051,-2.0541,-1.9032,-1.735,0.0,0.0,0.0,0.0,0.0,0.0,0.0,0.0,0.0,0.0,0.0,0.0,0.0,0.0,0.0,0.0,0.0,0.0,0.0,0.0,0.0,0.0,0.0,0.0,0.0,0.0,0.0,0.0,0.0,0.0,0.0,0.0,0.0,0.0,0.0,0.0,0.0,0.0,0.0,0.0,0.0,0.0,0.0,0.0,0.0,0.0,0.0,0.0,0.0,0.0,0.0,0.0,0.0,0.0,0.0,0.0,0.0,0.0,0.0,0.0,0.0,0.0,0.0,0.0,0.0,0.0,0.0,0.0,0.0,0.0,0.0,0.0,0.0,0.0,0.0,0.0,0.0,0.0,0.0,0.0,0.0,0.0,0.0,0.0,0.0,0.0,0.0,0.0,0.0,0.0,0.0,0.0,0.0,0.0,0.0,0.0,0.0,0.0,0.0,0.0,0.0,0.0,0.0,0.0,0.0,0.0,0.0,-1.6369,-1.784,-1.868,-2.0019,-2.0745,-2.0729,-1.9233,-1.749,-1.5614,0.0,0.0,0.0,0.0,0.0,0.0,0.0,0.0,0.0,0.0,0.0,0.0,0.0,0.0,0.0,0.0,0.0,0.0,0.0,0.0,0.0,0.0,0.0,0.0,0.0,0.0,0.0,0.0,0.0,0.0,0.0,0.0,0.0,0.0,0.0,0.0,0.0,0.0,-0.7105,-0.8289,0.0,0.0,0.0,0.0,0.0,0.0,0.0,0.0,-0.9618,0.0,0.0,0.0,0.0,0.0,0.0,0.0,0.0,0.0,0.0,0.0,0.0,0.0,0.0,0.0,0.0,0.0,0.0,0.0,0.0,0.0,0.0,0.0,0.0,0.0,0.0,0.0,0.0,0.0,0.0,0.0,0.0,0.0,0.0,0.0,0.0,0.0,0.0,0.0,0.0,0.0,0.0,0.0,0.0,0.0,0.0,0.0,0.0,0.0,0.0,0.0,0.0,0.0,0.0,0.0,0.0,-1.4111,-1.6136,-1.7605,-1.8529,-1.9793,-2.0492,-2.0513,-1.9106,-1.756,-1.5927,0.0,0.0,0.0,0.0,0.0,0.0,0.0,0.0,0.0,0.0,0.0,0.0,0.0,0.0,0.0,0.0,0.0,0.0,0.0,0.0,0.0,0.0,0.0,0.0,0.0,0.0,0.0,0.0,0.0,0.0,0.0,0.0,0.0,0.0,0.0,0.0,0.0,0.0,0.0,-0.9284,-0.9787,0.0,0.0,0.0,0.0,0.0,0.0,0.0,0.0,-0.9837,0.0,0.0,0.0,0.0,0.0,0.0,0.0,0.0,0.0,0.0,0.0,0.0,0.0,0.0,0.0,0.0,0.0,0.0,0.0,0.0,0.0,0.0,0.0,0.0,0.0,0.0,0.0,0.0,0.0,0.0,0.0,0.0,0.0,0.0,0.0,0.0,0.0,0.0,0.0,0.0,0.0,0.0,0.0,0.0,0.0,0.0,0.0,0.0,0.0,0.0,0.0,0.0,0.0,0.0,0.0,-1.4022,-1.6302,-1.7761,-1.8269,-1.9527,-2.0032,-1.9697,-1.8664,-1.7243,0.0,0.0,0.0,0.0,0.0,0.0,0.0,0.0,0.0,0.0,0.0,0.0,0.0,0.0,0.0,0.0,0.0,0.0,0.0,0.0,0.0,0.0,0.0,0.0,0.0,0.0,0.0,0.0,0.0,0.0,0.0,0.0,0.0,0.0,0.0,0.0,0.0,0.0,0.0,0.0,-1.0557,-1.1228,-1.2018,0.0,0.0,0.0,0.0,0.0,0.0,-1.1495,-1.1058,0.0,0.0,0.0,0.0,0.0,0.0,0.0,0.0,0.0,0.0,0.0,0.0,0.0,0.0,0.0,0.0,0.0,0.0,0.0,0.0,0.0,0.0,0.0,0.0,0.0,0.0,0.0,0.0,0.0,0.0,0.0,0.0,0.0,0.0,0.0,0.0,0.0,0.0,0.0,0.0,0.0,0.0,0.0,0.0,0.0,0.0,0.0,0.0,0.0,0.0,0.0,0.0,0.0,0.0,0.0,-1.4106,-1.6563,-1.7966,-1.8212,-1.9349,-1.9652,-1.9002,-1.827,-1.694,0.0,0.0,0.0,0.0,0.0,0.0,0.0,0.0,0.0,0.0,0.0,0.0,0.0,0.0,0.0,0.0,0.0,0.0,0.0,0.0,0.0,0.0,0.0,0.0,0.0,0.0,0.0,0.0,0.0,0.0,0.0,0.0,0.0,0.0,0.0,0.0,0.0,0.0,0.0,0.0,0.0,-1.2617,-1.391,-1.4069,0.0,0.0,0.0,0.0,-1.3975,-1.3079,0.0,0.0,0.0,0.0,0.0,0.0,0.0,0.0,0.0,0.0,0.0,0.0,0.0,0.0,0.0,0.0,0.0,0.0,0.0,0.0,0.0,0.0,0.0,0.0,0.0,0.0,0.0,0.0,0.0,0.0,0.0,0.0,0.0,0.0,0.0,0.0,0.0,0.0,0.0,0.0,0.0,0.0,0.0,0.0,0.0,0.0,0.0,0.0,0.0,0.0,0.0,0.0,0.0,0.0,0.0,0.0,-1.4676,-1.6682,-1.8048,-1.8782,-1.9489,-1.9532,-1.8919,-1.8253,-1.694,0.0,0.0,0.0,0.0,0.0,0.0,0.0,0.0,0.0,0.0,0.0,0.0,0.0,0.0,0.0,0.0,0.0,0.0,0.0,0.0,0.0,0.0,0.0,0.0,0.0,0.0,0.0,0.0,0.0,0.0,0.0,0.0,0.0,0.0,0.0,0.0,0.0,0.0,0.0,0.0,0.0,-1.3191,-1.4062,-1.413,-1.4069,0.0,0.0,-1.392,-1.391,-1.3777,0.0,0.0,0.0,0.0,0.0,0.0,0.0,0.0,0.0,0.0,0.0,0.0,0.0,0.0,0.0,0.0,0.0,0.0,0.0,0.0,0.0,0.0,0.0,0.0,0.0,0.0,0.0,0.0,0.0,0.0,0.0,0.0,0.0,0.0,0.0,0.0,0.0,0.0,0.0,0.0,0.0,0.0,0.0,0.0,0.0,0.0,0.0,0.0,0.0,0.0,0.0,0.0,0.0,0.0,0.0,-1.2804,-1.4767,-1.6712,-1.8044,-1.8771,-1.9399,-1.9429,-1.8786,-1.814,-1.6848,0.0,0.0,0.0,0.0,0.0,0.0,0.0,0.0,0.0,0.0,0.0,0.0,0.0,0.0,0.0,0.0,0.0,0.0,0.0,0.0,0.0,0.0,0.0,0.0,0.0,0.0,0.0,0.0,0.0,0.0,0.0,0.0,0.0,0.0,0.0,0.0,0.0,0.0,0.0,0.0,0.0,0.0,-1.5672,-1.5873,0.0,0.0,0.0,-1.6199,-1.6083,0.0,0.0,0.0,0.0,0.0,0.0,0.0,0.0,0.0,0.0,0.0,0.0,0.0,0.0,0.0,0.0,0.0,0.0,0.0,0.0,0.0,0.0,0.0,0.0,0.0,0.0,0.0,0.0,0.0,0.0,0.0,0.0,0.0,0.0,0.0,0.0,0.0,0.0,0.0,0.0,0.0,0.0,0.0,0.0,0.0,0.0,0.0,0.0,0.0,0.0,0.0,0.0,0.0,0.0,0.0,0.0,0.0,-1.5035,-1.6787,-1.8102,-1.8942,-1.9435,-1.9375,-1.8717,-1.8042,0.0,0.0,0.0,0.0,0.0,0.0,0.0,0.0,0.0,0.0,0.0,0.0,0.0,0.0,0.0,0.0,0.0,0.0,0.0,0.0,0.0,0.0,0.0,0.0,0.0,0.0,0.0,-0.5153,0.0,0.0,0.0,0.0,0.0,0.0,0.0,0.0,0.0,0.0,0.0,0.0,0.0,0.0,-1.5154,-1.6919,-1.7332,-1.7578,0.0,0.0,-1.7922,-1.773,-1.6772,-1.5993,0.0,0.0,0.0,0.0,0.0,0.0,0.0,0.0,0.0,0.0,0.0,0.0,0.0,0.0,0.0,0.0,0.0,0.0,0.0,0.0,0.0,0.0,0.0,0.0,0.0,0.0,0.0,0.0,0.0,0.0,0.0,0.0,0.0,0.0,0.0,0.0,0.0,0.0,0.0,0.0,0.0,0.0,0.0,0.0,0.0,0.0,0.0,0.0,0.0,0.0,0.0,0.0,0.0,0.0,0.0,-1.5664,-1.7026,-1.8311,-1.9573,-1.9678,-1.9393,-1.8717,-1.8057,-1.6787,0.0,0.0,0.0,0.0,0.0,0.0,0.0,0.0,0.0,0.0,0.0,0.0,0.0,0.0,0.0,0.0,0.0,0.0,0.0,0.0,0.0,0.0,0.0,0.0,0.0,0.0,0.0,0.0,0.0,0.0,0.0,0.0,0.0,0.0,0.0,0.0,0.0,0.0,0.0,0.0,0.0,-1.6147,-1.6997,-1.77,-1.8099,0.0,0.0,-1.7938,-1.773,-1.7115,-1.6458,-1.5889,0.0,0.0,0.0,0.0,0.0,0.0,0.0,0.0,0.0,0.0,0.0,0.0,0.0,0.0,0.0,0.0,0.0,0.0,0.0,0.0,0.0,0.0,0.0,0.0,0.0,0.0,0.0,0.0,0.0,0.0,0.0,0.0,0.0,0.0,0.0,0.0,0.0,0.0,0.0,0.0,0.0,0.0,0.0,0.0,0.0,0.0,0.0,0.0,0.0,0.0,0.0,0.0,0.0,-1.3535,-1.5754,-1.7056,-1.8341,-1.9648,-1.9723,-1.9573,-1.9316,-1.8267,-1.7145,0.0,0.0,0.0,0.0,0.0,0.0,0.0,0.0,0.0,0.0,0.0,0.0,0.0,0.0,0.0,0.0,0.0,0.0,0.0,0.0,0.0,0.0,0.0,0.0,0.0,0.0,0.0,0.0,-0.7407,-0.7531,-0.7826,0.0,0.0,0.0,0.0,0.0,0.0,0.0,0.0,0.0,0.0,-1.6557,-1.8113,-1.8652,0.0,0.0,-1.9214,-1.9148,-1.8976,-1.8356,-1.7848,-1.761,-1.6383,0.0,0.0,0.0,0.0,0.0,0.0,0.0,0.0,0.0,0.0,0.0,0.0,0.0,0.0,0.0,0.0,0.0,0.0,0.0,0.0,0.0,0.0,0.0,0.0,0.0,0.0,0.0,0.0,0.0,0.0,0.0,0.0,0.0,0.0,0.0,0.0,0.0,0.0,0.0,0.0,0.0,0.0,0.0,0.0,0.0,0.0,0.0,0.0,0.0,0.0,0.0,0.0,-1.387,-1.6054,-1.7145,-1.8341,-1.9678,-1.9723,-1.9723,-1.9678,-1.8597,-1.7593,0.0,0.0,0.0,0.0,0.0,0.0,0.0,0.0,0.0,0.0,0.0,0.0,0.0,0.0,0.0,0.0,0.0,0.0,0.0,0.0,0.0,0.0,0.0,0.0,0.0,0.0,0.0,0.0,-0.7805,-0.7923,-0.8162,0.0,0.0,0.0,0.0,0.0,0.0,0.0,0.0,0.0,0.0,-1.7395,-1.8859,-1.9307,-1.9613,-1.9965,-1.997,-1.9899,-1.9726,-1.9136,-1.8702,-1.8702,0.0,0.0,0.0,0.0,0.0,0.0,0.0,0.0,0.0,0.0,0.0,0.0,0.0,0.0,0.0,0.0,0.0,0.0,0.0,0.0,0.0,0.0,0.0,0.0,0.0,0.0,0.0,0.0,0.0,0.0,-0.7416,0.0,0.0,0.0,0.0,0.0,0.0,0.0,0.0,0.0,0.0,0.0,0.0,0.0,0.0,0.0,0.0,0.0,0.0,0.0,0.0,0.0,0.0,0.0,-1.6637,-1.7339,-1.8341,-1.9663,-1.9723,-1.9723,-1.9693,-1.9031,-1.8057,-1.6711,0.0,0.0,0.0,0.0,0.0,0.0,0.0,0.0,0.0,0.0,0.0,0.0,0.0,0.0,0.0,0.0,0.0,0.0,0.0,0.0,0.0,0.0,0.0,0.0,0.0,0.0,-0.7812,-0.7871,-0.8177,0.0,0.0,0.0,0.0,0.0,0.0,0.0,0.0,0.0,0.0,-1.7557,-1.8891,-1.9049,-1.958,-2.0053,-2.0033,-1.9929,-1.981,-1.9771,-1.9181,-1.8717,0.0,0.0,0.0,0.0,0.0,0.0,0.0,0.0,0.0,0.0,0.0,0.0,0.0,0.0,0.0,0.0,0.0,0.0,0.0,0.0,0.0,0.0,0.0,0.0,0.0,0.0,0.0,-0.9316,-0.9316,0.0,0.0,0.0,0.0,0.0,0.0,0.0,0.0,0.0,0.0,0.0,-1.5388,-1.5979,0.0,0.0,0.0,0.0,0.0,0.0,0.0,0.0,0.0,0.0,0.0,0.0,-1.4544,-1.6607,-1.7354,-1.8341,-1.9663,-1.9723,-1.9723,-1.9693,-1.9046,-1.7879,-1.6144,0.0,0.0,0.0,0.0,0.0,0.0,0.0,0.0,0.0,0.0,0.0,0.0,0.0,0.0,0.0,0.0,0.0,0.0,0.0,0.0,0.0,0.0,0.0,0.0,0.0,-0.805,0.0,0.0,0.0,0.0,0.0,0.0,0.0,0.0,0.0,0.0,0.0,-1.7386,-1.8285,-1.9404,-2.0346,-2.0805,-2.1118,-2.1292,0.0,0.0,0.0,0.0,0.0,0.0,0.0,0.0,0.0,0.0,0.0,0.0,0.0,0.0,-1.7852,-1.6645,-1.6208,-1.6081,-1.6229,0.0,0.0,0.0,0.0,0.0,0.0,0.0,0.0,0.0,0.0,0.0,0.0,0.0,0.0,-1.1046,0.0,-1.0497,0.0,0.0,0.0,0.0,0.0,0.0,0.0,0.0,-1.5805,-1.6938,-1.7746,-1.8172,-1.8259,0.0,-1.7429,-1.5785,0.0,0.0,0.0,0.0,0.0,0.0,0.0,0.0,-1.5337,-1.6995,-1.7713,-1.8583,-1.9648,-1.9723,-1.9723,-1.9693,-1.9046,-1.8089,-1.6863,-1.6158,-1.4989,0.0,0.0,0.0,0.0,0.0,0.0,0.0,0.0,0.0,0.0,0.0,0.0,0.0,0.0,0.0,0.0,0.0,0.0,0.0,0.0,0.0,0.0,0.0,-0.8859,0.0,0.0,0.0,0.0,0.0,0.0,0.0,0.0,0.0,-1.6473,-1.7595,-1.8807,-1.9899,-2.0674,-2.1283,-2.1728,0.0,0.0,0.0,0.0,0.0,0.0,0.0,-2.1695,-2.1695,-2.1335,-2.1066,-2.1066,-2.0734,-2.0545,-2.0658,0.0,0.0,-1.8812,-1.8334,-1.8235,-1.843,-1.8635,-1.9052,-1.9963,-2.0618,-2.1284,0.0,0.0,0.0,0.0,0.0,0.0,0.0,0.0,-1.3298,-1.3298,0.0,-1.2755,0.0,0.0,0.0,0.0,0.0,-1.4809,0.0,0.0,-1.8488,-1.9635,-2.042,-2.1223,-2.1321,-2.0703,-2.0037,-1.9031,-1.7699,-1.5889,0.0,0.0,0.0,0.0,0.0,0.0,-1.6458,-1.7699,-1.8356,-1.9016,-1.9678,-1.9723,-1.9723,-1.9693,-1.9076,-1.8732,-1.8627,-1.6907,-1.5873,-1.5754,-1.3343,0.0,0.0,0.0,0.0,0.0,0.0,0.0,0.0,0.0,0.0,0.0,0.0,0.0,0.0,0.0,0.0,0.0,0.0,0.0,0.0,-0.9569,0.0,0.0,0.0,0.0,0.0,0.0,0.0,0.0,0.0,0.0,-1.8072,-1.9046,-2.0052,-2.0718,0.0,0.0,0.0,0.0,-2.1869,-2.1949,-2.1874,-2.1859,-2.1859,-2.1859,-2.1859,-2.1859,0.0,0.0,-2.1799,-2.1834,-2.1848,-2.1883,-2.2024,-2.1879,-2.0903,-2.0792,-2.0942,-2.1151,-2.1371,-2.196,-2.2848,-2.3024,-2.3449,-1.8044,0.0,0.0,0.0,0.0,-1.56,-1.556,-1.556,-1.556,-1.5608,-1.5683,-1.5145,0.0,0.0,0.0,0.0,0.0,0.0,-1.7916,-1.8835,-1.9628,-2.0382,-2.1128,-2.1506,-2.1605,-2.141,-2.1235,-2.0677,-1.9851,-1.9283,-1.773,-1.526,0.0,0.0,0.0,0.0,-1.7086,-1.8341,-1.8595,-1.9031,-1.9675,-1.9723,-1.9723,-1.9723,-1.951,-1.9181,-1.8717,-1.8164,-1.7222,-1.5858,-1.5079,0.0,0.0,0.0,0.0,0.0,0.0,0.0,0.0,0.0,0.0,0.0,0.0,0.0,0.0,0.0,0.0,0.0,0.0,0.0,-1.0195,-1.1281,-1.2209,0.0,0.0,0.0,0.0,0.0,0.0,0.0,0.0,0.0,-2.1814,-2.1844,-2.2074,0.0,0.0,-2.3932,-2.4425,-2.4477,-2.45,-2.4485,0.0,0.0,0.0,-2.4492,-2.4477,-2.4492,-2.4081,-2.3789,-2.3767,-2.3392,-2.3119,-2.3203,-2.3349,-2.3412,-2.3253,-2.2636,-2.2327,-2.2508,-2.2813,-2.3178,-2.3653,-2.4197,-2.4712,-2.1133,-1.9281,-1.8467,-1.8091,-1.8035,-1.7897,-1.7838,-1.792,-1.792,-1.7999,-1.8099,-1.7571,-1.7278,-1.7165,-1.6791,0.0,0.0,0.0,-2.0359,-2.1234,-2.1689,-2.2252,-2.2884,-2.2855,-2.2841,-2.2832,-2.2323,-2.1909,-2.1485,-2.1231,-2.0109,-1.8165,0.0,0.0,-1.7488,-1.7758,-1.8416,-1.9432,-1.975,-2.0094,-2.0486,-2.0247,-1.9959,-1.9723,-1.9723,-1.9528,-1.9106,-1.8837,-1.8164,-1.6997,-1.6203,-1.4931,0.0,0.0,0.0,0.0,0.0,0.0,0.0,0.0,0.0,0.0,0.0,-0.9392,0.0,0.0,0.0,0.0,-1.1132,-1.16,-1.1947,-1.3193,0.0,0.0,0.0,0.0,0.0,0.0,0.0,-2.1335,-2.2293,-2.3251,-2.4238,-2.4073,-2.3991,-2.4343,-2.4747,-2.5143,-2.5555,0.0,-2.56,-2.56,-2.56,-2.56,-2.56,-2.56,-2.56,-2.56,-2.53,-2.5008,-2.4978,-2.4657,-2.444,-2.4514,-2.4684,-2.4837,-2.4967,-2.4513,-2.4128,-2.4015,-2.4197,-2.4498,-2.481,-2.5261,-2.5629,-2.3539,-2.3258,-2.1498,-2.0566,-2.0271,-2.0066,-2.0078,-2.0246,-2.0271,-2.0348,-2.0424,-1.9959,-1.949,-1.9113,-1.9596,0.0,-2.0414,-2.1882,-2.2951,-2.3784,-2.4189,-2.4661,-2.5147,-2.4834,-2.4694,-2.4649,-2.349,-2.2942,-2.2912,-2.2248,-2.1889,-2.1799,-1.9959,-1.8986,-1.8972,-1.9558,-2.0154,-2.0763,-2.138,-2.1665,-2.1605,-2.1021,-2.0378,-1.9723,-1.9723,-1.9708,-1.9693,-1.9106,-1.8747,-1.864,-1.6937,-1.5619,-1.4871,0.0,0.0,0.0,0.0,0.0,0.0,0.0,0.0,0.0,0.0,0.0,0.0,0.0,0.0,0.0,-1.3301,0.0,-1.4124,-1.532,0.0,0.0,0.0,-1.8565,-1.9929,-2.1171,-2.2209,-2.2853,0.0,0.0,-2.5615,0.0,-2.5764,-2.5749,-2.5734,-2.5704,-2.5726,-2.5809,-2.5779,-2.5839,-2.5794,-2.5779,-2.5899,-2.5869,-2.5884,-2.5899,-2.5719,-2.5689,-2.5674,-2.557,-2.5561,-2.5525,-2.5809,-2.5963,-2.5978,-2.6128,-2.6249,-2.5485,-2.5567,-2.5851,-2.6204,-2.6328,-2.6435,-2.6262,-2.6046,-2.4884,-2.3437,-2.1835,-2.1581,-2.1513,-2.1567,-2.1675,-2.1756,-2.189,-2.1865,-2.173,-2.1601,-2.2144,-2.2427,-2.2521,-2.3413,-2.4048,-2.4475,-2.4833,-2.5073,-2.5191,-2.5318,-2.5352,-2.5337,-2.5061,-2.4911,-2.4881,-2.4216,-2.3648,-2.3131,-2.2224,-2.1485,-2.1006,-2.116,-2.1306,-2.147,-2.1605,-2.1455,-2.0942,-2.0797,-2.0378,-1.9738,-1.9723,-1.9723,-1.9708,-1.9558,-1.9228,-1.8717,-1.7775,-1.6727,-1.5619,-1.4124,0.0,0.0,0.0,0.0,0.0,0.0,0.0,0.0,0.0,-1.1636,-1.228,0.0,-1.3899,0.0,-1.571,-1.6787,-1.6787,-1.7969,0.0,0.0,-2.0767,-2.147,-2.3229,-2.3723,-2.4171,-2.4837,-2.563,-2.6183,-2.6348,-2.6797,-2.7121,-2.7121,-2.6677,-2.6551,-2.7031,-2.7136,-2.7136,-2.7106,-2.7076,-2.7136,-2.7091,-2.7136,-2.7066,-2.7121,-2.6692,-2.6363,-2.6348,-2.5929,-2.56,-2.5615,-2.5731,-2.5871,-2.6016,-2.6198,-2.6384,-2.6379,-2.6598,-2.6931,-2.7279,-2.7365,-2.7499,-2.7424,-2.7219,-2.6654,-2.5652,-2.4408,-2.3382,-2.2963,-2.3035,-2.3091,-2.3272,-2.344,-2.3338,-2.3245,-2.3277,-2.3749,-2.3995,-2.4151,-2.4935,-2.5426,-2.572,-2.5966,-2.6125,-2.616,-2.6087,-2.6048,-2.6033,-2.5749,-2.56,-2.5585,-2.5217,-2.4694,-2.4059,-2.3714,-2.3206,-2.2583,-2.2283,-2.2248,-2.2547,-2.2547,-2.2248,-2.1605,-2.1306,-2.0842,-2.0168,-1.9857,-1.9723,-1.9723,-1.9723,-1.9528,-1.9169,-1.8506,-1.7818,-1.7117,-1.5574,-1.4363,0.0,0.0,0.0,0.0,0.0,0.0,0.0,0.0,0.0,0.0,0.0,-1.6338,-1.6922,-1.8238,-1.9148,-1.9447,-2.0423,-2.158,-2.2862,-2.299,-2.3513,-2.4903,-2.5292,-2.5764,-2.6408,-2.7066,-2.7604,-2.7914,-2.8274,-2.8483,-2.8483,-2.8184,-2.7854,-2.763,-2.7585,-2.7585,-2.7585,-2.7585,-2.7585,-2.7585,-2.7585,-2.7585,-2.757,-2.7285,-2.7046,-2.7021,-2.6761,-2.6482,-2.6507,-2.6603,-2.6714,-2.681,-2.7,-2.7195,-2.7411,-2.7663,-2.7725,-2.7565,-2.7648,-2.7806,-2.7971,-2.7767,-2.7609,-2.7446,-2.7198,-2.5376,-2.4617,-2.4633,-2.4675,-2.478,-2.4973,-2.449,-2.4368,-2.449,-2.4813,-2.5093,-2.5398,-2.6134,-2.6671,-2.7003,-2.7144,-2.7284,-2.7372,-2.6956,-2.6722,-2.6716,-2.6123,-2.5854,-2.5854,-2.5779,-2.5427,-2.4874,-2.4694,-2.4306,-2.3729,-2.3116,-2.3077,-2.358,-2.3595,-2.3332,-2.2703,-2.2113,-2.1455,-2.0722,-2.0124,-1.9779,-1.9723,-1.9723,-1.9723,-1.9693,-1.9061,-1.8702,-1.8672,-1.6997,-1.6008,0.0,-1.4827,0.0,0.0,0.0,0.0,0.0,0.0,0.0,0.0,-1.7356,-1.8625,-1.9977,-2.0677,-2.135,-2.2024,-2.2688,-2.3571,-2.4694,-2.4933,-2.5247,-2.589,-2.6572,-2.7225,-2.7794,-2.8353,-2.8951,-2.9442,-2.9621,-2.9606,-2.9532,-2.9472,-2.9067,-2.8139,-2.7839,-2.7779,-2.772,-2.7645,-2.7585,-2.7585,-2.7585,-2.7585,-2.7585,-2.7555,-2.7585,-2.7555,-2.754,-2.7555,-2.7555,-2.76,-2.7705,-2.779,-2.7944,-2.8155,-2.8255,-2.8369,-2.8311,-2.783,-2.7822,-2.7918,-2.9407,-2.932,-2.8796,-2.8598,-2.8468,-2.7502,-2.6829,-2.641,-2.653,-2.6405,-2.607,-2.5507,-2.5315,-2.5438,-2.5602,-2.5833,-2.6101,-2.6347,-2.6698,-2.7003,-2.713,-2.7258,-2.7412,-2.7405,-2.7405,-2.7405,-2.7285,-2.7225,-2.721,-2.6647,-2.6348,-2.6198,-2.5143,-2.4522,-2.4395,0.0,0.0,0.0,-2.3595,-2.3317,-2.2718,-2.2583,-2.1934,-2.0748,-2.0587,0.0,-1.9738,-1.9723,-1.9723,-1.9693,-1.9046,0.0,0.0,0.0,0.0,0.0,0.0,0.0,0.0,0.0,0.0,0.0,-1.9089,-1.9196,-1.8283,-1.9358,-2.0707,-2.1999,-2.2682,-2.334,-2.3977,-2.4634,-2.5375,-2.6123,-2.6692,-2.73,-2.7964,-2.8607,-2.9086,-2.9202,-2.9325,-2.9472,-2.9636,-2.9621,-2.9636,-2.9696,-2.9621,-2.9517,-2.9277,-2.8742,-2.8412,-2.8382,-2.8034,-2.7645,-2.7585,-2.763,-2.766,-2.7585,-2.7585,-2.7585,-2.7585,-2.7585,-2.7585,-2.7585,-2.7625,-2.7675,-2.7765,-2.784,-2.7965,-2.8186,-2.8348,-2.8496,-2.8721,-2.8779,-2.893,-2.996,0.0,-2.9633,-2.949,0.0,-2.9089,-2.8766,-2.8421,-2.7748,-2.7346,-2.717,-2.6933,-2.6708,-2.6495,-2.6633,-2.6584,-2.6418,-2.6566,-2.6817,-2.7093,-2.7155,-2.731,-2.7514,-2.7549,-2.7585,-2.7585,-2.7585,-2.7585,-2.757,-2.727,-2.6941,-2.6596,-2.5929,-2.5435,-2.5083,-2.4425,-2.3939,-2.3595,-2.3595,-2.3445,-2.3152,-2.2853,-2.2373,-2.171,0.0,0.0,0.0,0.0,0.0,0.0,0.0,0.0,0.0,0.0,0.0,-1.8222,-1.8194,-1.8341,-1.867,-1.8984,-1.9462,-2.0154,-2.1376,-2.1859,-2.1171,-2.2033,-2.3035,-2.4014,-2.4418,-2.4866,-2.5525,-2.5899,-2.6497,-2.7455,-2.7889,-2.8378,-2.8981,-2.937,-2.9726,-2.9983,-3.0043,-3.0148,-3.0507,-3.0537,-3.0509,-3.0552,-3.0537,-3.0522,-3.0447,-2.9699,-2.9086,-2.9112,-2.8858,-2.8603,-2.8573,-2.8274,-2.8068,-2.8079,-2.7824,-2.7615,-2.7585,-2.7585,-2.7585,-2.7585,-2.7585,-2.7625,-2.7675,-2.775,-2.784,-2.7989,-2.8177,-2.8396,-2.8692,-2.8889,-2.9059,-3.0313,-3.0299,-3.0215,-3.0217,-3.0172,-3.0172,-3.0203,-3.0101,0.0,0.0,0.0,-2.8197,-2.7926,-2.7482,-2.7607,-2.7374,-2.6856,-2.6929,-2.7097,-2.7343,-2.7225,-2.7346,-2.7585,-2.7585,-2.7585,-2.7585,-2.7585,-2.7585,-2.7585,-2.7585,-2.7315,-2.6811,-2.6647,-2.6258,-2.5615,-2.5053,-2.444,-2.3819,-2.367,-2.3595,-2.358,-2.3122,-2.2808,-2.2703,-2.2179,-2.156,-2.0897,-2.0868,-2.0617,-2.0082,-2.0067,-2.0052,-2.0067,-2.0067,-2.0067,-2.0052,-2.0052,-2.0288,-2.0838,-2.1006,-2.1395,-2.2158,-2.34,-2.4088,-2.3969,-2.4455,-2.5053,-2.5734,-2.5779,-2.6093,-2.6856,-2.6946,-2.744,-2.8652,-2.8861,-2.916,-2.9669,-2.9879,-3.0178,-3.0582,-3.0687,-3.0881,-3.1361,-3.1436,-3.1496,-3.1481,-3.1391,-3.1496,-3.1361,-3.0477,-2.9684,-2.9577,-2.9457,-2.9547,-2.949,-2.9131,-2.8786,-2.8757,-2.8349,-2.7929,-2.7809,-2.7779,-2.7735,-2.76,-2.7585,-2.76,-2.76,-2.7675,-2.779,-2.779,-2.7989,-2.8162,-2.8323,-2.8573,-2.8811,-3.1145,-3.1087,-3.0693,-3.0507,-3.0538,-3.0522,-3.0507,-3.0434,-2.9459,-2.9025,-2.9011,-2.844,-2.8154,-2.8097,-2.8282,-2.8309,-2.8194,-2.7784,-2.7713,0.0,-2.7447,-2.7321,-2.7585,-2.7585,-2.7585,-2.7585,-2.7585,-2.7585,-2.7585,-2.7585,-2.7555,-2.7405,-2.6871,-2.6273,-2.5659,-2.5486,-2.5151,-2.447,-2.3894,-2.3595,-2.3595,-2.352,-2.3206,-2.2733,-2.2613,-2.2254,-2.159,-2.156,-2.1515,-2.1425,-2.1425,-2.141,-2.143,-2.1395,-2.141,-2.1425,-2.1425,-2.147,-2.1575,-2.2104,-2.2936,-2.4126,-2.542,-2.5929,-2.539,-2.5405,-2.5726,-2.6378,-2.6497,-2.6976,-2.8128,-2.8293,-2.8577,-2.934,-2.9924,-3.0283,-3.0387,-3.0838,-3.1182,-3.1286,-3.1361,-3.1346,-3.1451,-3.1496,-3.1496,-3.1496,-3.1496,-3.1496,-3.1391,-3.0838,-3.0193,-2.9756,-2.9621,-2.9621,-2.9726,-2.9577,-2.9472,-2.9472,-2.9352,-2.9007,-2.8517,-2.8457,-2.8293,-2.7735,-2.7705,-2.766,-2.7645,-2.7585,-2.7675,-2.7765,-2.7865,-2.7915,-2.8069,-2.821,-2.8414,-3.1951,-3.1953,-3.1851,-3.1578,-3.1228,-3.0982,-3.0851,-3.0836,-3.0411,-3.0146,-2.9939,-2.9607,-2.9304,-2.8958,-2.9074,-2.8943,-2.861,-2.8417,-2.8464,-2.8613,-2.8468,-2.83,-2.8143,-2.8113,-2.7959,-2.7615,-2.7585,-2.7585,-2.7585,-2.7585,-2.7585,-2.757,-2.7285,-2.6821,-2.6183,-2.6153,-2.5785,-2.5143,-2.447,-2.3962,-2.361,-2.3595,-2.3475,-2.3197,-2.3197,-2.2877,-2.2269,-2.2254,-2.2069,-2.171,-2.1695,-2.1695,-2.1695,-2.2059,-2.2218,-2.2254,-2.2547,-2.2892,-2.3266,-2.3894,-2.4672,-2.5615,-2.6243,-2.6632,-2.6701,-2.6701,-2.6961,-2.763,-2.7679,-2.8083,-2.9026,-2.9146,-2.9385,-3.0028,-3.0342,-3.0629,-3.0987,-3.1271,-3.1496,-3.1496,-3.1496,-3.1496,-3.1496,-3.1496,-3.1496,-3.1496,-3.1496,-3.1496,-3.1496,-3.1241,-3.0943,-3.0702,-3.0657,-3.0614,-3.0612,-3.0283,-3.0118,-3.0088,-2.9831,-2.949,-2.9187,-2.9157,-2.9022,-2.8738,-2.8423,-2.8158,-2.8113,-2.7824,-2.7685,-2.7675,-2.775,-2.7815,-2.789,-2.8005,-2.8226,-3.2698,-3.273,-3.2713,-3.2457,-3.2008,-3.1661,-3.1456,-3.1294,-3.1324,-3.1087,-3.0732,-3.0672,-3.0336,-2.9871,-2.9827,-2.9595,-2.9231,-2.9125,-2.9207,-2.9359,-2.9406,-2.9203,-2.8846,-2.8816,-2.8547,-2.8064,-2.7899,-2.7824,-2.7809,-2.7675,-2.7585,-2.7585,-2.7585,-2.733,-2.6826,-2.6836,-2.6497,-2.5854,-2.5307,-2.4709,-2.4088,-2.4059,-2.3984,-2.3834,-2.3812,-2.3556,-2.2957,-2.2912,-2.2673,-2.2173,-2.2128,-2.2203,-2.2368,-2.2832,-2.3212,-2.3362,-2.3789,-2.4261,-2.4799,-2.5465,-2.6048,-2.6566,-2.6761,-2.7121,-2.7735,-2.7839,-2.8049,-2.8517,-2.8682,-2.9071,-2.9654,-2.9804,-3.0043,-3.0642,-3.0746,-3.0956,-3.1391,-3.1496,-3.1496,-3.1496,-3.1496,-3.1496,-3.1496,-3.1496,-3.1496,-3.1496,-3.1496,-3.1496,-3.1496,-3.1496,-3.1496,-3.1496,-3.1496,-3.1436,-3.1481,-3.1077,-3.0748,-3.0703,-3.0387,-3.0073,-2.9894,-2.9789,-2.9669,-2.9547,-2.9146,-2.8861,-2.8771,-2.8483,-2.8109,-2.8015,-2.8006,-2.7966,-2.7846,-2.788,-2.8079,-3.3237,-3.3282,-3.2835,-3.2594,-3.271,-3.2781,-3.246,-3.1973,-3.1913,-3.1589,-3.1073,-3.0866,-3.0687,-3.0525,-3.0496,-3.0497,-3.0514,-3.0046,-2.994,-3.0093,-2.9642,-2.9426,-2.9505,-2.9505,-2.9487,-2.9307,-2.8771,-2.8476,-2.8431,-2.7889,-2.76,-2.7585,-2.7585,-2.757,-2.7495,-2.748,-2.7165,-2.6527,-2.6462,-2.6093,-2.548,-2.542,-2.5113,-2.453,-2.4515,-2.4186,-2.358,-2.3541,-2.349,-2.3415,-2.3415,-2.3714,-2.4231,-2.4395,-2.4679,-2.5226,-2.536,-2.5465,-2.554,-2.6138,-2.6542,-2.6632,-2.7195,-2.7794,-2.8427,-2.8517,-2.8532,-2.8742,-2.919,-2.9771,-3.0328,-3.0417,-3.0687,-3.1212,-3.1331,-3.1451,-3.1481,-3.1496,-3.1496,-3.1496,-3.1496,-3.1496,-3.1496,-3.1496,-3.1496,-3.1496,-3.1496,-3.1496,-3.1496,-3.1496,-3.1496,-3.1496,-3.1496,-3.1496,-3.1481,-3.1466,-3.1316,-3.1346,-3.1346,-3.0987,-3.0597,-3.0402,-3.0298,-3.0028,-2.9651,-2.9505,-2.949,-2.9412,-2.9142,-2.8648,-2.8483,-2.8389,-2.7976,-2.7851,-2.804,-3.384,-3.4008,-3.3893,-3.3739,-3.3581,-3.3262,-3.3044,-3.2868,-3.2898,-3.2405,-3.1692,-3.1558,-3.1232,-3.0746,-3.0821,-3.0866,-3.0792,-3.0749,-3.0776,-3.0862,-3.0695,-3.0425,-3.0039,-3.001,-2.9788,-2.9319,-2.901,-2.8919,-2.8773,-2.8225,-2.7747,-2.7401,-2.7423,-2.7488,-2.7488,-2.7549,-2.745,-2.721,-2.7195,-2.7061,-2.6722,-2.6004,-2.5457,-2.5232,-2.5211,-2.5068,-2.4837,-2.4769,-2.4777,-2.4792,-2.4807,-2.4911,-2.5173,-2.5211,-2.5315,-2.5615,-2.5989,-2.6198,-2.6198,-2.6821,-2.7375,-2.7739,-2.8008,-2.8457,-2.9131,-2.9505,-2.9729,-2.9759,-2.9983,-3.0387,-3.0972,-3.1092,-3.1212,-3.1451,-3.1496,-3.1496,-3.1496,-3.1496,-3.1496,-3.1496,-3.1496,-3.1496,-3.1496,-3.1496,-3.1496,-3.1496,-3.1496,-3.1496,-3.1496,-3.1496,-3.1496,-3.1496,-3.1496,-3.1496,-3.1496,-3.1496,-3.1496,-3.1496,-3.1496,-3.1316,-3.1167,-3.1077,-3.0987,-3.0746,-3.0387,-3.0148,-3.0118,-2.9789,-2.9487,-2.919,-2.9146,-2.9007,-2.8385,-2.8265,-2.8273,-3.4108,-3.4346,-3.4597,-3.4552,-3.4312,-3.3871,-3.3622,-3.3645,-3.363,-3.3088,-3.2312,-3.209,-3.166,-3.1129,-3.1013,-3.0895,-3.0851,-3.1058,-3.1205,-3.1263,-3.1366,-3.1069,-3.0552,-3.0522,-3.0229,-2.9701,-2.9466,-2.9274,-2.9083,-2.8628,-2.8154,-2.7768,-2.7639,-2.7617,-2.7587,-2.7567,-2.7499,-2.7484,-2.7499,-2.7524,-2.739,-2.6598,-2.6016,-2.5899,-2.5884,-2.5809,-2.5615,-2.56,-2.56,-2.56,-2.56,-2.5666,-2.5854,-2.5884,-2.5959,-2.6168,-2.6587,-2.6896,-2.6871,-2.7495,-2.8068,-2.8547,-2.8742,-2.9172,-2.9759,-3.0253,-3.0582,-3.0748,-3.0776,-3.0987,-3.1376,-3.1496,-3.1496,-3.1496,-3.1496,-3.1496,-3.1496,-3.1496,-3.1496,-3.1496,-3.1496,-3.1496,-3.1496,-3.1496,-3.1496,-3.1496,-3.1496,-3.1496,-3.1496,-3.1496,-3.1496,-3.1496,-3.1496,-3.1496,-3.1496,-3.1496,-3.1496,-3.1496,-3.1496,-3.1496,-3.1496,-3.1496,-3.1496,-3.1092,-3.0926,-3.0836,-3.0806,-3.0402,-2.9983,-2.9864,-2.9729,-2.9505,-2.8992,-2.8891,-2.8734,-3.3799,-3.4128,-3.4515,-3.4654,-3.4673,-3.4751,-3.4478,-3.3997,-3.3997,-3.3596,-3.293,-3.2339,-3.1924,-3.1699,-3.1023,-3.0717,-3.0791,-3.0851,-3.0955,-3.1117,-3.1146,-3.1102,-3.1073,-3.1073,-3.1028,-3.0749,-3.0234,-2.969,-2.9144,-2.9055,-2.9053,-2.8937,-2.8348,-2.8069,-2.8036,-2.7591,-2.7262,-2.7332,-2.7292,-2.7299,-2.7401,-2.7312,-2.7001,-2.6593,-2.6557,-2.6288,-2.5764,-2.563,-2.5644,-2.563,-2.5704,-2.5944,-2.6452,-2.6557,-2.6821,-2.736,-2.7525,-2.7555,-2.763,-2.8199,-2.8607,-2.8727,-2.9235,-2.9831,-3.0387,-3.0552,-3.0821,-3.1376,-3.1376,-3.1436,-3.1481,-3.1496,-3.1496,-3.1496,-3.1496,-3.1496,-3.1496,-3.1496,-3.1496,-3.1496,-3.1496,-3.1496,-3.1496,-3.1496,-3.1496,-3.1496,-3.1496,-3.1496,-3.1496,-3.1496,-3.1496,-3.1496,-3.1496,-3.1496,-3.1496,-3.1496,-3.1496,-3.1496,-3.1496,-3.1496,-3.1496,-3.1496,-3.1496,-3.1496,-3.1361,-3.1316,-3.1406,-3.1271,-3.0943,-3.0642,-3.0133,-2.9789,-2.9594,-2.9577,-2.9409,-3.3626,-3.3985,-3.421,-3.438,-3.4515,-3.4683,-3.467,-3.4563,-3.4581,-3.4147,-3.3478,-3.3199,-3.2796,-3.2198,-3.1513,-3.1051,-3.0821,-3.0925,-3.1043,-3.1087,-3.1087,-3.1043,-3.0925,-3.0895,-3.0866,-3.0762,-3.0528,-3.0046,-2.9477,-2.9405,-2.92,-2.8892,-2.8699,-2.8609,-2.8592,-2.8468,-2.8213,-2.7803,-2.7774,-2.762,-2.7332,-2.7258,-2.7191,-2.6994,-2.7166,-2.7136,-2.6911,-2.6896,-2.6896,-2.6871,-2.6896,-2.7001,-2.721,-2.724,-2.733,-2.76,-2.8004,-2.8233,-2.8293,-2.8846,-2.94,-2.9789,-3.0013,-3.0447,-3.0987,-3.1152,-3.1241,-3.1436,-3.1496,-3.1496,-3.1496,-3.1496,-3.1496,-3.1496,-3.1496,-3.1496,-3.1496,-3.1496,-3.1496,-3.1496,-3.1496,-3.1496,-3.1496,-3.1496,-3.1496,-3.1496,-3.1496,-3.1496,-3.1496,-3.1496,-3.1496,-3.1496,-3.1496,-3.1496,-3.1496,-3.1496,-3.1496,-3.1496,-3.1496,-3.1496,-3.1496,-3.1496,-3.1496,-3.1496,-3.1496,-3.1496,-3.1466,-3.1451,-3.1256,-3.1182,-3.0702,-3.0417,-3.0253,-3.0208,-2.9983,-3.3466,-3.3709,-3.3937,-3.4108,-3.4244,-3.4395,-3.4496,-3.4582,-3.4635,-3.4353,-3.386,-3.3693,-3.3339,-3.2759,-3.215,-3.1627,-3.1238,-3.1085,-3.0925,-3.094,-3.0955,-3.0836,-3.0672,-3.0642,-3.0552,-3.0462,-3.0431,-3.0186,-2.981,-2.9752,-2.9535,-2.9189,-2.9059,-2.8957,-2.8956,-2.8881,-2.8559,-2.8209,-2.8163,-2.8013,-2.7671,-2.7736,-2.7789,-2.7827,-2.7969,-2.7902,-2.7569,-2.7539,-2.7575,-2.7585,-2.7585,-2.7585,-2.76,-2.7809,-2.7929,-2.7979,-2.8547,-2.8906,-2.8996,-2.952,-3.0058,-3.0462,-3.0731,-3.1061,-3.1451,-3.1496,-3.1496,-3.1496,-3.1496,-3.1496,-3.1496,-3.1496,-3.1496,-3.1496,-3.1496,-3.1496,-3.1496,-3.1496,-3.1496,-3.1496,-3.1496,-3.1496,-3.1496,-3.1496,-3.1496,-3.1496,-3.1496,-3.1496,-3.1496,-3.1496,-3.1496,-3.1496,-3.1496,-3.1496,-3.1496,-3.1496,-3.1496,-3.1496,-3.1496,-3.1496,-3.1496,-3.1496,-3.1496,-3.1496,-3.1496,-3.1496,-3.1496,-3.1496,-3.1496,-3.1496,-3.1331,-3.1032,-3.0913,-3.0823,-3.0627,-3.3276,-3.3347,-3.3709,-3.3896,-3.3882,-3.3951,-3.3931,-3.3985,-3.4074,-3.4119,-3.3975,-3.3694,-3.3543,-3.3354,-3.2738,-3.237,-3.2014,-3.1201,-3.0786,-3.0714,-3.0641,-3.0507,-3.0326,-3.0326,-3.028,-3.0111,-3.0111,-3.0066,-2.9995,-3.0011,-2.9983,-2.9895,-2.9397,-2.9184,-2.9096,-2.8712,-2.8355,-2.8297,-2.8397,-2.8453,-2.8594,-2.8633,-2.8715,-2.8882,-2.8923,-2.8461,-2.7524,-2.7505,-2.7616,-2.7684,-2.7694,-2.763,-2.7854,-2.8289,-2.8607,-2.8697,-2.922,-2.9577,-2.9681,-3.0148,-3.0537,-3.0687,-3.1122,-3.1421,-3.1466,-3.1496,-3.1496,-3.1496,-3.1496,-3.1496,-3.1511,-3.157,-3.1555,-3.1496,-3.1496,-3.1511,-3.157,-3.1555,-3.154,-3.1645,-3.1735,-3.157,-3.1555,-3.172,-3.1795,-3.178,-3.1675,-3.163,-3.163,-3.1585,-3.1496,-3.1496,-3.1496,-3.1496,-3.1496,-3.1496,-3.1496,-3.1496,-3.1496,-3.1496,-3.1496,-3.1496,-3.1496,-3.1496,-3.1496,-3.1496,-3.1496,-3.1496,-3.1496,-3.1496,-3.1481,-3.1481,-3.1346,-3.1212,-3.1286,-3.2753,-3.2931,-3.3312,-3.3501,-3.3536,-3.3779,-3.3896,-3.3896,-3.3951,-3.3951,-3.3942,-3.3819,-3.3767,-3.3623,-3.3092,-3.2725,-3.2606,-3.1865,-3.1295,-3.0879,-3.0448,-3.0248,-3.0187,-3.0158,-3.0066,-2.9929,-2.9884,-2.9837,-2.9758,-2.9772,-2.9772,-2.9716,-2.9638,-2.96,-2.9558,-2.9522,-2.9326,-2.8883,-2.8869,-2.8698,-2.8383,-2.8383,-2.844,-2.8482,-2.8567,-2.8447,-2.8236,-2.8454,-2.8589,-2.8598,-2.8723,-2.883,-2.8996,-2.9187,-2.9292,-2.934,-2.9864,-3.0223,-3.0298,-3.0806,-3.1152,-3.1212,-3.1391,-3.1481,-3.1496,-3.1496,-3.1496,-3.1496,-3.1496,-3.1496,-3.157,-3.1944,-3.1989,-3.157,-3.1496,-3.1765,-3.2153,-3.2557,-3.2856,-3.2871,-3.2886,-3.2886,-3.2871,-3.2841,-3.2766,-3.2736,-3.2437,-3.2183,-3.2138,-3.1824,-3.1525,-3.1496,-3.1496,-3.1511,-3.1496,-3.1496,-3.1496,-3.1496,-3.1496,-3.1496,-3.1496,-3.1496,-3.1496,-3.1496,-3.1496,-3.1496,-3.1496,-3.1496,-3.1496,-3.1496,-3.1496,-3.1496,-3.1496,-3.1496,-3.1496,-3.2322,-3.2538,-3.2838,-3.3016,-3.3086,-3.3368,-3.3437,-3.3472,-3.3521,-3.3556,-3.3591,-3.366,-3.3695,-3.361,-3.322,-3.3016,-3.2877,-3.2277,-3.1749,-3.1255,-3.0654,-3.0344,-3.0194,-2.9857,-2.9665,-2.9543,-2.9557,-2.9495,-2.9429,-2.9415,-2.9415,-2.9446,-2.9495,-2.9529,-2.9543,-2.9651,-2.9501,-2.9146,-2.9122,-2.8969,-2.8702,-2.8706,-2.8809,-2.8838,-2.897,-2.9073,-2.916,-2.9377,-2.9359,-2.916,-2.9195,-2.9305,-2.9471,-2.9692,-2.9884,-3.0058,-3.0492,-3.0868,-3.0898,-3.1241,-3.1496,-3.1496,-3.1496,-3.1496,-3.1496,-3.1496,-3.1496,-3.1496,-3.1735,-3.1884,-3.1974,-3.2467,-3.2632,-3.2303,-3.2288,-3.2422,-3.2871,-3.323,-3.344,-3.3425,-3.344,-3.3499,-3.3499,-3.3499,-3.3499,-3.3425,-3.3155,-3.2886,-3.2751,-3.2303,-3.2034,-3.1765,-3.1615,-3.1585,-3.1511,-3.1496,-3.1496,-3.1496,-3.1496,-3.1496,-3.1496,-3.1496,-3.1496,-3.1496,-3.1496,-3.1496,-3.1496,-3.1496,-3.1496,-3.1496,-3.1496,-3.1496,-3.1496,-3.1496,-3.1496,-3.2,-3.2169,-3.2322,-3.2489,-3.2668,-3.2739,-3.2775,-3.2775,-3.2903,-3.3023,-3.3058,-3.3199,-3.3269,-3.3269,-3.3199,-3.3066,-3.2912,-3.2451,-3.2041,-3.1694,-3.1128,-3.0688,-3.0325,-2.965,-2.9255,-2.9099,-2.9067,-2.9022,-2.8972,-2.8972,-2.9067,-2.9004,-2.9035,-2.9067,-2.9067,-2.9081,-2.9117,-2.9034,-2.916,-2.9167,-2.9185,-2.9493,-2.9631,-2.9633,-2.9756,-2.9848,-2.985,-2.9883,-2.9752,-2.9282,-2.935,-2.945,-2.9531,-3.0002,-3.0413,-3.0513,-3.1123,-3.1347,-3.1437,-3.1466,-3.1496,-3.1496,-3.1496,-3.1496,-3.1496,-3.1496,-3.1555,-3.1675,-3.2093,-3.2482,-3.2617,-3.3155,-3.3499,-3.3619,-3.3499,-3.3499,-3.3529,-3.3634,-3.3844,-3.3784,-3.3649,-3.3649,-3.3814,-3.3799,-3.3784,-3.3754,-3.3694,-3.3559,-3.3425,-3.3066,-3.2677,-3.2407,-3.2183,-3.1974,-3.1974,-3.1869,-3.1809,-3.1496,-3.1496,-3.1496,-3.1496,-3.1496,-3.1496,-3.1496,-3.1496,-3.1496,-3.1496,-3.1496,-3.1496,-3.1496,-3.1496,-3.1496,-3.1496,-3.1496,-3.1496,-3.1582,-3.1743,-3.1963,-3.2169,-3.2336,-3.2417,-3.2561,-3.2704,-3.2725,-3.2739,-3.2761,-3.2846,-3.2846,-3.2881,-3.2846,-3.281,-3.272,-3.2595,-3.242,-3.2146,-3.1494,-3.0778,-3.0214,-2.9747,-2.925,-2.8838,-2.8687,-2.8476,-2.8373,-2.8438,-2.8406,-2.8373,-2.8509,-2.8527,-2.8527,-2.8683,-2.8716,-2.8748,-2.8881,-2.8917,-2.8962,-2.9149,-2.9275,-2.9306,-2.9418,-2.9498,-2.9529,-2.9761,-3.0029,-3.0221,-3.0309,-3.0441,-3.0527,-3.0733,-3.0836,-3.0938,-3.1159,-3.1351,-3.138,-3.1438,-3.1467,-3.1496,-3.1467,-3.1496,-3.1496,-3.1511,-3.1735,-3.2079,-3.2422,-3.2721,-3.323,-3.3829,-3.4352,-3.4816,-3.4455,-3.4218,-3.4292,-3.4681,-3.4981,-3.4981,-3.4921,-3.4876,-3.4846,-3.4861,-3.4829,-3.4786,-3.4485,-3.4186,-3.402,-3.3617,-3.3154,-3.3215,-3.3066,-3.2721,-3.2497,-3.2333,-3.2079,-3.1615,-3.1496,-3.1467,-3.1496,-3.1496,-3.1496,-3.1496,-3.1496,-3.1496,-3.1496,-3.1496,-3.1496,-3.1496,-3.1496,-3.1496,-3.1496,-3.1496,-3.1496,-3.1174,-3.1373,-3.1582,-3.178,-3.1963,-3.2009,-3.2119,-3.2228,-3.2228,-3.2214,-3.225,-3.2264,-3.2264,-3.2214,-3.2228,-3.2214,-3.2228,-3.2214,-3.2128,-3.2028,-3.1609,-3.0883,-3.0106,-2.9767,-2.9491,-2.9114,-2.8745,-2.8552,-2.8432,-2.8212,-2.8125,-2.8145,-2.8164,-2.8216,-2.8216,-2.8327,-2.8406,-2.8392,-2.8476,-2.8495,-2.8495,-2.867,-2.8766,-2.883,-2.8962,-2.9107,-2.923,-2.9435,-2.9853,-3.0251,-3.0447,-3.0627,-3.0866,-3.0895,-3.0955,-3.1073,-3.1161,-3.1205,-3.1205,-3.1263,-3.1307,-3.1336,-3.1336,-3.15,-3.1649,-3.1723,-3.199,-3.2615,-3.2927,-3.3299,-3.3685,-3.428,-3.48,-3.5035,-3.4889,-3.4731,-3.4874,-3.5235,-3.5459,-3.5489,-3.5489,-3.5504,-3.5489,-3.5439,-3.5407,-3.527,-3.4874,-3.4711,-3.4545,-3.4057,-3.3731,-3.3748,-3.3508,-3.3091,-3.2882,-3.2733,-3.2436,-3.1961,-3.1499,-3.147,-3.1527,-3.1512,-3.1482,-3.1482,-3.1467,-3.1496,-3.1467,-3.1467,-3.1496,-3.1496,-3.1496,-3.1496,-3.1467,-3.1438,-3.1438,-3.0761,-3.0949,-3.1147,-3.136,-3.1522,-3.1559,-3.1633,-3.1609,-3.1669,-3.1633,-3.1669,-3.1596,-3.1706,-3.1609,-3.1743,-3.1633,-3.1633,-3.1706,-3.1596,-3.1559,-3.1352,-3.0847,-3.0055,-2.9957,-2.9811,-2.9576,-2.9148,-2.8921,-2.872,-2.8391,-2.8199,-2.8192,-2.8186,-2.8107,-2.808,-2.8047,-2.8047,-2.7961,-2.8013,-2.8033,-2.8099,-2.8249,-2.8365,-2.8398,-2.8592,-2.8785,-2.8958,-2.9166,-2.9418,-2.9958,-3.0019,-3.0264,-3.0522,-3.0552,-3.0672,-3.0895,-3.0955,-3.0999,-3.1043,-3.1073,-3.1176,-3.125,-3.1279,-3.1456,-3.1972,-3.2179,-3.2445,-3.3111,-3.3669,-3.3908,-3.4174,-3.461,-3.4865,-3.4953,-3.489,-3.5052,-3.5326,-3.5439,-3.5424,-3.5439,-3.5424,-3.5439,-3.5392,-3.5279,-3.5148,-3.5148,-3.4967,-3.4875,-3.4738,-3.4475,-3.4238,-3.4162,-3.3805,-3.3345,-3.3227,-3.3153,-3.2755,-3.2328,-3.1737,-3.1516,-3.1575,-3.1574,-3.1498,-3.1424,-3.1366,-3.1366,-3.1395,-3.1424,-3.1409,-3.1424,-3.1336,-3.1395,-3.1424,-3.1366,-3.1322,-3.0482,-3.0508,-3.0723,-3.0949,-3.1149,-3.1286,-3.1447,-3.1572,-3.1559,-3.1535,-3.1572,-3.1572,-3.1572,-3.1559,-3.1522,-3.1609,-3.1535,-3.1498,-3.1461,-3.1099,-3.0962,-3.0707,-3.0292,-3.0259,-2.9992,-2.9654,-2.9196,-2.8999,-2.8885,-2.8672,-2.8492,-2.8476,-2.8429,-2.8273,-2.7967,-2.7937,-2.7614,-2.7385,-2.7542,-2.7741,-2.7821,-2.8053,-2.8205,-2.8225,-2.831,-2.8354,-2.8463,-2.8624,-2.8849,-2.9135,-2.9599,-3.004,-3.0142,-3.0189,-3.0293,-3.0457,-3.064,-3.0731,-3.0761,-3.1027,-3.1294,-3.169,-3.1748,-3.2074,-3.2694,-3.2735,-3.3075,-3.3608,-3.3935,-3.4147,-3.4497,-3.4784,-3.482,-3.4802,-3.4835,-3.4868,-3.5001,-3.5049,-3.5082,-3.5067,-3.5067,-3.5049,-3.5049,-3.5034,-3.4968,-3.4968,-3.4935,-3.4902,-3.4813,-3.4677,-3.4541,-3.4358,-3.4211,-3.375,-3.3513,-3.3381,-3.2954,-3.256,-3.2006,-3.1627,-3.1675,-3.1471,-3.1338,-3.1235,-3.1176,-3.1205,-3.1278,-3.122,-3.122,-3.119,-3.1205,-3.122,-3.1249,-3.122,-3.122,-3.0254,-3.0305,-3.0457,-3.0596,-3.071,-3.0823,-3.0949,-3.1024,-3.1024,-3.1024,-3.1024,-3.1061,-3.1024,-3.1024,-3.1024,-3.1037,-3.1024,-3.1024,-3.0949,-3.071,-3.0609,-3.052,-3.0419,-3.04,-3.021,-2.985,-2.9458,-2.9258,-2.9121,-2.8818,-2.8587,-2.8602,-2.8628,-2.8459,-2.8219,-2.818,-2.8075,-2.7895,-2.7919,-2.801,-2.8079,-2.8217,-2.847,-2.8573,-2.862,-2.8709,-2.904,-2.9107,-2.9261,-2.942,-2.9756,-2.9899,-2.9766,-2.9848,-3.0023,-3.0404,-3.0647,-3.0943,-3.118,-3.1372,-3.1625,-3.1915,-3.1959,-3.2321,-3.273,-3.2933,-3.3285,-3.375,-3.3968,-3.4099,-3.4404,-3.4414,-3.4448,-3.4462,-3.4448,-3.4433,-3.4481,-3.4702,-3.4902,-3.4902,-3.4935,-3.4935,-3.4902,-3.4802,-3.4783,-3.4798,-3.465,-3.4601,-3.4601,-3.4528,-3.4461,-3.4384,-3.4413,-3.422,-3.3873,-3.355,-3.3122,-3.2699,-3.2219,-3.1916,-3.1835,-3.1496,-3.111,-3.1069,-3.1057,-3.1117,-3.1146,-3.1087,-3.1058,-3.1117,-3.1117,-3.1117,-3.1087,-3.1073,-3.1102,-3.0049,-3.0075,-3.0267,-3.0368,-3.0368,-3.0394,-3.0444,-3.0444,-3.0406,-3.0482,-3.0406,-3.0406,-3.052,-3.0444,-3.0444,-3.0406,-3.0444,-3.0444,-3.0482,-3.0406,-3.0381,-3.0292,-3.0279,-3.0228,-3.0228,-3.0266,-2.9857,-2.9615,-2.9461,-2.9105,-2.8944,-2.8839,-2.8813,-2.8777,-2.8698,-2.8622,-2.8484,-2.8331,-2.8377,-2.8426,-2.8475,-2.8523,-2.8737,-2.8902,-2.896,-2.9065,-2.9298,-2.9477,-2.9661,-2.9894,-3.0089,-2.9909,-2.9614,-2.9694,-3.0034,-3.0771,-3.0895,-3.113,-3.1446,-3.1677,-3.1813,-3.1904,-3.198,-3.2279,-3.2787,-3.3034,-3.3297,-3.3616,-3.3879,-3.3914,-3.3896,-3.3985,-3.3985,-3.3965,-3.3931,-3.3896,-3.3985,-3.4414,-3.4616,-3.4668,-3.4582,-3.4549,-3.4582,-3.4515,-3.4563,-3.4578,-3.4414,-3.4312,-3.4312,-3.4312,-3.423,-3.421,-3.4196,-3.4196,-3.3946,-3.3777,-3.3351,-3.2997,-3.253,-3.2235,-3.2035,-3.1664,-3.1305,-3.1064,-3.1011,-3.0953,-3.0865,-3.0746,-3.0776,-3.0969,-3.0895,-3.0717,-3.0776,-3.0925,-3.0895,-2.9856,-2.9856,-3.0049,-3.0152,-3.019,-3.033,-3.0368,-3.0406,-3.0368,-3.0406,-3.0368,-3.0406,-3.0368,-3.0368,-3.0406,-3.0406,-3.033,-3.033,-3.0267,-3.019,-3.0152,-3.0075,-2.9972,-2.996,-2.9921,-2.9921,-2.9885,-2.9897,-2.9872,-2.9732,-2.9454,-2.9555,-2.9517,-2.9328,-2.8988,-2.8837,-2.8698,-2.8544,-2.8567,-2.8591,-2.8615,-2.8698,-2.8794,-2.8916,-2.8965,-2.8962,-2.9006,-2.9168,-2.9306,-2.9377,-2.9706,-2.9822,-2.9915,-3.0322,-3.0693,-3.0882,-3.1057,-3.1235,-3.1478,-3.1522,-3.1785,-3.2081,-3.2236,-3.2551,-3.3008,-3.3177,-3.3268,-3.3506,-3.3744,-3.3848,-3.3896,-3.3779,-3.3848,-3.3848,-3.3813,-3.3813,-3.3848,-3.3937,-3.404,-3.4025,-3.404,-3.4122,-3.4157,-3.4142,-3.4108,-3.4074,-3.4005,-3.3957,-3.3971,-3.3971,-3.3937,-3.3937,-3.3951,-3.3951,-3.3908,-3.3796,-3.3605,-3.3366,-3.297,-3.2585,-3.2316,-3.1924,-3.1589,-3.1303,-3.084,-3.0481,-3.0409,-3.0397,-3.0385,-3.0431,-3.0341,-3.0294,-3.0371,-3.0462,-3.0385,-2.9779,-2.9792,-2.9908,-2.9934,-2.996,-3.0049,-3.0075,-3.0088,-3.0075,-3.0075,-3.0075,-3.0075,-3.0088,-3.0075,-3.0075,-3.0088,-3.0113,-3.0075,-3.0049,-2.9946,-2.9946,-2.9908,-2.9792,-2.9779,-2.9779,-2.9818,-2.9895,-2.9921,-2.9921,-2.9844,-2.9779,-2.9767,-2.9779,-2.9628,-2.9453,-2.9377,-2.9214,-2.9001,-2.9026,-2.9101,-2.9076,-2.9163,-2.9238,-2.935,-2.9361,-2.9437,-2.9585,-2.9696,-2.9844,-2.9943,-3.0236,-3.0355,-3.0546,-3.0842,-3.1186,-3.115,-3.1241,-3.153,-3.182,-3.2041,-3.2257,-3.2437,-3.2458,-3.2618,-3.289,-3.296,-3.3023,-3.3108,-3.3192,-3.3262,-3.3262,-3.3297,-3.3262,-3.3262,-3.3297,-3.3297,-3.3297,-3.3297,-3.3297,-3.3368,-3.3556,-3.3709,-3.3744,-3.373,-3.3612,-3.3577,-3.3577,-3.3577,-3.3591,-3.3577,-3.3577,-3.3437,-3.3403,-3.3368,-3.3368,-3.3368,-3.3368,-3.3269,-3.3122,-3.2785,-3.2506,-3.2032,-3.1766,-3.1573,-3.0993,-3.0312,-3.0236,-3.0313,-3.0128,-2.9958,-3.005,-3.008,-3.0005,-2.9929,-2.9882,-2.9779,-2.9779,-2.9779,-2.9779,-2.9779,-2.9779,-2.9779,-2.9779,-2.9779,-2.983,-2.9779,-2.9779,-2.983,-2.9792,-2.983,-2.9779,-2.9779,-2.9818,-2.983,-2.983,-2.983,-2.9792,-2.9792,-2.9779,-2.9779,-2.9779,-2.9818,-2.9779,-2.9818,-2.9792,-2.9792,-2.9779,-2.9779,-2.9779,-2.9741,-2.9691,-2.9779,-2.9779,-2.9779,-2.9779,-2.9779,-2.9779,-2.9856,-3.0011,-3.0049,-3.005,-3.0088,-3.0151,-3.0189,-3.0316,-3.0581,-3.0809,-3.0936,-3.1174,-3.1296,-3.1272,-3.1414,-3.1886,-3.2212,-3.2384,-3.2266,-3.2285,-3.2439,-3.2453,-3.2489,-3.2467,-3.2538,-3.2525,-3.2596,-3.2618,-3.2632,-3.2596,-3.2596,-3.2596,-3.2596,-3.2596,-3.2632,-3.2632,-3.2668,-3.2824,-3.31,-3.3206,-3.3241,-3.3297,-3.3178,-3.3178,-3.3178,-3.3178,-3.3178,-3.3178,-3.3129,-3.2917,-3.281,-3.2704,-3.2668,-3.2704,-3.2704,-3.2676,-3.2648,-3.2475,-3.2307,-3.2085,-3.1865,-3.1639,-3.1048,-3.0474,-3.0378,-3.0231,-3.0062,-2.9971,-2.993,-2.9803,-2.9634,-2.9557,-2.9557,-2.9779,-2.9779,-2.9779,-2.9779,-2.9779,-2.9779,-2.9779,-2.9779,-2.9779,-2.9779,-2.9779,-2.9779,-2.9779,-2.9779,-2.9779,-2.9779,-2.9779,-2.9779,-2.9779,-2.9779,-2.9779,-2.9779,-2.9779,-2.9779,-2.9779,-2.9779,-2.9779,-2.9779,-2.9779,-2.9779,-2.9779,-2.9779,-2.9779,-2.9779,-2.9779,-2.9779,-2.9779,-2.9779,-2.9779,-2.9779,-2.9779,-2.9779,-2.983,-2.9818,-2.9856,-2.9856,-2.9972,-3.0049,-3.0152,-3.0152,-3.0343,-3.0482,-3.047,-3.0482,-3.0735,-3.1007,-3.1341,-3.1626,-3.1767,-3.1853,-3.1877,-3.1877,-3.1803,-3.173,-3.1877,-3.1986,-3.2059,-3.1986,-3.2119,-3.2164,-3.2164,-3.2178,-3.2164,-3.2164,-3.2178,-3.2164,-3.2164,-3.2214,-3.2178,-3.2178,-3.2458,-3.2588,-3.2682,-3.2753,-3.2775,-3.2775,-3.2775,-3.2739,-3.2739,-3.2668,-3.2646,-3.2431,-3.2322,-3.2214,-3.2214,-3.22,-3.2164,-3.2178,-3.2164,-3.2141,-3.206,-3.192,-3.1829,-3.1505,-3.1002,-3.0785,-3.0767,-3.0557,-3.0159,-2.9928,-2.991,-2.9604,-2.9208,-2.9208,-2.9287,-2.9779,-2.9779,-2.9779,-2.9779,-2.9779,-2.9779,-2.9779,-2.9779,-2.9779,-2.9779,-2.9779,-2.9779,-2.9779,-2.9779,-2.9779,-2.9779,-2.9779,-2.9779,-2.9779,-2.9779,-2.9779,-2.9779,-2.9779,-2.9779,-2.9779,-2.9779,-2.9779,-2.9779,-2.9779,-2.9779,-2.9779,-2.9779,-2.9779,-2.9779,-2.9779,-2.9779,-2.9779,-2.9779,-2.9779,-2.9779,-2.9779,-2.9779,-2.9779,-2.9779,-2.9779,-2.9779,-2.983,-2.9869,-2.9934,-2.9972,-3.0126,-3.0228,-3.0254,-3.033,-3.052,-3.0621,-3.081,-3.1123,-3.1535,-3.1572,-3.1522,-3.1572,-3.1572,-3.1633,-3.1609,-3.1633,-3.1706,-3.1743,-3.1767,-3.179,-3.179,-3.1803,-3.1803,-3.1803,-3.1753,-3.1753,-3.1753,-3.184,-3.1853,-3.1817,-3.178,-3.19,-3.1996,-3.2032,-3.2105,-3.2191,-3.2191,-3.2155,-3.2082,-3.2023,-3.2023,-3.195,-3.1877,-3.184,-3.1827,-3.1827,-3.1803,-3.1803,-3.179,-3.1767,-3.178,-3.1706,-3.1559,-3.1559,-3.1359,-3.1218,-3.1189,-3.0703,-3.0133,-2.999,-2.9881,-2.9602,-2.9334,-2.9214,-2.9182,-2.9779,-2.9779,-2.9779,-2.9779,-2.9779,-2.9779,-2.9779,-2.9779,-2.9779,-2.9779,-2.9779,-2.9779,-2.9779,-2.9779,-2.9779,-2.9779,-2.9779,-2.9779,-2.9779,-2.9779,-2.9779,-2.9779,-2.9779,-2.9779,-2.9779,-2.9779,-2.9779,-2.9779,-2.9779,-2.9779,-2.9779,-2.9779,-2.9779,-2.9779,-2.9779,-2.9779,-2.9779,-2.9779,-2.9779,-2.9779,-2.9779,-2.9779,-2.9779,-2.9779,-2.9779,-2.9779,-2.9779,-2.9779,-2.9792,-2.9869,-2.9946,-3.0049,-3.0037,-3.0126,-3.0267,-3.033,-3.0406,-3.0634,-3.1024,-3.1211,-3.1299,-3.1299,-3.1299,-3.1174,-3.1211,-3.1286,-3.1286,-3.1211,-3.1248,-3.1248,-3.1286,-3.1248,-3.1211,-3.1211,-3.1248,-3.1299,-3.1299,-3.1286,-3.1248,-3.1174,-3.1123,-3.1198,-3.1272,-3.1286,-3.136,-3.1559,-3.1609,-3.1559,-3.1559,-3.1522,-3.1545,-3.1545,-3.141,-3.136,-3.1323,-3.1323,-3.1373,-3.1373,-3.1373,-3.1323,-3.1261,-3.1224,-3.1112,-3.1224,-3.1373,-3.1154,-3.0811,-3.0472,-3.0164,-3.0161,-3.0096,-2.9806,-2.9591,-2.9382,-2.9193,-2.9779,-2.9779,-2.9779,-2.9779,-2.9779,-2.9779,-2.9779,-2.9779,-2.9779,-2.9779,-2.9779,-2.9779,-2.9779,-2.9779,-2.9779,-2.9779,-2.9779,-2.9779,-2.9779,-2.9779,-2.9779,-2.9779,-2.9779,-2.9779,-2.9779,-2.9779,-2.9779,-2.9779,-2.9779,-2.9779,-2.9779,-2.9779,-2.9779,-2.9779,-2.9779,-2.9779,-2.9779,-2.9779,-2.9779,-2.9779,-2.9779,-2.9779,-2.9779,-2.9779,-2.9779,-2.9779,-2.9779,-2.9779,-2.9779,-2.9792,-2.983,-2.9869,-2.9895,-2.9895,-3.0011,-3.0088,-3.0126,-3.0305,-3.0533,-3.0634,-3.0558,-3.0533,-3.0571,-3.0647,-3.0672,-3.0558,-3.052,-3.0634,-3.071,-3.0634,-3.0596,-3.052,-3.0672,-3.0723,-3.0798,-3.0798,-3.0798,-3.0723,-3.0634,-3.052,-3.0596,-3.0748,-3.0748,-3.0836,-3.0949,-3.1174,-3.1248,-3.1211,-3.1248,-3.1248,-3.1235,-3.1198,-3.0962,-3.0849,-3.0761,-3.0798,-3.0836,-3.0836,-3.0836,-3.071,-3.0634,-3.0609,-3.0761,-3.0723,-3.0798,-3.0634,-3.0545,-3.0411,-3.0358,-3.0432,-3.0344,-2.9967,-2.9641,-2.9394,-2.9333,-2.9779,-2.9779,-2.9779,-2.9779,-2.9779,-2.9779,-2.9779,-2.9779,-2.9779,-2.9779,-2.9779,-2.9779,-2.9779,-2.9779,-2.9779,-2.9779,-2.9779,-2.9779,-2.9779,-2.9779,-2.9779,-2.9779,-2.9779,-2.9779,-2.9779,-2.9779,-2.9779,-2.9779,-2.9779,-2.9779,-2.9779,-2.9779,-2.9779,-2.9779,-2.9779,-2.9779,-2.9779,-2.9779,-2.9779,-2.9779,-2.9779,-2.9779,-2.9779,-2.9779,-2.9779,-2.9779,-2.9779,-2.9779,-2.9779,-2.9779,-2.9779,-2.9779,-2.9779,-2.9779,-2.9818,-2.9934,-2.9934,-2.9972,-3.0126,-3.0267,-3.0406,-3.0406,-3.0406,-3.0368,-3.033,-3.0368,-3.0406,-3.0406,-3.0368,-3.033,-3.0394,-3.0406,-3.0444,-3.0406,-3.0368,-3.0368,-3.033,-3.0305,-3.033,-3.033,-3.0368,-3.0482,-3.0482,-3.0444,-3.0596,-3.0748,-3.0823,-3.0898,-3.0936,-3.0949,-3.0936,-3.0861,-3.0647,-3.0571,-3.0495,-3.0457,-3.0368,-3.0368,-3.033,-3.033,-3.0305,-3.0406,-3.052,-3.0406,-3.0368,-3.0368,-3.0418,-3.0478,-3.0483,-3.0424,-3.0309,-3.0084,-2.9746,-2.9454,-2.9402,-2.9779,-2.9779,-2.9779,-2.9779,-2.9779,-2.9779,-2.9779,-2.9779,-2.9779,-2.9779,-2.9779,-2.9779,-2.9779,-2.9779,-2.9779,-2.9779,-2.9779,-2.9779,-2.9779,-2.9779,-2.9779,-2.9779,-2.9779,-2.9779,-2.9779,-2.9779,-2.9779,-2.9779,-2.9779,-2.9779,-2.9779,-2.9779,-2.9779,-2.9779,-2.9779,-2.9779,-2.9779,-2.9779,-2.9779,-2.9779,-2.9779,-2.9779,-2.9779,-2.9779,-2.9779,-2.9779,-2.9779,-2.9779,-2.9779,-2.9779,-2.9779,-2.9779,-2.9779,-2.9779,-2.9779,-2.9779,-2.9779,-2.9779,-2.9895,-3.0011,-3.0228,-3.0152,-3.019,-3.019,-3.0228,-3.0228,-3.0152,-3.019,-3.019,-3.0216,-3.0216,-3.0152,-3.0152,-3.0126,-3.0126,-3.0126,-3.0126,-3.0126,-3.0113,-3.0139,-3.019,-3.019,-3.0152,-3.0152,-3.033,-3.0482,-3.0596,-3.0634,-3.0596,-3.0596,-3.0558,-3.052,-3.0419,-3.0343,-3.0305,-3.0228,-3.0126,-3.0088,-3.0088,-3.0152,-3.0152,-3.0267,-3.0228,-3.0113,-3.0126,-3.019,-3.0216,-3.0177,-3.0279,-3.038,-3.0252,-3.0135,-3.0108,-2.9835,-2.9619,-2.9779,-2.9779,-2.9779,-2.9779,-2.9779,-2.9779,-2.9779,-2.9779,-2.9779,-2.9779,-2.9779,-2.9779,-2.9779,-2.9779,-2.9779,-2.9779,-2.9779,-2.9779,-2.9779,-2.9779,-2.9779,-2.9779,-2.9779,-2.9779,-2.9779,-2.9779,-2.9779,-2.9779,-2.9779,-2.9779,-2.9779,-2.9779,-2.9779,-2.9779,-2.9779,-2.9779,-2.9779,-2.9779,-2.9779,-2.9779,-2.9779,-2.9779,-2.9779,-2.9779,-2.9779,-2.9779,-2.9779,-2.9779,-2.9779,-2.9779,-2.9779,-2.9779,-2.9779,-2.9779,-2.9779,-2.9779,-2.9779,-2.9779,-2.9779,-2.983,-2.9856,-2.9895,-2.9934,-2.9934,-2.9856,-2.9818,-2.9895,-2.9972,-2.9895,-2.9856,-2.983,-2.983,-2.9869,-2.9908,-2.9934,-2.9934,-2.9934,-2.9934,-2.9972,-2.9998,-2.9895,-2.9818,-2.9818,-2.9856,-3.0075,-3.0216,-3.0368,-3.0368,-3.033,-3.0292,-3.0228,-3.0228,-3.0152,-3.0113,-3.0088,-2.9946,-2.9869,-2.983,-2.9869,-2.9934,-2.9934,-2.9972,-2.9934,-2.9869,-2.9908,-3.0011,-2.9934,-2.9805,-2.9998,-3.019,-3.0292,-3.0241,-3.0291,-3.0177,-2.9871,-2.9779,-2.9779,-2.9779,-2.9779,-2.9779,-2.9779,-2.9779,-2.9779,-2.9779,-2.9779,-2.9779,-2.9779,-2.9779,-2.9779,-2.9779,-2.9779,-2.9779,-2.9779,-2.9779,-2.9779,-2.9779,-2.9779,-2.9779,-2.9779,-2.9779,-2.9779,-2.9779,-2.9779,-2.9779,-2.9779,-2.9779,-2.9779,-2.9779,-2.9779,-2.9779,-2.9779,-2.9779,-2.9779,-2.9779,-2.9779,-2.9779,-2.9779,-2.9779,-2.9779,-2.9779,-2.9779,-2.9779,-2.9779,-2.9779,-2.9779,-2.9779,-2.9779,-2.9779,-2.9779,-2.9779,-2.9779,-2.9779,-2.9779,-2.9779,-2.9792,-2.9779,-2.9779,-2.9779,-2.9779,-2.9779,-2.9779,-2.9779,-2.9779,-2.9779,-2.9779,-2.9792,-2.9792,-2.9818,-2.983,-2.9818,-2.9818,-2.9818,-2.9818,-2.9818,-2.9856,-2.9779,-2.9779,-2.9779,-2.9779,-2.9934,-2.996,-3.0075,-3.0075,-2.9998,-2.9972,-2.9934,-2.9934,-2.9908,-2.9908,-2.9869,-2.983,-2.9792,-2.983,-2.983,-2.9818,-2.9818,-2.9779,-2.9779,-2.983,-2.983,-2.9779,-2.9779,-2.9779,-2.983,-2.9972,-3.0088,-3.0075,-3.005,-2.996,-2.9871,-2.9779,-2.9779,-2.9779,-2.9779,-2.9779,-2.9779,-2.9779,-2.9779,-2.9779,-2.9779,-2.9779,-2.9779,-2.9779,-2.9779,-2.9779,-2.9779,-2.9779,-2.9779,-2.9779,-2.9779,-2.9779,-2.9779,-2.9779,-2.9779,-2.9779,-2.9779,-2.9779,-2.9779,-2.9779,-2.9779,-2.9779,-2.9779,-2.9779,-2.9779,-2.9779,-2.9779,-2.9779,-2.9779,-2.9779,-2.9779,-2.9779,-2.9779,-2.9779,-2.9779,-2.9779,-2.9779,-2.9779,-2.9779,-2.9779,-2.9779,-2.9779,-2.9779,-2.9779,-2.9779,-2.9779,-2.9779,-2.9779,-2.9779,-2.9779,-2.9779,-2.9779,-2.9779,-2.9779,-2.9779,-2.9779,-2.9779,-2.9779,-2.9779,-2.9779,-2.9779,-2.9779,-2.9779,-2.9779,-2.9779,-2.9779,-2.9779,-2.9779,-2.9779,-2.9779,-2.9779,-2.9779,-2.9779,-2.9779,-2.9779,-2.9818,-2.9818,-2.9818,-2.9779,-2.9779,-2.9779,-2.9779,-2.9792,-2.9792,-2.983,-2.983,-2.983,-2.9779,-2.9779,-2.9779,-2.9779,-2.9779,-2.9779,-2.9779,-2.9779,-2.9779,-2.9779,-2.9779,-2.9792,-2.983,-2.983,-2.9856,-2.9856,-2.9779,-2.9779,-2.9779,-2.9779,-2.9779,-2.9779,-2.9779,-2.9779,-2.9779,-2.9779,-2.9779,-2.9779,-2.9779,-2.9779,-2.9779,-2.9779,-2.9779,-2.9779,-2.9779,-2.9779,-2.9779,-2.9779,-2.9779,-2.9779,-2.9779,-2.9779,-2.9779,-2.9779,-2.9779,-2.9779,-2.9779,-2.9779,-2.9779,-2.9779,-2.9779,-2.9779,-2.9779,-2.9779,-2.9779,-2.9779,-2.9779,-2.9779,-2.9779,-2.9779,-2.9779,-2.9779,-2.9779,-2.9779,-2.9779,-2.9779,-2.9779,-2.9779,-2.9779,-2.9779,-2.9779,-2.9779,-2.9779,-2.9779,-2.9779,-2.9779,-2.9779,-2.9779,-2.9779,-2.9779,-2.9779,-2.9779,-2.9779,-2.9779,-2.9779,-2.9779,-2.9779,-2.9779,-2.9779,-2.9779,-2.9779,-2.9779,-2.9779,-2.9779,-2.9779,-2.9779,-2.9779,-2.9779,-2.9779,-2.9779,-2.9779,-2.9779,-2.9779,-2.9779,-2.9779,-2.9779,-2.9779,-2.9779,-2.9779,-2.9779,-2.9779,-2.9792,-2.9779,-2.9779,-2.9779,-2.9779,-2.9779,-2.9779,-2.9779,-2.9779,-2.9779,-2.9779,-2.9779,-2.9779,-2.9779,-2.9779,-2.9779,-2.9779,-2.9779,-2.9779,-2.9779,-2.9779,-2.9779,-2.9779,-2.9779,-2.9779,-2.9779,-2.9779,-2.9779,-2.9779,-2.9779,-2.9779,-2.9779,-2.9779,-2.9779,-2.9779,-2.9779,-2.9779,-2.9779,-2.9779,-2.9779,-2.9779,-2.9779,-2.9779,-2.9779,-2.9779,-2.9779,-2.9779,-2.9779,-2.9779,-2.9779,-2.9779,-2.9779,-2.9779,-2.9779,-2.9779,-2.9779,-2.9779,-2.9779,-2.9779,-2.9779,-2.9779,-2.9779,-2.9779,-2.9779,-2.9779,-2.9779,-2.9779,-2.9779,-2.9779,-2.9779,-2.9779,-2.9779,-2.9779,-2.9779,-2.9779,-2.9779,-2.9779,-2.9779,-2.9779,-2.9779,-2.9779,-2.9779,-2.9779,-2.9779,-2.9779,-2.9779,-2.9779,-2.9779,-2.9779,-2.9779,-2.9779,-2.9779,-2.9779,-2.9779,-2.9779,-2.9779,-2.9779,-2.9779,-2.9779,-2.9779,-2.9779,-2.9779,-2.9779,-2.9779,-2.9779,-2.9779,-2.9779,-2.9779,-2.9779,-2.9779,-2.9779,-2.9779,-2.9779,-2.9779,-2.9779,-2.9779,-2.9779,-2.9779,-2.9779,-2.9779,-2.9779,-2.9779,-2.9779,-2.9779,-2.9779,-2.9779,-2.9779,-2.9779,-2.9779,-2.9779,-2.9779,-2.9779,-2.9779,-2.9779,-2.9779,-2.9779,-2.9779,-2.9779,-2.9779,-2.9779,-2.9779,-2.9779,-2.9779,-2.9779,-2.9779,-2.9779,-2.9779,-2.9779,-2.9779,-2.9779,-2.9779,-2.9779,-2.9779,-2.9779,-2.9779,-2.9779,-2.9779,-2.9779,-2.9779,-2.9779,-2.9779,-2.9779,-2.9779,-2.9779,-2.9779,-2.9779,-2.9779,-2.9779,-2.9779,-2.9779,-2.9779,-2.9779,-2.9779,-2.9779,-2.9779,-2.9779,-2.9779,-2.9779,-2.9779,-2.9779,-2.9779,-2.9779,-2.9779,-2.9779,-2.9779,-2.9779,-2.9779,-2.9779,-2.9779,-2.9779,-2.9779,-2.9779,-2.9779,-2.9779,-2.9779,-2.9779,-2.9779,-2.9779,-2.9779,-2.9779,-2.9779,-2.9779,-2.9779,-2.9779,-2.9779,-2.9779,-2.9779,-2.9779,-2.9779,-2.9779,-2.9779,-2.9779,-2.9779,-2.9779,-2.9779,-2.9779,-2.9779,-2.9779,-2.9779,-2.9779,-2.9779,-2.9779,-2.9779,-2.9779,-2.9779,-2.9779,-2.9779,-2.9779,-2.9779,-2.9779,-2.9779,-2.9779,-2.9779,-2.9779,-2.9779,-2.9779,-2.9779,-2.9779,-2.9779,-2.9779,-2.9779,-2.9779,-2.9779,-2.9779,-2.9779,-2.9779,-2.9779,-2.9779,-2.9779,-2.9779,-2.9779,-2.9779,-2.9779,-2.9779,-2.9779,-2.9779,-2.9779,-2.9779,-2.9779,-2.9779,-2.9779,-2.9779,-2.9779,-2.9779,-2.9779,-2.9779,-2.9779,-2.9779,-2.9779,-2.9779,-2.9779,-2.9779,-2.9779,-2.9779,-2.9779,-2.9779,-2.9779,-2.9779,-2.9779,-2.9779,-2.9779,-2.9779,-2.9779,-2.9779,-2.9779,-2.9779,-2.9779,-2.9779,-2.9779,-2.9779,-2.9779,-2.9779,-2.9779,-2.9779,-2.9779,-2.9779,-2.9779,-2.9779,-2.9779,-2.9779,-2.9779,-2.9779,-2.9779,-2.9779,-2.9779,-2.9779,-2.9779,-2.9779,-2.9779,-2.9779,-2.9779,-2.9779,-2.9779,-2.9779,-2.9779,-2.9779,-2.9779,-2.9779,-2.9779,-2.9779,-2.9779,-2.9779,-2.9779,-2.9779,-2.9779,-2.9779,-2.9779,-2.9779,-2.9779,-2.9779,-2.9779,-2.9779,-2.9779,-2.9779,-2.9779,-2.9779,-2.9779,-2.9779,-2.9779,-2.9779,-2.9779,-2.9779,-2.9779,-2.9779,-2.9779,-2.9779,-2.9779,-2.9779,-2.9779,-2.9779,-2.9779,-2.9779,-2.9779,-2.9779,-2.9779,-2.9779,-2.9779,-2.9779,-2.9779,-2.9779,-2.9779,-2.9779,-2.9779,-2.9779,-2.9779,-2.9779,-2.9779,-2.9779,-2.9779,-2.9779,-2.9779,-2.9779,-2.9779,-2.9779,-2.9779,-2.9779,-2.9779,-2.9779,-2.9779,-2.9779,-2.9779,-2.9779,-2.9779,-2.9779,-2.9779,-2.9779,-2.9779,-2.9779,-2.9779,-2.9779,-2.9779,-2.9779,-2.9779,-2.9779,-2.9779,-2.9779,-2.9779,-2.9779,-2.9779,-2.9779,-2.9779,-2.9779,-2.9779,-2.9779,-2.9779,-2.9779,-2.9779,-2.9779,-2.9779,-2.9779,-2.9779,-2.9779,-2.9779,-2.9779,-2.9779,-2.9779,-2.9779,-2.9779,-2.9779,-2.9779,-2.9779,-2.9779,-2.9779,-2.9779,-2.9779,-2.9779,-2.9779,-2.9779,-2.9779,-2.9779,-2.9779,-2.9779,-2.9779,-2.9779,-2.9779,-2.9779,-2.9779,-2.9779,-2.9779,-2.9779,-2.9779,-2.9779,-2.9779,-2.9779,-2.9779,-2.9779,-2.9779,-2.9779,-2.9779,-2.9779,-2.9779,-2.9779,-2.9779,-2.9779,-2.9779,-2.9779,-2.9779,-2.9779,-2.9779,-2.9779,-2.9779,-2.9779,-2.9779,-2.9779,-2.9779,-2.9779,-2.9779,-2.9779,-2.9779,-2.9779,-2.9779,-2.9779,-2.9779,-2.9779,-2.9779,-2.9779,-2.9779,-2.9779,-2.9779,-2.9779,-2.974,-2.974,-2.974,-2.9779,-2.9779,-2.9779,-2.9779,-2.9779,-2.9779,-2.9779,-2.9779,-2.9779,-2.9779,-2.9779,-2.9779,-2.9792,-2.9792,-2.9779,-2.9779,-2.9779,-2.9779,-2.9779,-2.9779,-2.9779,-2.9779,-2.9779,-2.9779,-2.9779,-2.9779,-2.9779,-2.9779,-2.9779,-2.9779,-2.9779,-2.9779,-2.9779,-2.9779,-2.9779,-2.9779,-2.9779,-2.9779,-2.9779,-2.9779,-2.9779,-2.9779,-2.9779,-2.9779,-2.9779,-2.9779,-2.9779,-2.9779,-2.9779,-2.9779,-2.9779,-2.9779,-2.9779,-2.9779,-2.9779,-2.9779,-2.9779,-2.9779,-2.9779,-2.9779,-2.9779,-2.9779,-2.9779,-2.9779,-2.9779,-2.9779,-2.9779,-2.9779,-2.9779,-2.9779,-2.9779,-2.9779,-2.9779,-2.9779,-2.9779,-2.9779,-2.9779,-2.9779,-2.9779,-2.9779,-2.9779,-2.9779,-2.9779,-2.9779,-2.9779,-2.9779,-2.9779,-2.9779,-2.9779,-2.9779,-2.9779,-2.9779,-2.9779,-2.9779,-2.9779,-2.9779,-2.9779,-2.9779,-2.9779,-2.9779,-2.9779,-2.9779,-2.9779,-2.9779,-2.9779,-2.9779,-2.9779,-2.9779,-2.9779,-2.9779,-2.9779,-2.9753,-2.9702,-2.9611,-2.9573,-2.9779,-2.9779,-2.9779,-2.9779,-2.9779,-2.9779,-2.9779,-2.9779,-2.9779,-2.9779,-2.9829,-2.9905,-2.988,-2.9804,-2.9779,-2.9779,-2.9779,-2.9779,-2.9779,-2.9779,-2.9779,-2.9779,-2.9779,-2.9779,-2.9779,-2.9779,-2.9779,-2.9779,-2.9779,-2.9779,-2.9779,-2.9779,-2.9779,-2.9779,-2.9792,-2.9779,-2.9779,-2.9779,-2.9779,-2.9779,-2.9779,-2.9779,-2.9779,-2.9779,-2.9779,-2.9779,-2.9779,-2.9779,-2.9779,-2.9779,-2.9779,-2.9779,-2.9779,-2.9779,-2.9779,-2.9779,-2.9779,-2.9779,-2.9779,-2.9779,-2.9779,-2.9779,-2.9779,-2.9779,-2.9779,-2.9779,-2.9779,-2.9779,-2.9779,-2.9779,-2.9779,-2.9779,-2.9779,-2.9779,-2.9779,-2.9779,-2.9779,-2.9779,-2.9779,-2.9779,-2.9779,-2.9779,-2.9779,-2.9779,-2.9779,-2.9779,-2.9779,-2.9779,-2.9779,-2.9779,-2.9779,-2.9779,-2.9779,-2.9779,-2.9779,-2.9779,-2.9779,-2.9779,-2.9779,-2.9779,-2.9779,-2.9779,-2.9779,-2.9779,-2.9779,-2.9779,-2.9779,-2.9779,-2.9779,-2.974,-2.965,-2.9611,-2.9456,-2.9365,-2.9326,-2.9779,-2.9779,-2.9779,-2.9779,-2.9779,-2.9779,-2.9779,-2.9779,-2.9792,-2.9779,-2.9942,-3.0244,-3.0256,-2.9804,-2.9779,-2.9854,-3.0043,-2.9967,-2.9829,-2.9779,-2.9892,-2.9842,-2.9779,-2.9779,-2.9779,-2.9779,-2.9779,-2.9779,-2.9779,-2.9779,-2.9779,-2.9779,-2.9779,-2.9792,-2.9829,-2.9842,-2.9905,-2.9955,-2.998,-2.9993,-2.9905,-2.988,-2.9792,-2.9779,-2.9779,-2.9779,-2.9779,-2.9779,-2.9779,-2.9779,-2.9779,-2.9779,-2.9779,-2.9779,-2.9779,-2.9779,-2.9779,-2.9779,-2.9779,-2.9779,-2.9779,-2.9779,-2.9779,-2.9779,-2.9779,-2.9779,-2.9779,-2.9779,-2.9779,-2.9779,-2.9779,-2.9779,-2.9779,-2.9779,-2.9779,-2.9779,-2.9779,-2.9779,-2.9779,-2.9779,-2.9779,-2.9779,-2.9779,-2.9779,-2.9779,-2.9779,-2.9779,-2.9779,-2.9779,-2.9779,-2.9779,-2.9779,-2.9779,-2.9779,-2.9779,-2.9779,-2.9779,-2.9779,-2.9779,-2.9779,-2.9779,-2.9779,-2.9779,-2.9779,-2.9779,-2.9779,-2.9779,-2.9689,-2.9611,-2.9534,-2.947,-2.938,-2.9236,-2.9118,-2.9]},{"header":{"parameterUnit":"m.s-1","parameterCategory":1,"la1":31.0,"la2":29.5877,"lo1":-88.7671,"lo2":-86.6584,"dy":0.0162,"dx":0.0185,"nx":115,"ny":88,"refTime":"2024-08-27T06:00:00:Z","depth":0,"parameterNumber":3,"parameterNumberName":"V-component_of_WINDS"},"data":[0.0,0.0,0.0,0.0,0.0,0.0,0.0,0.0,0.0,0.0,0.0,0.0,0.0,0.0,0.0,0.0,0.0,0.0,0.0,0.0,0.0,0.0,0.0,0.0,0.0,0.0,0.0,0.0,0.0,0.0,0.0,0.0,0.0,0.0,0.0,0.0,0.0,0.0,0.0,0.0,0.0,0.0,0.0,0.0,0.0,0.0,0.0,0.0,0.0,0.0,0.0,0.0,0.0,0.0,0.0,0.0,0.0,0.0,0.0,0.0,0.0,0.0,0.0,0.0,0.0,0.0,0.0,0.0,0.0,0.0,0.0,0.0,0.0,0.0,0.0,0.0,0.0,0.0,0.0,0.0,0.0,0.0,0.0,0.0,0.0,0.0,0.0,0.0,0.0,0.0,0.0,0.0,0.0,0.0,0.0,0.0,0.0,0.0,0.0,0.0,0.0,0.0,0.0,0.0,0.0,0.0,0.0,0.0,0.0,0.0,0.0,0.0,0.0,0.0,0.0,0.0,0.0,0.0,0.0,0.0,0.0,0.0,0.0,0.0,0.0,0.0,0.0,0.0,0.0,0.0,0.0,0.0,0.0,0.0,0.0,0.0,0.0,0.0,0.0,0.0,0.0,0.0,0.0,0.0,0.0,0.0,0.0,0.0,0.0,0.0,0.0,0.0,0.0,0.0,0.0,0.0,0.0,0.0,0.0,0.0,0.0,0.0,0.0,0.0,0.0,0.0,0.0,0.0,0.0,0.0,0.0,0.0,0.0,0.0,0.0,0.0,0.0,0.0,0.0,0.0,0.0,0.0,0.0,0.0,0.0,0.0,0.0,0.0,0.0,0.0,0.0,0.0,0.0,0.0,0.0,0.0,0.0,0.0,0.0,0.0,0.0,0.0,0.0,0.0,0.0,0.0,0.0,0.0,0.0,0.0,0.0,0.0,0.0,0.0,0.0,0.0,0.0,0.0,0.0,0.0,0.0,0.0,0.0,0.0,0.0,0.0,0.0,0.0,0.0,0.0,0.0,0.0,0.0,0.0,0.0,0.0,0.0,0.0,0.0,0.0,0.0,0.0,0.0,0.0,0.0,0.0,0.0,0.0,0.0,0.0,0.0,0.0,0.0,0.0,0.0,0.0,0.0,0.0,0.0,0.0,0.0,0.0,0.0,0.0,0.0,0.0,0.0,0.0,0.0,0.0,0.0,0.0,0.0,0.0,0.0,0.0,0.0,0.0,0.0,0.0,0.0,0.0,0.0,0.0,0.0,0.0,0.0,0.0,0.0,0.0,0.0,0.0,0.0,0.0,0.0,0.0,0.0,0.0,0.0,0.0,0.0,0.0,0.0,0.0,0.0,0.0,0.0,0.0,0.0,0.0,0.0,0.0,0.0,0.0,0.0,0.0,0.0,0.0,0.0,0.0,0.0,0.0,0.0,0.0,0.0,0.0,0.0,0.0,0.0,0.0,0.0,0.0,0.0,0.0,0.0,0.0,0.0,0.0,0.0,0.0,0.0,0.0,0.0,0.0,0.0,0.0,0.0,0.0,0.0,0.0,0.0,0.0,0.0,0.0,0.0,0.0,0.0,0.0,0.0,0.0,0.0,0.0,0.0,0.0,0.0,0.0,0.0,0.0,0.0,0.0,0.0,0.0,0.0,0.0,0.0,0.0,0.0,0.0,0.0,0.0,0.0,0.0,0.0,0.0,0.0,0.0,0.0,0.0,0.0,0.0,0.0,0.0,0.0,0.0,0.0,0.0,0.0,0.0,0.0,0.0,0.0,0.0,0.0,0.0,0.0,0.0,0.0,0.0,0.0,0.0,0.0,0.0,0.0,0.0,0.0,0.0,0.0,0.0,0.0,0.0,0.0,0.0,0.0,0.0,0.0,0.0,0.0,0.0,0.0,0.0,0.0,0.0,0.0,0.0,0.0,0.0,0.0,0.0,0.0,0.0,0.0,0.0,0.0,0.0,0.0,0.0,0.0,0.0,0.0,0.0,0.0,0.0,0.0,0.0,0.0,0.0,0.0,0.0,0.0,0.0,0.0,0.0,0.0,0.0,0.0,0.0,0.0,0.0,0.0,0.0,0.0,0.0,0.0,0.0,0.0,0.0,0.0,0.0,0.0,0.0,0.0,0.0,0.0,0.0,0.0,0.0,0.0,0.0,0.0,0.0,0.0,0.0,0.0,0.0,0.0,0.0,0.0,0.0,0.0,0.0,0.0,0.0,0.0,0.0,0.0,0.0,0.0,0.0,0.0,0.0,0.0,0.0,0.0,0.0,0.0,0.0,0.0,0.0,0.0,0.0,0.0,0.0,0.0,0.0,0.0,0.0,0.0,0.0,0.0,0.0,0.0,0.0,0.0,0.0,0.0,0.0,0.0,0.0,0.0,0.0,0.0,0.0,0.0,0.0,0.0,0.0,0.0,0.0,0.0,0.0,0.0,0.0,0.0,0.0,0.0,0.0,0.0,0.0,0.0,0.0,0.0,0.0,0.0,0.0,0.0,0.0,0.0,0.0,0.0,0.0,0.0,0.0,0.0,0.0,0.0,0.0,0.0,0.0,0.0,0.0,0.0,0.0,0.0,0.0,0.0,0.0,0.0,0.0,0.0,0.0,0.0,0.0,0.0,0.0,0.0,0.0,0.0,0.0,0.0,0.0,0.0,0.0,0.0,0.0,0.0,0.0,0.0,0.0,0.0,0.0,0.0,0.0,0.0,0.0,0.0,0.0,0.0,0.0,0.0,0.0,0.0,0.0,0.0,0.0,0.0,0.0,0.0,0.0,0.0,0.0,0.0,0.0,0.0,0.0,0.0,0.0,0.0,0.0,0.0,0.0,0.0,0.0,0.0,0.0,0.0,0.0,0.0,0.0,0.0,0.0,0.0,0.0,0.0,0.0,0.0,0.0,0.0,0.0,0.0,0.0,0.0,0.0,0.0,0.0,0.0,0.0,0.0,0.0,0.0,0.0,0.0,0.0,0.0,0.0,0.0,0.0,0.0,0.0,0.0,0.0,0.0,0.0,0.0,0.0,0.0,0.0,0.0,0.0,0.0,0.0,0.0,0.0,0.0,0.0,0.0,0.0,0.0,0.0,0.0,0.0,0.0,0.0,0.0,0.0,0.0,0.0,0.0,0.0,0.0,0.0,0.0,0.0,0.0,0.0,0.0,0.0,0.0,0.0,0.0,0.0,0.0,0.0,0.0,0.0,0.0,0.0,0.0,0.0,0.0,0.0,0.0,0.0,0.0,0.0,0.0,0.0,0.0,0.0,0.0,0.0,0.0,0.0,0.0,0.0,0.0,0.0,0.0,0.0,0.0,0.0,0.0,0.0,0.0,0.0,0.0,0.0,0.0,0.0,0.0,0.0,0.0,0.0,0.0,0.0,0.0,0.0,0.0,0.0,0.0,0.0,0.0,0.0,0.0,0.0,0.0,0.0,0.0,0.0,0.0,0.0,0.0,0.0,0.0,0.0,0.0,0.0,0.0,0.0,0.0,0.0,0.0,0.0,0.0,0.0,0.0,0.0,0.0,0.0,0.0,0.0,0.0,0.0,0.0,0.0,0.0,0.0,0.0,0.0,0.0,0.0,0.0,0.0,0.0,0.0,0.0,0.0,0.0,0.0,0.0,0.0,0.0,0.0,0.0,0.0,0.0,0.0,0.0,0.0,0.0,0.0,0.0,0.0,0.0,0.0,0.0,0.0,0.0,0.0,0.0,0.0,0.0,0.0,0.0,0.0,0.0,0.0,0.0,0.0,0.0,0.0,0.0,0.0,0.0,0.0,0.0,0.0,0.0,0.0,0.0,0.0,0.0,0.0,0.0,0.0,0.0,0.0,0.0,0.0,0.0,0.0,0.0,0.0,0.0,0.0,0.0,0.0,0.0,0.0,0.0,0.0,0.0,0.0,0.0,0.0,0.0,0.0,0.0,0.0,0.0,0.0,0.0,0.0,0.0,0.0,0.0,0.0,0.0,0.0,0.0,0.0,0.0,0.0,0.0,0.0,0.0,0.0,0.0,0.0,0.0,0.0,0.0,0.0,0.0,0.0,0.0,0.0,0.0,0.0,0.0,0.0,0.0,0.0,0.0,0.0,0.0,0.0,0.0,0.0,0.0,0.0,0.0,0.0,0.0,0.0,0.0,0.0,0.0,0.0,0.0,0.0,0.0,0.0,0.0,0.0,0.0,0.0,0.0,0.0,0.0,0.0,0.0,0.0,0.0,0.0,0.0,0.0,0.0,0.0,0.0,0.0,0.0,0.0,0.0,0.0,0.0,0.0,0.5098,0.0,0.0,0.0,0.0,0.0,0.0,0.0,0.0,0.0,0.0,0.0,0.0,0.0,0.0,0.0,0.0,0.0,0.0,0.0,0.0,0.0,0.0,0.0,0.0,0.0,0.0,0.0,0.0,0.0,0.0,0.0,0.0,0.0,0.0,0.0,0.0,0.0,0.0,0.0,0.0,0.0,0.0,0.0,0.0,0.0,0.0,0.0,0.0,0.0,0.0,0.0,0.0,0.0,0.0,0.0,0.0,0.0,0.0,0.0,0.0,0.0,0.0,0.0,0.0,0.0,0.0,0.0,0.0,0.0,0.0,0.0,0.0,0.0,0.0,0.0,0.0,0.0,0.0,0.0,0.0,0.0,0.0,0.0,0.0,0.0,0.0,0.0,0.0,0.0,0.0,0.0,0.0,0.0,0.0,0.0,0.0,0.0,0.0,0.0,0.0,0.0,0.0,0.0,0.0,0.0,0.0,0.0,0.0,0.0,0.0,0.4832,0.4951,0.5039,0.5127,0.5156,0.0,0.0,0.0,0.0,0.0,0.0,0.0,0.0,0.0,0.0,0.0,0.0,0.0,0.0,0.0,0.0,0.0,0.0,0.0,0.0,0.0,0.0,0.0,0.0,0.0,0.0,0.0,0.0,0.0,0.0,0.0,0.0,0.0,0.0,0.0,0.0,0.0,0.0,0.0,0.0,0.0,0.0,0.0,0.0,0.0,0.0,0.0,0.0,0.0,0.0,0.0,0.0,0.0,0.0,0.0,0.0,0.0,0.0,0.0,0.0,0.0,0.0,0.0,0.0,0.0,0.0,0.0,0.0,0.0,0.0,0.0,0.0,0.0,0.0,0.0,0.0,0.0,0.0,0.0,0.0,0.0,0.0,0.0,0.0,0.0,0.0,0.0,0.0,0.0,0.0,0.0,0.0,0.0,0.0,0.0,0.0,0.0,0.0,0.0,0.0,0.0,0.0,0.0,0.0,0.0,0.0,0.0,0.0,0.0,0.0,0.0,0.0,0.5232,0.5254,0.5254,0.0,0.0,0.0,0.0,0.0,0.0,0.0,0.0,0.0,0.0,0.0,0.0,0.0,0.0,0.0,0.0,0.0,0.0,0.0,0.0,0.0,0.0,0.0,0.0,0.0,0.0,0.0,0.0,0.0,0.0,0.0,0.0,0.0,0.0,0.0,0.0,0.0,0.0,0.0,0.0,0.0,0.0,0.0,0.0,0.0,0.0,0.0,0.0,0.0,0.0,0.0,0.0,0.0,0.0,0.0,0.0,0.0,0.0,0.0,0.0,0.0,0.0,0.0,0.0,0.0,0.0,0.0,0.0,0.0,0.0,0.0,0.0,0.0,0.0,0.0,0.0,0.0,0.0,0.0,0.0,0.0,0.0,0.0,0.0,0.0,0.0,0.0,0.0,0.0,0.0,0.0,0.0,0.0,0.0,0.0,0.0,0.0,0.0,0.0,0.0,0.0,0.0,0.0,0.0,0.0,0.0,0.0,0.0,0.0,0.0,0.5577,0.5635,0.569,0.0,0.541,0.0,0.0,0.0,0.0,0.0,0.0,0.0,0.0,0.0,0.0,0.0,0.0,0.0,0.0,0.0,0.0,0.0,0.0,0.0,0.0,0.0,0.0,0.0,0.0,0.0,0.0,0.0,0.0,0.0,0.0,0.0,0.0,0.0,0.0,0.0,0.0,0.0,0.0,0.0,0.0,0.0,0.0,0.0,0.0,0.0,0.0,0.0,0.0,0.0,0.0,0.0,0.0,0.0,0.0,0.0,0.0,0.0,0.0,0.0,0.0,0.0,0.0,0.0,0.0,0.0,0.0,0.0,0.0,0.0,0.0,0.0,0.0,0.0,0.0,0.0,0.0,0.0,0.0,0.0,0.0,0.0,0.0,0.0,0.0,0.0,0.0,0.0,0.0,0.0,0.0,0.0,0.0,0.0,0.0,0.0,0.0,0.0,0.0,0.0,0.0,0.0,0.0,0.0,0.0,0.0,0.0,0.0,0.0,0.0,0.0,0.0,0.6111,0.5963,0.5854,0.0,0.0,0.0,0.0,0.0,0.0,0.0,0.0,0.0,0.0,0.0,0.0,0.0,0.0,0.0,0.0,0.0,0.0,0.0,0.0,0.0,0.0,0.0,0.0,0.0,0.0,0.0,0.0,0.0,0.0,0.0,0.0,0.0,0.0,0.0,0.0,0.0,0.0,0.0,0.0,0.0,0.0,0.0,0.0,0.0,0.0,0.0,0.0,0.0,0.0,0.0,0.0,0.0,0.0,0.0,0.0,0.0,0.0,0.0,0.0,0.0,0.0,0.0,0.0,0.0,0.0,0.0,0.0,0.0,0.0,0.0,0.0,0.0,0.0,0.0,0.0,0.0,0.0,0.0,0.0,0.0,0.0,0.0,0.0,0.0,0.0,0.0,0.0,0.0,0.0,0.0,0.0,0.0,0.0,0.0,0.0,0.0,0.0,0.0,0.0,0.0,0.0,0.0,0.0,0.0,0.0,0.0,0.0,0.0,0.0,0.573,0.0,0.6572,0.6308,0.6121,0.617,0.0,0.0,0.0,0.0,0.0,0.0,0.0,0.0,0.0,0.0,0.0,0.0,0.0,0.0,0.0,0.0,0.0,0.0,0.0,0.0,0.0,0.0,0.0,0.0,0.0,0.0,0.0,0.0,0.0,0.0,0.0,0.0,0.0,0.0,0.0,0.0,0.0,0.0,0.0,0.0,0.0,0.0,0.0,0.0,0.0,0.0,0.0,0.0,0.0,0.0,0.0,0.0,0.0,0.0,0.0,0.0,0.0,0.0,0.0,0.0,0.0,0.0,0.0,0.0,0.0,0.0,0.0,0.0,0.0,0.0,0.0,0.0,0.0,0.0,0.0,0.0,0.0,0.0,0.0,0.0,0.0,0.0,0.0,0.0,0.0,0.0,0.0,0.0,0.0,0.0,0.0,0.0,0.0,0.0,0.0,0.0,0.0,0.0,0.0,0.0,0.0,0.0,0.0,0.0,0.0,0.0,0.0,0.0,0.0,0.6129,0.6631,0.7147,0.6853,0.6558,0.0,0.0,0.0,0.0,0.0,0.0,0.0,0.0,0.0,0.0,0.0,0.0,0.0,0.0,0.0,0.0,0.0,0.0,0.0,0.0,0.0,0.0,0.0,0.0,0.0,0.0,0.0,0.0,0.0,0.0,0.0,0.0,0.0,0.0,0.0,0.0,0.0,0.0,0.0,0.0,0.0,0.0,0.0,0.0,0.0,0.0,0.0,0.0,0.0,0.0,0.0,0.0,0.0,0.0,0.0,0.0,0.0,0.0,0.0,0.0,0.0,0.0,0.0,0.0,0.0,0.0,0.0,0.0,0.0,0.0,0.0,0.0,0.0,0.0,0.0,0.0,0.0,0.0,0.0,0.0,0.0,0.0,0.0,0.0,0.0,0.0,0.0,0.0,0.0,0.0,0.0,0.0,0.0,0.0,0.0,0.0,0.0,0.0,0.0,0.0,0.0,0.0,0.0,0.0,0.0,0.0,0.0,0.0,0.0,0.616,0.6842,0.7375,0.0,0.7049,0.6725,0.0,0.0,0.0,0.0,0.0,0.0,0.0,0.0,0.0,0.0,0.0,0.0,0.0,0.0,0.0,0.0,0.0,0.0,0.0,0.0,0.0,0.0,0.0,0.0,0.0,0.0,0.0,0.0,0.0,0.0,0.0,0.0,0.0,0.0,0.0,0.0,0.0,0.0,0.0,0.0,0.0,0.0,0.0,0.0,0.0,0.0,0.0,0.0,0.0,0.0,0.0,0.0,0.0,0.0,0.0,0.0,0.0,0.0,0.0,0.0,0.0,0.0,0.0,0.0,0.0,0.0,0.0,0.0,0.0,0.0,0.0,0.0,0.0,0.0,0.0,0.0,0.0,0.0,0.0,0.0,0.0,0.0,0.0,0.0,0.0,0.0,0.0,0.0,0.0,0.0,0.0,0.0,0.0,0.0,0.0,0.0,0.0,0.0,0.0,0.0,0.0,0.0,0.0,0.0,0.0,0.0,0.0,0.0,0.0,0.6622,0.0,0.7759,0.0,0.7275,0.6978,0.0,0.0,0.0,0.0,0.0,0.0,0.0,0.0,0.0,0.0,0.0,0.0,0.0,0.0,0.0,0.0,0.0,0.0,0.0,0.0,0.0,0.0,0.0,0.0,0.0,0.0,0.0,0.0,0.0,0.0,0.0,0.0,0.0,0.0,0.0,0.0,0.0,0.0,0.0,0.0,0.0,0.0,0.0,0.0,0.0,0.0,0.0,0.0,0.0,0.0,0.0,0.0,0.0,0.0,0.0,0.0,0.0,0.0,0.0,0.0,0.0,0.0,0.0,0.0,0.0,0.0,0.0,0.0,0.0,0.0,0.0,0.0,0.0,0.0,0.0,0.0,0.0,0.0,0.0,0.0,0.0,0.0,0.0,0.0,0.0,0.0,0.0,0.0,0.0,0.0,0.0,0.0,0.0,0.0,0.0,0.0,0.0,0.0,0.0,0.0,0.0,0.0,0.0,0.0,0.0,0.0,0.0,0.0,0.6179,0.7076,0.7515,0.7798,0.7898,0.7637,0.7375,0.0,0.0,0.0,0.0,0.0,0.0,0.0,0.0,0.0,0.0,0.0,0.0,0.0,0.0,0.0,0.0,0.0,0.0,0.0,0.0,0.0,0.0,0.0,0.0,0.0,0.0,0.0,0.0,0.0,0.0,0.0,0.0,0.0,0.0,0.0,0.0,0.0,0.0,0.0,0.0,0.0,0.0,0.0,0.0,0.0,0.0,0.0,0.0,0.0,0.0,0.0,0.0,0.0,0.0,0.0,0.0,0.0,0.0,0.0,0.0,0.0,0.0,0.0,0.0,0.0,0.0,0.0,0.0,0.0,0.0,0.0,0.0,0.0,0.0,0.0,0.0,0.0,0.0,0.0,0.0,0.0,0.0,0.0,0.0,0.0,0.0,0.0,0.0,0.0,0.0,0.0,0.0,0.0,0.0,0.0,0.0,0.0,0.0,0.0,0.0,0.0,0.0,0.0,0.0,0.0,0.0,0.0,0.0,0.0,0.7964,0.8121,0.8241,0.8379,0.8082,0.7653,0.0,0.0,0.0,0.0,0.0,0.0,0.0,0.0,0.0,0.0,0.0,0.0,0.0,0.0,0.0,0.0,0.0,0.0,0.0,0.0,0.0,0.0,0.0,0.0,0.0,0.0,0.0,0.0,0.0,0.0,0.0,0.0,0.0,0.0,0.0,0.0,0.0,0.0,0.0,0.0,0.0,0.0,0.0,0.0,0.0,0.0,0.0,0.0,0.0,0.0,0.0,0.0,0.0,0.0,0.0,0.0,0.0,0.0,0.0,0.0,0.0,0.0,0.0,0.0,0.0,0.0,0.0,0.0,0.0,0.0,0.0,0.0,0.0,0.0,0.0,0.0,0.0,0.0,0.0,0.0,0.0,0.0,0.0,0.0,0.0,0.0,0.0,0.0,0.0,0.0,0.0,0.0,0.0,0.0,0.0,0.0,0.0,0.0,0.0,0.0,0.0,0.0,0.0,0.0,0.0,0.0,0.0,0.0,0.0,0.8865,0.8724,0.8691,0.8842,0.8542,0.8046,0.7395,0.0,0.0,0.0,0.0,0.0,0.0,0.0,0.0,0.0,0.0,0.0,0.0,0.0,0.0,0.0,0.0,0.0,0.0,0.0,0.0,0.0,0.0,0.0,0.0,0.0,0.0,0.0,0.0,0.0,0.0,0.0,0.0,0.0,0.0,0.0,0.0,0.0,0.0,0.0,0.0,0.0,0.0,0.0,0.0,0.0,0.0,0.0,0.0,0.0,0.0,0.0,0.0,0.0,0.0,0.0,0.0,0.0,0.0,0.0,0.0,0.0,0.0,0.0,0.0,0.0,0.0,0.0,0.0,0.0,0.0,0.0,0.0,0.0,0.0,0.0,0.0,0.0,0.0,0.0,0.0,0.0,0.0,0.0,0.0,0.0,0.0,0.0,0.0,0.0,0.0,0.0,0.0,0.0,0.0,0.0,0.0,0.0,0.0,0.0,0.0,0.0,0.0,0.0,0.0,0.0,0.0,0.0,0.0,0.9822,0.9377,0.9214,0.9379,0.9058,0.8561,0.0,0.0,0.0,0.0,0.0,0.0,0.0,0.0,0.0,0.0,0.0,0.0,0.0,0.0,0.0,0.0,0.0,0.0,0.0,0.0,0.0,0.0,0.0,0.0,0.0,0.0,0.0,0.0,0.0,0.0,0.0,0.0,0.0,0.0,0.0,0.0,0.0,0.0,0.0,0.0,0.0,0.0,0.0,0.0,0.0,0.0,0.0,0.0,0.0,0.0,0.0,0.0,0.0,0.0,0.0,0.0,0.0,0.0,0.0,0.0,0.0,0.0,0.0,0.0,0.0,0.0,0.0,0.0,0.0,0.0,0.0,0.0,0.0,0.0,0.0,0.0,0.0,0.0,0.0,0.0,0.0,0.0,0.0,0.0,0.0,0.0,0.0,0.0,0.0,0.0,0.0,0.0,0.0,0.0,0.0,0.0,0.0,0.0,0.0,0.0,0.0,0.0,0.0,0.0,0.0,0.0,0.0,0.0,0.0,1.019,1.0535,1.0582,1.0325,1.0091,0.9531,0.0,0.0,0.0,0.0,0.0,0.0,0.0,0.0,0.0,0.0,0.0,0.0,0.0,0.0,0.0,0.0,0.0,0.0,0.0,0.0,0.0,0.0,0.0,0.0,0.0,0.0,0.0,0.0,0.0,0.0,0.0,0.0,0.0,0.0,0.0,0.0,0.0,0.0,0.0,0.0,0.0,0.0,0.0,0.0,0.0,0.0,0.0,0.0,0.0,0.0,0.0,0.0,0.0,0.0,0.0,0.0,0.0,0.0,0.0,0.0,0.0,0.0,0.0,0.0,0.0,0.0,0.0,0.0,0.0,0.0,0.0,0.0,0.0,0.0,0.0,0.0,0.0,0.0,0.0,0.0,0.0,0.0,0.0,0.0,0.0,0.0,0.0,0.0,0.0,0.0,0.0,0.0,0.0,0.0,0.0,0.0,0.0,0.0,0.0,0.0,0.0,0.0,0.0,0.0,0.0,0.0,0.0,0.0,0.9935,1.0923,1.1716,1.2026,1.1799,1.1103,1.0222,0.0,0.0,0.0,0.0,0.0,0.0,0.0,0.0,0.0,0.0,0.0,0.0,0.0,0.0,0.0,0.0,0.0,0.0,0.0,0.0,0.0,0.0,0.0,0.0,0.0,0.0,0.0,0.0,0.0,0.0,0.0,0.0,0.0,0.0,0.0,0.0,0.0,0.0,0.0,0.0,0.0,0.0,0.0,0.0,0.0,0.0,0.0,0.0,0.0,0.0,0.0,0.0,0.0,0.0,0.0,0.0,0.0,0.0,0.0,0.0,0.0,0.0,0.0,0.0,0.0,0.0,0.0,0.0,0.0,0.0,0.0,0.0,0.0,0.0,0.0,0.0,0.0,0.0,0.0,0.0,0.0,0.0,0.0,0.0,0.0,0.0,0.0,0.0,0.0,0.0,0.0,0.0,0.0,0.0,0.0,0.0,0.0,0.0,0.0,0.0,0.0,0.0,0.0,0.0,0.0,0.0,0.0,0.0,1.0962,1.1765,1.2752,1.3273,1.3276,1.203,1.0826,0.0,0.0,0.0,0.0,0.0,0.0,0.0,0.0,0.0,0.0,0.0,0.0,0.0,0.0,0.0,0.0,0.0,0.0,0.0,0.0,0.0,0.0,0.0,0.0,0.0,0.0,0.0,0.0,0.0,0.0,0.0,0.0,0.0,0.0,0.0,0.0,0.0,0.0,0.0,0.0,0.0,0.0,0.0,0.0,0.0,0.0,0.0,0.0,0.0,0.0,0.0,0.0,0.0,0.0,0.0,0.0,0.0,0.0,0.0,0.0,0.0,0.0,0.0,0.0,0.0,0.0,0.0,0.0,0.0,0.0,0.0,0.0,0.0,0.0,0.0,0.0,0.0,0.0,0.0,0.0,0.0,0.0,0.0,0.0,0.0,0.0,0.0,0.0,0.0,0.0,0.0,0.0,0.0,0.0,0.0,0.0,0.0,0.0,0.0,0.0,0.0,0.0,0.0,0.0,0.0,0.0,0.0,0.0,1.1387,1.2383,1.3184,1.3552,1.3452,1.2596,1.1778,0.0,0.0,0.0,0.0,0.0,0.0,0.0,0.0,0.0,0.0,0.0,0.0,0.0,0.0,0.0,0.0,0.0,0.0,0.0,0.0,0.0,0.0,0.0,0.0,0.0,0.0,0.0,0.0,0.0,0.0,0.0,0.0,0.0,0.0,0.0,0.0,0.0,0.0,0.0,0.0,0.0,0.0,0.0,0.0,0.0,0.0,0.0,0.0,0.6307,0.0,0.0,0.0,0.0,0.0,0.0,0.0,0.0,0.0,0.0,0.0,0.0,0.0,0.0,0.0,0.0,0.0,0.0,0.0,0.0,0.0,0.0,0.0,0.0,0.0,0.0,0.0,0.0,0.0,0.0,0.0,0.0,0.0,0.0,0.0,0.0,0.0,0.0,0.0,0.0,0.0,0.0,0.0,0.0,0.0,0.0,0.0,0.0,0.0,0.0,0.0,0.0,0.0,0.0,0.0,0.0,0.0,0.0,0.0,1.2359,1.3076,1.3904,1.4328,1.4216,1.3544,1.2605,0.0,0.0,0.0,0.0,0.0,0.0,0.0,0.0,0.0,0.0,0.0,0.0,0.0,0.0,0.0,0.0,0.0,0.0,0.0,0.0,0.0,0.0,0.0,0.0,0.0,0.0,0.0,0.0,0.0,0.0,0.0,0.0,0.0,0.0,0.0,0.0,0.0,0.0,0.0,0.0,0.0,0.0,0.0,0.0,0.0,0.0,0.0,0.0,0.0,0.0,0.0,0.0,0.0,0.0,0.0,0.0,0.0,0.0,0.0,0.0,0.0,0.0,0.0,0.0,0.0,0.0,0.0,0.0,0.0,0.0,0.0,0.0,0.0,0.0,0.0,0.0,0.0,0.0,0.0,0.0,0.0,0.0,0.0,0.0,0.0,0.0,0.0,0.0,0.0,0.0,0.0,0.0,0.0,0.0,0.0,0.0,0.0,0.0,0.0,0.0,0.0,0.0,0.0,0.0,0.0,0.0,0.0,1.2419,1.3322,1.3665,1.4679,1.5176,1.5164,1.4427,1.33,1.1766,0.0,0.0,0.0,0.0,0.0,0.0,0.0,0.0,0.0,0.0,0.0,0.0,0.0,0.0,0.0,0.0,0.0,0.0,0.0,0.0,0.0,0.0,0.0,0.0,0.0,0.0,0.0,0.0,0.0,0.0,0.0,0.0,0.0,0.0,0.0,0.0,0.0,0.0,0.5935,0.6894,0.0,0.0,0.0,0.0,0.0,0.0,0.0,0.0,0.7548,0.0,0.0,0.0,0.0,0.0,0.0,0.0,0.0,0.0,0.0,0.0,0.0,0.0,0.0,0.0,0.0,0.0,0.0,0.0,0.0,0.0,0.0,0.0,0.0,0.0,0.0,0.0,0.0,0.0,0.0,0.0,0.0,0.0,0.0,0.0,0.0,0.0,0.0,0.0,0.0,0.0,0.0,0.0,0.0,0.0,0.0,0.0,0.0,0.0,0.0,0.0,0.0,0.0,0.0,0.0,0.0,1.1124,1.272,1.3631,1.3868,1.4983,1.5547,1.5423,1.4627,1.3689,1.2669,0.0,0.0,0.0,0.0,0.0,0.0,0.0,0.0,0.0,0.0,0.0,0.0,0.0,0.0,0.0,0.0,0.0,0.0,0.0,0.0,0.0,0.0,0.0,0.0,0.0,0.0,0.0,0.0,0.0,0.0,0.0,0.0,0.0,0.0,0.0,0.0,0.0,0.0,0.0,0.7653,0.8086,0.0,0.0,0.0,0.0,0.0,0.0,0.0,0.0,0.7807,0.0,0.0,0.0,0.0,0.0,0.0,0.0,0.0,0.0,0.0,0.0,0.0,0.0,0.0,0.0,0.0,0.0,0.0,0.0,0.0,0.0,0.0,0.0,0.0,0.0,0.0,0.0,0.0,0.0,0.0,0.0,0.0,0.0,0.0,0.0,0.0,0.0,0.0,0.0,0.0,0.0,0.0,0.0,0.0,0.0,0.0,0.0,0.0,0.0,0.0,0.0,0.0,0.0,0.0,0.0,1.133,1.3201,1.4191,1.4273,1.5359,1.5792,1.5459,1.4813,1.387,0.0,0.0,0.0,0.0,0.0,0.0,0.0,0.0,0.0,0.0,0.0,0.0,0.0,0.0,0.0,0.0,0.0,0.0,0.0,0.0,0.0,0.0,0.0,0.0,0.0,0.0,0.0,0.0,0.0,0.0,0.0,0.0,0.0,0.0,0.0,0.0,0.0,0.0,0.0,0.0,0.8626,0.9194,0.9646,0.0,0.0,0.0,0.0,0.0,0.0,0.9267,0.8875,0.0,0.0,0.0,0.0,0.0,0.0,0.0,0.0,0.0,0.0,0.0,0.0,0.0,0.0,0.0,0.0,0.0,0.0,0.0,0.0,0.0,0.0,0.0,0.0,0.0,0.0,0.0,0.0,0.0,0.0,0.0,0.0,0.0,0.0,0.0,0.0,0.0,0.0,0.0,0.0,0.0,0.0,0.0,0.0,0.0,0.0,0.0,0.0,0.0,0.0,0.0,0.0,0.0,0.0,0.0,1.1628,1.3684,1.4745,1.4814,1.5738,1.5985,1.5422,1.496,1.3933,0.0,0.0,0.0,0.0,0.0,0.0,0.0,0.0,0.0,0.0,0.0,0.0,0.0,0.0,0.0,0.0,0.0,0.0,0.0,0.0,0.0,0.0,0.0,0.0,0.0,0.0,0.0,0.0,0.0,0.0,0.0,0.0,0.0,0.0,0.0,0.0,0.0,0.0,0.0,0.0,0.0,1.024,1.1064,1.1241,0.0,0.0,0.0,0.0,1.1418,1.0663,0.0,0.0,0.0,0.0,0.0,0.0,0.0,0.0,0.0,0.0,0.0,0.0,0.0,0.0,0.0,0.0,0.0,0.0,0.0,0.0,0.0,0.0,0.0,0.0,0.0,0.0,0.0,0.0,0.0,0.0,0.0,0.0,0.0,0.0,0.0,0.0,0.0,0.0,0.0,0.0,0.0,0.0,0.0,0.0,0.0,0.0,0.0,0.0,0.0,0.0,0.0,0.0,0.0,0.0,0.0,0.0,1.2287,1.3998,1.5044,1.5414,1.603,1.6101,1.5492,1.498,1.3964,0.0,0.0,0.0,0.0,0.0,0.0,0.0,0.0,0.0,0.0,0.0,0.0,0.0,0.0,0.0,0.0,0.0,0.0,0.0,0.0,0.0,0.0,0.0,0.0,0.0,0.0,0.0,0.0,0.0,0.0,0.0,0.0,0.0,0.0,0.0,0.0,0.0,0.0,0.0,0.0,0.0,1.0587,1.1061,1.1164,1.1241,0.0,0.0,1.1424,1.1467,1.1382,0.0,0.0,0.0,0.0,0.0,0.0,0.0,0.0,0.0,0.0,0.0,0.0,0.0,0.0,0.0,0.0,0.0,0.0,0.0,0.0,0.0,0.0,0.0,0.0,0.0,0.0,0.0,0.0,0.0,0.0,0.0,0.0,0.0,0.0,0.0,0.0,0.0,0.0,0.0,0.0,0.0,0.0,0.0,0.0,0.0,0.0,0.0,0.0,0.0,0.0,0.0,0.0,0.0,0.0,0.0,1.072,1.2391,1.4054,1.5141,1.5611,1.6169,1.6194,1.5624,1.5087,1.4044,0.0,0.0,0.0,0.0,0.0,0.0,0.0,0.0,0.0,0.0,0.0,0.0,0.0,0.0,0.0,0.0,0.0,0.0,0.0,0.0,0.0,0.0,0.0,0.0,0.0,0.0,0.0,0.0,0.0,0.0,0.0,0.0,0.0,0.0,0.0,0.0,0.0,0.0,0.0,0.0,0.0,0.0,1.2299,1.2485,0.0,0.0,0.0,1.3265,1.3406,0.0,0.0,0.0,0.0,0.0,0.0,0.0,0.0,0.0,0.0,0.0,0.0,0.0,0.0,0.0,0.0,0.0,0.0,0.0,0.0,0.0,0.0,0.0,0.0,0.0,0.0,0.0,0.0,0.0,0.0,0.0,0.0,0.0,0.0,0.0,0.0,0.0,0.0,0.0,0.0,0.0,0.0,0.0,0.0,0.0,0.0,0.0,0.0,0.0,0.0,0.0,0.0,0.0,0.0,0.0,0.0,0.0,1.2588,1.4117,1.5223,1.5894,1.6308,1.6258,1.5706,1.5173,0.0,0.0,0.0,0.0,0.0,0.0,0.0,0.0,0.0,0.0,0.0,0.0,0.0,0.0,0.0,0.0,0.0,0.0,0.0,0.0,0.0,0.0,0.0,0.0,0.0,0.0,0.0,0.4869,0.0,0.0,0.0,0.0,0.0,0.0,0.0,0.0,0.0,0.0,0.0,0.0,0.0,0.0,1.2135,1.3368,1.3633,1.392,0.0,0.0,1.4676,1.4877,1.4074,1.3361,0.0,0.0,0.0,0.0,0.0,0.0,0.0,0.0,0.0,0.0,0.0,0.0,0.0,0.0,0.0,0.0,0.0,0.0,0.0,0.0,0.0,0.0,0.0,0.0,0.0,0.0,0.0,0.0,0.0,0.0,0.0,0.0,0.0,0.0,0.0,0.0,0.0,0.0,0.0,0.0,0.0,0.0,0.0,0.0,0.0,0.0,0.0,0.0,0.0,0.0,0.0,0.0,0.0,0.0,0.0,1.3115,1.4287,1.5399,1.6387,1.6475,1.6237,1.5706,1.5185,1.4117,0.0,0.0,0.0,0.0,0.0,0.0,0.0,0.0,0.0,0.0,0.0,0.0,0.0,0.0,0.0,0.0,0.0,0.0,0.0,0.0,0.0,0.0,0.0,0.0,0.0,0.0,0.0,0.0,0.0,0.0,0.0,0.0,0.0,0.0,0.0,0.0,0.0,0.0,0.0,0.0,0.0,1.2988,1.352,1.3954,1.4332,0.0,0.0,1.4656,1.4877,1.4425,1.384,1.3303,0.0,0.0,0.0,0.0,0.0,0.0,0.0,0.0,0.0,0.0,0.0,0.0,0.0,0.0,0.0,0.0,0.0,0.0,0.0,0.0,0.0,0.0,0.0,0.0,0.0,0.0,0.0,0.0,0.0,0.0,0.0,0.0,0.0,0.0,0.0,0.0,0.0,0.0,0.0,0.0,0.0,0.0,0.0,0.0,0.0,0.0,0.0,0.0,0.0,0.0,0.0,0.0,0.0,1.1307,1.316,1.4312,1.5424,1.645,1.6513,1.6387,1.6208,1.5361,1.445,0.0,0.0,0.0,0.0,0.0,0.0,0.0,0.0,0.0,0.0,0.0,0.0,0.0,0.0,0.0,0.0,0.0,0.0,0.0,0.0,0.0,0.0,0.0,0.0,0.0,0.0,0.0,0.0,0.6424,0.646,0.6625,0.0,0.0,0.0,0.0,0.0,0.0,0.0,0.0,0.0,0.0,1.3289,1.4408,1.4671,0.0,0.0,1.5594,1.5645,1.5853,1.5437,1.5009,1.4777,1.3717,0.0,0.0,0.0,0.0,0.0,0.0,0.0,0.0,0.0,0.0,0.0,0.0,0.0,0.0,0.0,0.0,0.0,0.0,0.0,0.0,0.0,0.0,0.0,0.0,0.0,0.0,0.0,0.0,0.0,0.0,0.0,0.0,0.0,0.0,0.0,0.0,0.0,0.0,0.0,0.0,0.0,0.0,0.0,0.0,0.0,0.0,0.0,0.0,0.0,0.0,0.0,0.0,1.1638,1.3471,1.4419,1.5424,1.6475,1.6513,1.6513,1.6475,1.5605,1.4828,0.0,0.0,0.0,0.0,0.0,0.0,0.0,0.0,0.0,0.0,0.0,0.0,0.0,0.0,0.0,0.0,0.0,0.0,0.0,0.0,0.0,0.0,0.0,0.0,0.0,0.0,0.0,0.0,0.6681,0.6722,0.6833,0.0,0.0,0.0,0.0,0.0,0.0,0.0,0.0,0.0,0.0,1.4055,1.5102,1.5323,1.5566,1.6095,1.6244,1.6331,1.6479,1.6057,1.5693,1.5693,0.0,0.0,0.0,0.0,0.0,0.0,0.0,0.0,0.0,0.0,0.0,0.0,0.0,0.0,0.0,0.0,0.0,0.0,0.0,0.0,0.0,0.0,0.0,0.0,0.0,0.0,0.0,0.0,0.0,0.0,0.8897,0.0,0.0,0.0,0.0,0.0,0.0,0.0,0.0,0.0,0.0,0.0,0.0,0.0,0.0,0.0,0.0,0.0,0.0,0.0,0.0,0.0,0.0,0.0,1.4022,1.4614,1.5424,1.6463,1.6513,1.6513,1.6488,1.5969,1.5185,1.4116,0.0,0.0,0.0,0.0,0.0,0.0,0.0,0.0,0.0,0.0,0.0,0.0,0.0,0.0,0.0,0.0,0.0,0.0,0.0,0.0,0.0,0.0,0.0,0.0,0.0,0.0,0.6702,0.6663,0.6846,0.0,0.0,0.0,0.0,0.0,0.0,0.0,0.0,0.0,0.0,1.4505,1.5435,1.5426,1.5856,1.6203,1.6259,1.6355,1.6439,1.6516,1.6095,1.5706,0.0,0.0,0.0,0.0,0.0,0.0,0.0,0.0,0.0,0.0,0.0,0.0,0.0,0.0,0.0,0.0,0.0,0.0,0.0,0.0,0.0,0.0,0.0,0.0,0.0,0.0,0.0,1.1152,1.1127,0.0,0.0,0.0,0.0,0.0,0.0,0.0,0.0,0.0,0.0,0.0,1.3704,1.386,0.0,0.0,0.0,0.0,0.0,0.0,0.0,0.0,0.0,0.0,0.0,0.0,1.2231,1.4027,1.4626,1.5424,1.6463,1.6513,1.6513,1.6488,1.5982,1.5003,1.3546,0.0,0.0,0.0,0.0,0.0,0.0,0.0,0.0,0.0,0.0,0.0,0.0,0.0,0.0,0.0,0.0,0.0,0.0,0.0,0.0,0.0,0.0,0.0,0.0,0.0,0.6784,0.0,0.0,0.0,0.0,0.0,0.0,0.0,0.0,0.0,0.0,0.0,1.4588,1.5309,1.6102,1.6772,1.7074,1.7216,1.728,0.0,0.0,0.0,0.0,0.0,0.0,0.0,0.0,0.0,0.0,0.0,0.0,0.0,0.0,1.3823,1.2572,1.1884,1.1391,1.118,0.0,0.0,0.0,0.0,0.0,0.0,0.0,0.0,0.0,0.0,0.0,0.0,0.0,0.0,1.3193,0.0,1.2482,0.0,0.0,0.0,0.0,0.0,0.0,0.0,0.0,1.461,1.5251,1.5666,1.5623,1.5492,0.0,1.4657,1.3245,0.0,0.0,0.0,0.0,0.0,0.0,0.0,0.0,1.2898,1.4324,1.4896,1.5593,1.645,1.6513,1.6513,1.6488,1.5982,1.5178,1.4087,1.3498,1.2522,0.0,0.0,0.0,0.0,0.0,0.0,0.0,0.0,0.0,0.0,0.0,0.0,0.0,0.0,0.0,0.0,0.0,0.0,0.0,0.0,0.0,0.0,0.0,0.74,0.0,0.0,0.0,0.0,0.0,0.0,0.0,0.0,0.0,1.3822,1.4764,1.5781,1.6697,1.7232,1.7661,1.7951,0.0,0.0,0.0,0.0,0.0,0.0,0.0,1.8204,1.8204,1.7903,1.7677,1.7677,1.7282,1.6898,1.6729,0.0,0.0,1.424,1.3443,1.2947,1.2667,1.2363,1.2225,1.2354,1.2481,1.2662,0.0,0.0,0.0,0.0,0.0,0.0,0.0,0.0,1.5918,1.5918,0.0,1.5201,0.0,0.0,0.0,0.0,0.0,1.5103,0.0,0.0,1.6683,1.7334,1.7712,1.8006,1.789,1.741,1.6776,1.5969,1.4884,1.3333,0.0,0.0,0.0,0.0,0.0,0.0,1.3779,1.4884,1.5437,1.5957,1.6475,1.6513,1.6513,1.6488,1.6007,1.5718,1.563,1.4156,1.3261,1.316,1.1171,0.0,0.0,0.0,0.0,0.0,0.0,0.0,0.0,0.0,0.0,0.0,0.0,0.0,0.0,0.0,0.0,0.0,0.0,0.0,0.0,0.8012,0.0,0.0,0.0,0.0,0.0,0.0,0.0,0.0,0.0,0.0,1.5198,1.5982,1.6789,1.7423,0.0,0.0,0.0,0.0,1.8269,1.8174,1.8233,1.8342,1.8342,1.8342,1.8342,1.8342,0.0,0.0,1.8292,1.8159,1.805,1.8039,1.7835,1.7171,1.5716,1.521,1.4903,1.457,1.4246,1.4058,1.4001,1.3937,1.3951,2.044,0.0,0.0,0.0,0.0,1.8551,1.8585,1.8585,1.8585,1.8519,1.8403,1.7733,0.0,0.0,0.0,0.0,0.0,0.0,1.7492,1.7718,1.7635,1.7874,1.8326,1.8246,1.8129,1.7965,1.7779,1.735,1.6694,1.6216,1.4877,1.2776,0.0,0.0,0.0,0.0,1.4368,1.5424,1.5638,1.5969,1.6509,1.6513,1.6513,1.6513,1.6371,1.6095,1.5706,1.5241,1.4419,1.3248,1.2597,0.0,0.0,0.0,0.0,0.0,0.0,0.0,0.0,0.0,0.0,0.0,0.0,0.0,0.0,0.0,0.0,0.0,0.0,0.0,0.8573,0.9466,1.0244,0.0,0.0,0.0,0.0,0.0,0.0,0.0,0.0,0.0,1.8304,1.8329,1.8481,0.0,0.0,2.0126,2.045,2.0539,2.0512,2.05,0.0,0.0,0.0,2.0552,2.0539,2.0552,2.0251,1.9962,1.9987,1.9584,1.9271,1.917,1.8992,1.8664,1.8045,1.7019,1.6221,1.5834,1.546,1.5052,1.478,1.4828,1.4959,2.2861,2.1273,2.1057,2.0996,2.107,2.1187,2.1211,2.1168,2.1168,2.1074,2.0912,2.0258,1.9788,1.9445,1.8364,0.0,0.0,0.0,1.9489,1.9757,1.9315,1.9386,1.9849,1.9434,1.9208,1.9158,1.8731,1.8343,1.8028,1.7815,1.6873,1.5209,0.0,0.0,1.4739,1.4934,1.5487,1.6342,1.6572,1.6861,1.7152,1.6951,1.6748,1.6513,1.6513,1.635,1.6032,1.5806,1.5241,1.4231,1.3566,1.25,0.0,0.0,0.0,0.0,0.0,0.0,0.0,0.0,0.0,0.0,0.0,0.7828,0.0,0.0,0.0,0.0,0.934,0.9755,1.007,1.1046,0.0,0.0,0.0,0.0,0.0,0.0,0.0,1.7903,1.8706,1.951,2.0338,2.02,2.0086,2.0426,2.0765,2.1144,2.1443,0.0,2.1481,2.1481,2.1481,2.1481,2.1481,2.1481,2.1481,2.1481,2.123,2.1031,2.1006,2.069,2.0462,2.0343,2.0167,1.9978,1.9815,1.8938,1.7894,1.7051,1.6552,1.6138,1.5654,1.567,1.5744,2.4322,2.4402,2.3771,2.3503,2.3526,2.365,2.3665,2.3548,2.3526,2.3459,2.3289,2.2658,2.203,2.132,2.0877,0.0,2.0105,2.0948,2.1496,2.1746,2.1353,2.1437,2.186,2.1116,2.0767,2.0729,1.971,1.9208,1.9183,1.8668,1.8367,1.8292,1.6748,1.5932,1.5919,1.6375,1.6911,1.7461,1.794,1.8179,1.8129,1.7639,1.7099,1.6513,1.6513,1.65,1.6488,1.6032,1.5731,1.5676,1.4181,1.3077,1.245,0.0,0.0,0.0,0.0,0.0,0.0,0.0,0.0,0.0,0.0,0.0,0.0,0.0,0.0,0.0,1.1161,0.0,1.1851,1.2826,0.0,0.0,0.0,1.5613,1.6722,1.7765,1.8594,1.9133,0.0,0.0,2.1493,0.0,2.1619,2.1606,2.1594,2.1568,2.1634,2.1656,2.1631,2.1681,2.1644,2.1631,2.1732,2.1707,2.1719,2.1732,2.1581,2.1556,2.1543,2.1455,2.1496,2.1418,2.1228,2.0978,2.099,2.0552,1.9915,1.822,1.7695,1.7314,1.6774,1.6652,1.6519,2.655,2.6679,2.6279,2.5466,2.4518,2.4717,2.4802,2.4755,2.4661,2.4537,2.4418,2.4124,2.3507,2.2663,2.2981,2.2623,2.1749,2.2315,2.2524,2.2379,2.1922,2.1796,2.1898,2.1481,2.132,2.1307,2.1029,2.0903,2.0878,2.0365,1.9887,1.9409,1.8607,1.8028,1.7626,1.7716,1.7877,1.8016,1.8129,1.8003,1.7612,1.7451,1.7099,1.6525,1.6513,1.6513,1.65,1.6375,1.6099,1.5706,1.4915,1.4036,1.3048,1.1851,0.0,0.0,0.0,0.0,0.0,0.0,0.0,0.0,0.0,0.9742,1.0281,0.0,1.1663,0.0,1.3212,1.4117,1.4117,1.5078,0.0,0.0,1.7426,1.8016,1.9535,1.995,2.0327,2.084,2.1506,2.197,2.2108,2.2485,2.2706,2.2706,2.2385,2.223,2.2631,2.2719,2.2719,2.2694,2.2669,2.2719,2.2681,2.2719,2.2711,2.2706,2.2397,2.2121,2.2108,2.1757,2.1481,2.1493,2.1353,2.1184,2.1067,2.0746,2.0382,1.9743,1.9281,1.8813,1.827,1.807,1.7901,2.7127,2.7278,2.7123,2.668,2.6003,2.5912,2.5842,2.5752,2.5701,2.5564,2.5357,2.4918,2.4388,2.3842,2.4062,2.3734,2.3069,2.3405,2.3452,2.3158,2.2822,2.261,2.2541,2.2084,2.1857,2.1845,2.1606,2.1481,2.1468,2.1207,2.0767,2.0188,1.9899,1.9472,1.8907,1.8657,1.8668,1.892,1.892,1.8668,1.8129,1.7877,1.7488,1.6923,1.6626,1.6513,1.6513,1.6513,1.635,1.6049,1.5563,1.4984,1.4331,1.304,1.2052,0.0,0.0,0.0,0.0,0.0,0.0,0.0,0.0,0.0,0.0,0.0,1.3709,1.4199,1.5304,1.6103,1.6355,1.7137,1.8067,1.9183,1.9334,1.9774,2.0943,2.127,2.1619,2.2159,2.2711,2.3163,2.3371,2.3672,2.3847,2.3847,2.3597,2.3321,2.3133,2.3095,2.3095,2.3095,2.3095,2.3095,2.3095,2.3095,2.3095,2.3083,2.2844,2.2644,2.2673,2.2406,2.2221,2.2192,2.2077,2.1973,2.1856,2.1621,2.1343,2.1129,2.0798,2.0189,1.9167,1.8736,1.8536,2.7071,2.7168,2.719,2.7327,2.7436,2.6916,2.6689,2.6648,2.6635,2.6458,2.6087,2.5305,2.4905,2.4758,2.449,2.4232,2.3997,2.4211,2.4173,2.3891,2.37,2.3509,2.3378,2.272,2.2422,2.2368,2.192,2.1694,2.1694,2.1631,2.1383,2.0918,2.0767,2.044,1.9911,1.9397,1.9321,1.9786,1.9798,1.9534,1.9008,1.8555,1.8003,1.7388,1.6886,1.6597,1.6513,1.6513,1.6513,1.6488,1.5994,1.5693,1.5668,1.4262,1.3373,0.0,1.2441,0.0,0.0,0.0,0.0,0.0,0.0,0.0,0.0,1.4563,1.5663,1.6726,1.735,1.7915,1.848,1.8995,1.9735,2.0767,2.0968,2.1232,2.1773,2.2297,2.2794,2.3271,2.3791,2.4293,2.465,2.48,2.4788,2.4725,2.4675,2.4336,2.3559,2.3308,2.3258,2.3208,2.3145,2.3095,2.3095,2.3095,2.3095,2.3095,2.307,2.3095,2.307,2.3058,2.307,2.307,2.2955,2.2889,2.2909,2.2628,2.2396,2.2175,2.1966,2.1334,1.9943,1.9346,1.8964,2.8029,2.8007,2.7566,2.7377,2.7371,2.6909,2.7005,2.7468,2.7353,2.6929,2.6299,2.5675,2.526,2.5108,2.494,2.473,2.4446,2.4355,2.4144,2.3891,2.3688,2.3539,2.336,2.3097,2.2945,2.2945,2.2844,2.2794,2.2782,2.2359,2.2108,2.1983,2.1144,2.0668,2.0515,0.0,0.0,0.0,1.9798,1.9522,1.902,1.8907,1.8405,1.7448,1.7275,0.0,1.6525,1.6513,1.6513,1.6488,1.5982,0.0,0.0,0.0,0.0,0.0,0.0,0.0,0.0,0.0,0.0,0.0,1.6053,1.6107,1.5341,1.6279,1.7375,1.8418,1.9032,1.9585,2.0163,2.0717,2.1292,2.192,2.2397,2.2857,2.3464,2.4004,2.4406,2.4449,2.4607,2.4675,2.4813,2.48,2.4813,2.4863,2.48,2.4713,2.4512,2.4117,2.3841,2.3816,2.3471,2.3145,2.3095,2.3133,2.3158,2.3095,2.3095,2.3095,2.3095,2.3095,2.3095,2.3095,2.3078,2.3017,2.2939,2.2848,2.2696,2.242,2.2247,2.1865,2.1011,2.0765,2.0588,2.8183,0.0,2.7876,2.7742,0.0,2.7484,2.7597,2.7868,2.7327,2.6873,2.641,2.6065,2.5679,2.5309,2.5164,2.4845,2.4421,2.429,2.4041,2.376,2.3658,2.348,2.3241,2.3168,2.3095,2.3095,2.3095,2.3095,2.3083,2.2832,2.2556,2.2268,2.1757,2.1343,2.1094,2.0541,2.0087,1.9798,1.9798,1.9673,1.9384,1.9133,1.8732,1.8216,0.0,0.0,0.0,0.0,0.0,0.0,0.0,0.0,0.0,0.0,0.0,1.5324,1.5266,1.5424,1.5701,1.5965,1.6367,1.6911,1.7976,1.8342,1.7765,1.8529,1.9371,2.015,2.0489,2.0865,2.1418,2.1732,2.2234,2.3037,2.3401,2.376,2.4318,2.4644,2.4888,2.5159,2.5209,2.5297,2.5598,2.5624,2.5657,2.5636,2.5624,2.5611,2.5548,2.4921,2.4406,2.4374,2.4161,2.3948,2.3923,2.3672,2.3552,2.3509,2.3296,2.312,2.3095,2.3095,2.3095,2.3095,2.3095,2.3078,2.3017,2.2927,2.2848,2.2665,2.2463,2.2185,2.1769,2.1474,2.121,2.8206,2.8193,2.8053,2.7994,2.8013,2.8013,2.798,2.7947,0.0,0.0,0.0,2.6409,2.6041,2.5572,2.5408,2.5084,2.4609,2.4354,2.4079,2.3769,2.3667,2.3407,2.3095,2.3095,2.3095,2.3095,2.3095,2.3095,2.3095,2.3095,2.2869,2.2498,2.2359,2.2033,2.1493,2.1069,2.0553,1.9987,1.9861,1.9798,1.9786,1.9359,1.9096,1.9008,1.8569,1.8091,1.7574,1.7549,1.73,1.6814,1.6801,1.6789,1.6801,1.6801,1.6801,1.6789,1.6789,1.7024,1.7524,1.7626,1.7953,1.8593,1.9635,2.0213,2.0112,2.0566,2.1069,2.1594,2.1631,2.1895,2.2535,2.2611,2.3025,2.4042,2.4217,2.4469,2.4895,2.5071,2.5322,2.5661,2.5749,2.5912,2.6373,2.6436,2.6487,2.6474,2.6399,2.6487,2.6373,2.5573,2.4908,2.4763,2.4662,2.4738,2.4745,2.4443,2.4155,2.413,2.3735,2.3384,2.3283,2.3258,2.3221,2.3108,2.3095,2.3108,2.3108,2.3017,2.2909,2.2909,2.2665,2.2451,2.2278,2.1925,2.1514,2.8601,2.8549,2.788,2.759,2.7556,2.7603,2.759,2.7584,2.7232,2.7125,2.7053,2.6521,2.6254,2.6144,2.5972,2.5827,2.5722,2.5127,2.468,0.0,2.3859,2.3437,2.3095,2.3095,2.3095,2.3095,2.3095,2.3095,2.3095,2.3095,2.307,2.2945,2.2548,2.2046,2.1531,2.1433,2.1104,2.0578,2.0049,1.9798,1.9798,1.9736,1.9472,1.9033,1.8933,1.8632,1.8116,1.8091,1.8053,1.7978,1.7978,1.7965,1.7942,1.7953,1.7965,1.7978,1.7978,1.8016,1.8103,1.8506,1.9246,2.0289,2.133,2.1757,2.1305,2.1317,2.1634,2.2133,2.2234,2.2636,2.3602,2.374,2.3979,2.4619,2.5109,2.541,2.5498,2.5933,2.6223,2.6311,2.6373,2.6361,2.6449,2.6487,2.6487,2.6487,2.6487,2.6487,2.6399,2.5933,2.5335,2.4913,2.48,2.48,2.4888,2.4763,2.4675,2.4675,2.4575,2.4286,2.3929,2.3879,2.374,2.3221,2.3195,2.3158,2.3145,2.3095,2.3017,2.2939,2.2818,2.2757,2.2629,2.2389,2.2099,2.9022,2.8961,2.8491,2.8122,2.7811,2.7411,2.7235,2.7222,2.7142,2.7203,2.7315,2.707,2.6794,2.6535,2.6409,2.6175,2.5874,2.5475,2.5128,2.4928,2.4529,2.4064,2.3615,2.359,2.3409,2.312,2.3095,2.3095,2.3095,2.3095,2.3095,2.3083,2.2844,2.2456,2.197,2.1945,2.1685,2.1144,2.0578,2.0151,1.9811,1.9798,1.9698,1.9421,1.9421,1.9196,1.8644,1.8632,1.8518,1.8216,1.8204,1.8204,1.8204,1.8469,1.8643,1.8632,1.892,1.9208,1.9522,2.0049,2.0702,2.1493,2.202,2.2347,2.2355,2.2355,2.2623,2.3133,2.3226,2.3565,2.4356,2.4456,2.4657,2.5197,2.546,2.5757,2.6059,2.6298,2.6487,2.6487,2.6487,2.6487,2.6487,2.6487,2.6487,2.6487,2.6487,2.6487,2.6487,2.6273,2.6021,2.5762,2.5724,2.5745,2.5686,2.541,2.5272,2.5247,2.4976,2.4745,2.4437,2.4412,2.4299,2.4061,2.3797,2.3627,2.359,2.3296,2.3128,2.3017,2.2927,2.2878,2.2787,2.2678,2.2402,2.9506,2.947,2.9197,2.8779,2.8256,2.7644,2.7284,2.7203,2.7169,2.7262,2.7369,2.7436,2.7255,2.6896,2.6857,2.6589,2.6147,2.5825,2.5614,2.5409,2.5115,2.4722,2.4205,2.418,2.3954,2.3496,2.3358,2.3296,2.3283,2.317,2.3095,2.3095,2.3095,2.2882,2.251,2.2468,2.2234,2.1694,2.1282,2.0779,2.0213,2.0188,2.0125,1.9999,2.0025,1.9722,1.9221,1.9183,1.8983,1.8606,1.8568,1.8631,1.8769,1.9158,1.9434,1.9559,1.9962,2.0402,2.0855,2.1368,2.1857,2.2243,2.2406,2.2706,2.3221,2.3308,2.3484,2.3929,2.4067,2.4393,2.4883,2.5008,2.5209,2.5711,2.5799,2.5975,2.6399,2.6487,2.6487,2.6487,2.6487,2.6487,2.6487,2.6487,2.6487,2.6487,2.6487,2.6487,2.6487,2.6487,2.6487,2.6487,2.6487,2.6436,2.6474,2.6135,2.5858,2.582,2.5498,2.5234,2.5084,2.4996,2.4895,2.4738,2.4456,2.4217,2.4142,2.3847,2.3534,2.3403,2.3292,2.3156,2.2903,2.283,2.2586,3.0191,2.9967,2.95,2.9155,2.8876,2.8559,2.8155,2.7732,2.7741,2.746,2.713,2.7248,2.739,2.7425,2.7398,2.728,2.7056,2.6582,2.6141,2.5815,2.5261,2.4911,2.4757,2.4757,2.4687,2.4537,2.4142,2.3947,2.391,2.3401,2.3108,2.3095,2.3095,2.3083,2.302,2.3007,2.2744,2.2259,2.2155,2.1895,2.138,2.133,2.1119,2.0629,2.0616,2.0339,1.9786,1.971,1.971,1.9648,1.9648,1.9899,2.0377,2.0515,2.0754,2.1167,2.128,2.1368,2.143,2.1933,2.2272,2.2347,2.2769,2.3271,2.3853,2.3929,2.3941,2.4117,2.4494,2.4926,2.5448,2.5523,2.5749,2.6248,2.6348,2.6449,2.6474,2.6487,2.6487,2.6487,2.6487,2.6487,2.6487,2.6487,2.6487,2.6487,2.6487,2.6487,2.6487,2.6487,2.6487,2.6487,2.6487,2.6487,2.6474,2.6461,2.6336,2.6361,2.6361,2.6059,2.5674,2.5511,2.5423,2.5197,2.4825,2.4757,2.4745,2.4625,2.4399,2.3985,2.3847,2.3716,2.3113,2.2958,2.2757,3.0806,3.062,3.0251,2.9718,2.9127,2.866,2.8284,2.801,2.7974,2.7799,2.7489,2.7554,2.7511,2.7382,2.7268,2.7248,2.7242,2.6788,2.6518,2.6358,2.6042,2.5757,2.5486,2.5461,2.5329,2.5097,2.4887,2.4754,2.4683,2.4213,2.375,2.3403,2.3318,2.3271,2.3271,2.3168,2.2982,2.2782,2.2769,2.2656,2.2422,2.182,2.1408,2.1219,2.1154,2.1081,2.084,2.083,2.079,2.0803,2.0815,2.0903,2.1169,2.1154,2.1242,2.1493,2.1807,2.1983,2.1983,2.2456,2.292,2.3276,2.3502,2.3879,2.4443,2.4757,2.4946,2.4971,2.5159,2.5498,2.6047,2.6147,2.6248,2.6449,2.6487,2.6487,2.6487,2.6487,2.6487,2.6487,2.6487,2.6487,2.6487,2.6487,2.6487,2.6487,2.6487,2.6487,2.6487,2.6487,2.6487,2.6487,2.6487,2.6487,2.6487,2.6487,2.6487,2.6487,2.6487,2.6336,2.621,2.6135,2.6059,2.5799,2.5498,2.5297,2.5272,2.4996,2.4687,2.4494,2.4456,2.4286,2.366,2.356,2.3306,3.1323,3.1061,3.0811,3.0302,2.9565,2.912,2.878,2.8482,2.847,2.8323,2.8027,2.7895,2.7704,2.748,2.7258,2.7214,2.7235,2.6998,2.6829,2.676,2.6671,2.6477,2.6209,2.6184,2.6047,2.5761,2.5614,2.5448,2.5281,2.4941,2.4474,2.4085,2.3815,2.3692,2.3666,2.3389,2.3228,2.3215,2.3228,2.3198,2.3085,2.2417,2.1927,2.1732,2.1719,2.1656,2.1493,2.1481,2.1481,2.1481,2.1481,2.1584,2.1694,2.1719,2.1782,2.1958,2.2309,2.2518,2.2548,2.302,2.3552,2.3954,2.4117,2.4424,2.4971,2.5385,2.5661,2.5858,2.5824,2.6059,2.6386,2.6487,2.6487,2.6487,2.6487,2.6487,2.6487,2.6487,2.6487,2.6487,2.6487,2.6487,2.6487,2.6487,2.6487,2.6487,2.6487,2.6487,2.6487,2.6487,2.6487,2.6487,2.6487,2.6487,2.6487,2.6487,2.6487,2.6487,2.6487,2.6487,2.6487,2.6487,2.6487,2.6147,2.595,2.5875,2.585,2.5511,2.5159,2.5059,2.4946,2.4757,2.4274,2.4243,2.4004,3.1656,3.1272,3.0874,3.0659,3.0608,3.0342,2.9971,2.9423,2.9423,2.914,2.8626,2.8174,2.7996,2.8045,2.7689,2.7416,2.7302,2.7235,2.7146,2.699,2.6956,2.6977,2.6952,2.6952,2.6913,2.6788,2.6398,2.5923,2.539,2.5313,2.5256,2.521,2.4697,2.4453,2.4372,2.3931,2.3595,2.3603,2.362,2.3522,2.3403,2.3327,2.2909,2.2363,2.2284,2.2058,2.1619,2.1506,2.1518,2.1506,2.1568,2.1769,2.2196,2.2284,2.2456,2.2907,2.3045,2.307,2.3133,2.3609,2.4004,2.4104,2.4531,2.4976,2.5498,2.5636,2.5862,2.6386,2.6386,2.6436,2.6474,2.6487,2.6487,2.6487,2.6487,2.6487,2.6487,2.6487,2.6487,2.6487,2.6487,2.6487,2.6487,2.6487,2.6487,2.6487,2.6487,2.6487,2.6487,2.6487,2.6487,2.6487,2.6487,2.6487,2.6487,2.6487,2.6487,2.6487,2.6487,2.6487,2.6487,2.6487,2.6487,2.6487,2.6373,2.6336,2.6411,2.6298,2.6021,2.5711,2.5285,2.4996,2.4833,2.4763,2.4568,3.184,3.1485,3.1211,3.1024,3.0874,3.0685,3.0405,3.0111,3.0061,2.9815,2.9424,2.9179,2.9015,2.8864,2.8312,2.7775,2.7328,2.718,2.7045,2.7024,2.7024,2.7045,2.718,2.7214,2.7248,2.7276,2.7128,2.6759,2.6252,2.6187,2.6005,2.5617,2.5335,2.52,2.513,2.4857,2.4525,2.4222,2.4197,2.3957,2.3603,2.3539,2.3378,2.3157,2.2896,2.2719,2.2531,2.2518,2.2518,2.2548,2.2518,2.2606,2.2782,2.2807,2.2882,2.3108,2.3446,2.369,2.374,2.4205,2.4669,2.4996,2.5184,2.5548,2.6059,2.6197,2.6273,2.6436,2.6487,2.6487,2.6487,2.6487,2.6487,2.6487,2.6487,2.6487,2.6487,2.6487,2.6487,2.6487,2.6487,2.6487,2.6487,2.6487,2.6487,2.6487,2.6487,2.6487,2.6487,2.6487,2.6487,2.6487,2.6487,2.6487,2.6487,2.6487,2.6487,2.6487,2.6487,2.6487,2.6487,2.6487,2.6487,2.6487,2.6487,2.6487,2.6461,2.6449,2.6285,2.6223,2.5762,2.5523,2.5385,2.5347,2.5159,3.2036,3.178,3.1508,3.1323,3.1174,3.1037,3.0924,3.0798,3.071,3.0527,3.0288,3.0006,2.9757,2.9497,2.8948,2.8477,2.8004,2.7441,2.718,2.7134,2.7146,2.7281,2.7436,2.7469,2.757,2.7669,2.7703,2.7479,2.7196,2.7143,2.6946,2.6572,2.628,2.613,2.6073,2.5777,2.5434,2.5122,2.5026,2.4783,2.4374,2.427,2.421,2.4136,2.3941,2.3568,2.3236,2.321,2.3138,2.3095,2.3095,2.3095,2.3108,2.3283,2.3384,2.3477,2.3954,2.4255,2.433,2.477,2.5222,2.5561,2.5787,2.6063,2.6449,2.6487,2.6487,2.6487,2.6487,2.6487,2.6487,2.6487,2.6487,2.6487,2.6487,2.6487,2.6487,2.6487,2.6487,2.6487,2.6487,2.6487,2.6487,2.6487,2.6487,2.6487,2.6487,2.6487,2.6487,2.6487,2.6487,2.6487,2.6487,2.6487,2.6487,2.6487,2.6487,2.6487,2.6487,2.6487,2.6487,2.6487,2.6487,2.6487,2.6487,2.6487,2.6487,2.6487,2.6487,2.6487,2.6348,2.6097,2.5996,2.5921,2.5699,3.2205,3.2132,3.178,3.1609,3.1596,3.1522,3.1572,3.1485,3.136,3.1196,3.1064,3.0472,3.0202,3.0032,2.9607,2.9403,2.9271,2.8279,2.7659,2.7594,2.7529,2.759,2.7789,2.7789,2.7868,2.8079,2.8079,2.8099,2.8032,2.7986,2.7959,2.7939,2.7413,2.7155,2.7192,2.6658,2.6326,2.6215,2.6078,2.5959,2.5803,2.5556,2.5405,2.5273,2.5198,2.4686,2.356,2.3492,2.3482,2.3281,2.3238,2.3133,2.3321,2.3684,2.4004,2.4079,2.4519,2.4763,2.485,2.5297,2.5624,2.5749,2.6172,2.6424,2.6461,2.6487,2.6487,2.6487,2.6487,2.6487,2.6499,2.6549,2.6537,2.6487,2.6487,2.6499,2.6549,2.6537,2.6524,2.6612,2.6688,2.6549,2.6537,2.6675,2.6738,2.6725,2.6637,2.66,2.66,2.6562,2.6487,2.6487,2.6487,2.6487,2.6487,2.6487,2.6487,2.6487,2.6487,2.6487,2.6487,2.6487,2.6487,2.6487,2.6487,2.6487,2.6487,2.6487,2.6487,2.6487,2.6474,2.6474,2.6361,2.6248,2.6311,3.2682,3.2503,3.2169,3.2,3.1963,3.1706,3.1609,3.1609,3.1522,3.1522,3.1445,3.1262,3.1146,3.1013,3.0523,3.0317,3.0272,2.952,2.8929,2.8544,2.8146,2.7961,2.8027,2.8,2.8099,2.8216,2.8235,2.8314,2.8425,2.8438,2.8438,2.8384,2.8126,2.7967,2.7927,2.7651,2.7346,2.6934,2.6862,2.6645,2.618,2.6122,2.606,2.5985,2.5892,2.5558,2.5091,2.4844,2.4688,2.4587,2.4532,2.4406,2.433,2.4437,2.4525,2.4619,2.5059,2.536,2.5423,2.585,2.6197,2.6248,2.6399,2.6474,2.6487,2.6487,2.6487,2.6487,2.6487,2.6487,2.6549,2.6864,2.6901,2.6549,2.6487,2.6713,2.704,2.7318,2.757,2.7582,2.7595,2.7595,2.7582,2.7557,2.7494,2.7469,2.7278,2.7065,2.7027,2.6763,2.6512,2.6487,2.6487,2.6499,2.6487,2.6487,2.6487,2.6487,2.6487,2.6487,2.6487,2.6487,2.6487,2.6487,2.6487,2.6487,2.6487,2.6487,2.6487,2.6487,2.6487,2.6487,2.6487,2.6487,2.6487,3.3108,3.2895,3.2624,3.2444,3.2372,3.2082,3.2009,3.1973,3.195,3.1913,3.1877,3.1803,3.1767,3.1686,3.1387,3.1263,3.1267,3.0764,3.0327,2.9855,2.8899,2.8545,2.859,2.8519,2.8522,2.8592,2.8605,2.867,2.8794,2.878,2.878,2.8748,2.867,2.8578,2.8592,2.8509,2.8241,2.7962,2.7818,2.7611,2.7297,2.7122,2.7041,2.701,2.6897,2.6757,2.6662,2.6452,2.6032,2.546,2.5211,2.5084,2.4949,2.5081,2.5187,2.5222,2.5586,2.5959,2.5984,2.6273,2.6487,2.6487,2.6487,2.6487,2.6487,2.6487,2.6487,2.6487,2.6688,2.6813,2.6889,2.7304,2.7381,2.7165,2.7153,2.7266,2.7582,2.7883,2.8059,2.8047,2.8059,2.8109,2.8109,2.8109,2.8109,2.8047,2.7821,2.7595,2.7482,2.7165,2.6939,2.6713,2.6587,2.6562,2.6499,2.6487,2.6487,2.6487,2.6487,2.6487,2.6487,2.6487,2.6487,2.6487,2.6487,2.6487,2.6487,2.6487,2.6487,2.6487,2.6487,2.6487,2.6487,2.6487,2.6487,3.3501,3.3312,3.3108,3.2917,3.2739,3.2668,3.2632,3.2632,3.2475,3.2381,3.2345,3.22,3.2128,3.2128,3.206,3.2141,3.2272,3.182,3.1625,3.1282,3.0324,2.9571,2.9413,2.9265,2.9191,2.9099,2.9131,2.9149,2.9226,2.9226,2.9131,2.9194,2.9162,2.9131,2.9131,2.9145,2.9053,2.8971,2.8844,2.8725,2.868,2.8419,2.8303,2.8244,2.8115,2.8017,2.7958,2.7866,2.7143,2.5736,2.557,2.5544,2.539,2.5681,2.5861,2.5774,2.6231,2.642,2.6496,2.6461,2.6487,2.6487,2.6487,2.6487,2.6487,2.6487,2.6537,2.6637,2.6989,2.7256,2.7429,2.7821,2.8109,2.821,2.8109,2.8109,2.8134,2.8222,2.8398,2.8348,2.8235,2.8235,2.8373,2.836,2.8348,2.8323,2.8273,2.816,2.8047,2.7745,2.7419,2.7193,2.7065,2.6889,2.6889,2.6801,2.6751,2.6487,2.6487,2.6487,2.6487,2.6487,2.6487,2.6487,2.6487,2.6487,2.6487,2.6487,2.6487,2.6487,2.6487,2.6487,2.6487,2.6487,2.6487,3.3868,3.3744,3.3536,3.3312,3.3122,3.2988,3.2846,3.2704,3.2654,3.2668,3.2618,3.2561,3.2561,3.2525,3.2561,3.2596,3.2577,3.2453,3.249,3.2569,3.1978,3.0845,3.0083,2.9942,2.983,2.9603,2.9641,2.9682,2.9834,2.9772,2.9803,2.9834,2.9651,2.9605,2.9605,2.9509,2.9477,2.9446,2.9261,2.917,2.9153,2.9022,2.8894,2.8862,2.872,2.861,2.8578,2.8365,2.788,2.7032,2.6815,2.6696,2.6478,2.6598,2.6628,2.6599,2.6612,2.6658,2.6624,2.6555,2.6521,2.6487,2.6521,2.6487,2.6487,2.6499,2.6688,2.6977,2.7266,2.7517,2.7883,2.8386,2.8825,2.9214,2.8976,2.8712,2.8775,2.9101,2.9352,2.9352,2.9302,2.9264,2.9239,2.9252,2.929,2.9189,2.9001,2.8749,2.8673,2.8333,2.8005,2.7932,2.7745,2.7457,2.7268,2.719,2.6977,2.6587,2.6487,2.6521,2.6487,2.6487,2.6487,2.6487,2.6487,2.6487,2.6487,2.6487,2.6487,2.6487,2.6487,2.6487,2.6487,2.6487,2.6487,3.4244,3.4088,3.3868,3.3709,3.3536,3.3437,3.3333,3.3227,3.3227,3.3213,3.3178,3.3192,3.3192,3.3213,3.3227,3.3213,3.3227,3.3213,3.3269,3.3311,3.3091,3.219,3.1176,3.096,3.0874,3.0612,3.0424,3.0418,3.0423,3.0254,3.0095,3.005,3.0005,2.9929,2.9929,2.9851,2.9803,2.9789,2.9682,2.9637,2.9637,2.9495,2.9401,2.9338,2.9153,2.898,2.8912,2.8675,2.8268,2.7842,2.7656,2.7516,2.7248,2.7214,2.7146,2.7011,2.6909,2.6829,2.6829,2.676,2.6739,2.6705,2.6705,2.6844,2.7031,2.7094,2.7322,2.7794,2.806,2.8377,2.8706,2.9213,2.9656,2.9923,2.9732,2.9467,2.9328,2.9566,2.9754,2.9779,2.9779,2.9792,2.9779,2.9869,2.9908,2.9858,2.972,2.958,2.9504,2.9023,2.8682,2.8633,2.8492,2.82,2.8022,2.7957,2.7642,2.7237,2.6784,2.6759,2.6631,2.6618,2.6533,2.6533,2.6521,2.6487,2.6521,2.6521,2.6487,2.6487,2.6487,2.6487,2.6521,2.6555,2.6555,3.4616,3.4448,3.4216,3.4074,3.3951,3.3917,3.3848,3.3896,3.3813,3.3848,3.3813,3.3882,3.3779,3.3896,3.3744,3.3848,3.3848,3.3779,3.3882,3.3917,3.3842,3.3298,3.2514,3.2125,3.1968,3.1786,3.1464,3.1355,3.1274,3.0781,3.0506,3.0699,3.0625,3.0405,3.051,3.0407,3.0274,3.0248,3.0172,3.0127,3.0066,2.9898,2.9761,2.973,2.9543,2.9355,2.9212,2.8976,2.872,2.8243,2.8177,2.7914,2.7603,2.757,2.7436,2.7214,2.7146,2.7066,2.7045,2.7011,2.7041,2.7105,2.7131,2.7344,2.7793,2.7911,2.8142,2.8656,2.9204,2.9346,2.9576,3.0086,3.0241,3.0317,3.033,3.0203,2.9972,2.9869,2.9856,2.9869,2.9856,2.9869,2.9895,2.9998,3.0152,3.0152,3.0063,3.005,2.9998,2.9706,2.9502,2.9501,2.9257,2.8922,2.882,2.8756,2.8411,2.7979,2.7407,2.7156,2.6967,2.6848,2.6665,2.6602,2.6671,2.6671,2.6636,2.6602,2.6589,2.6602,2.6705,2.6636,2.6602,2.6671,2.6692,3.4835,3.4787,3.465,3.4448,3.4293,3.4142,3.402,3.3931,3.3917,3.3965,3.3931,3.3931,3.3931,3.3917,3.3951,3.3896,3.3965,3.4,3.4034,3.4312,3.4462,3.448,3.4014,3.3386,3.2731,3.2432,3.2425,3.2419,3.2363,3.2265,3.2346,3.2257,3.2063,3.2097,3.1611,3.1508,3.135,3.0953,3.0656,3.0608,3.0561,3.0348,3.018,3.0135,3.0029,2.9879,2.9668,2.9512,2.9293,2.9008,2.8646,2.8383,2.8046,2.7967,2.7941,2.7848,2.7589,2.7429,2.7395,2.733,2.7263,2.773,2.7842,2.7943,2.8421,2.8582,2.8815,2.9215,2.9434,2.9815,3.0187,3.0304,3.047,3.052,3.0482,3.0444,3.0292,3.0267,3.0228,3.0216,3.0216,3.0267,3.0267,3.0254,3.033,3.033,3.0368,3.0406,3.0329,3.0277,3.0225,3.0197,3.0068,2.9794,2.965,2.9533,2.922,2.887,2.8317,2.792,2.7717,2.7297,2.7182,2.7033,2.6922,2.6888,2.6773,2.6841,2.6841,2.6875,2.6888,2.6841,2.6807,2.6841,2.6841,3.5034,3.5016,3.4883,3.4735,3.4635,3.4534,3.4448,3.438,3.438,3.438,3.438,3.4346,3.438,3.438,3.438,3.4395,3.438,3.438,3.4448,3.4635,3.475,3.4802,3.4839,3.4361,3.3773,3.3518,3.3369,3.3363,3.3353,3.3151,3.2886,3.2976,3.3005,3.2738,3.2533,3.2489,3.2296,3.209,3.1836,3.1729,3.1668,3.1545,3.1344,3.125,3.1233,3.1125,3.087,3.0807,3.0634,3.0399,3.0016,2.9318,2.8557,2.8387,2.8429,2.8538,2.8392,2.8416,2.8447,2.8497,2.8538,2.88,2.8839,2.9166,2.947,2.9653,2.9905,3.0322,3.0518,3.0636,3.091,3.0986,3.0949,3.0962,3.0949,3.0936,3.0911,3.0634,3.0406,3.0406,3.0368,3.0368,3.0406,3.052,3.0571,3.0584,3.0723,3.0748,3.0748,3.0683,3.0758,3.0756,3.0782,3.0677,3.0566,3.0341,3.0086,2.9767,2.9394,2.9118,2.8917,2.836,2.7767,2.7548,2.7237,2.699,2.6956,2.7024,2.7058,2.699,2.699,2.699,2.7024,2.7011,2.6977,3.5261,3.5213,3.5049,3.4935,3.4935,3.4887,3.4868,3.4868,3.4902,3.4835,3.4902,3.4902,3.4802,3.4868,3.4868,3.4902,3.4868,3.4868,3.4835,3.4902,3.4949,3.5001,3.4986,3.4927,3.485,3.4894,3.4422,3.4218,3.4041,3.3704,3.3739,3.3469,3.3439,3.3471,3.3306,3.3217,3.313,3.2952,3.2861,3.2845,3.2828,3.2812,3.2625,3.2453,3.2375,3.228,3.2043,3.1958,3.1947,3.1917,3.1707,3.0769,2.9744,2.9053,2.9067,2.9457,2.9383,2.9477,2.9711,2.9864,2.9862,3.0078,3.0084,3.0365,3.0708,3.0872,3.105,3.1279,3.1455,3.1418,3.1609,3.1485,3.1485,3.1535,3.1572,3.1609,3.1485,3.0986,3.0761,3.0672,3.0798,3.0836,3.0798,3.0874,3.0849,3.0862,3.0986,3.1099,3.1099,3.1099,3.1161,3.1211,3.1198,3.1198,3.1037,3.1019,3.0762,3.0569,3.0268,3.0126,2.9939,2.9334,2.8686,2.7848,2.7496,2.7385,2.7307,2.7382,2.7348,2.7159,2.7214,2.7416,2.7348,2.718,2.7214,3.5424,3.5424,3.5261,3.5148,3.5115,3.4968,3.4935,3.4902,3.4935,3.4902,3.4935,3.4902,3.4935,3.4935,3.4902,3.4902,3.4968,3.4968,3.5049,3.5115,3.5148,3.5213,3.5326,3.5311,3.5344,3.5344,3.5068,3.4928,3.4976,3.5043,3.4793,3.4989,3.4944,3.472,3.4317,3.4215,3.3974,3.3643,3.3522,3.3476,3.343,3.3306,3.3197,3.3118,3.3101,3.3025,3.2857,3.2608,3.2405,3.2341,3.2065,3.1771,3.1387,3.0856,3.0626,3.0547,3.0453,3.0494,3.0665,3.0507,3.0628,3.0913,3.1062,3.1297,3.1667,3.183,3.1847,3.1796,3.1743,3.1633,3.1609,3.1706,3.1633,3.1633,3.1669,3.1669,3.1633,3.1508,3.1397,3.1384,3.1397,3.1336,3.1299,3.1286,3.1323,3.136,3.1434,3.1458,3.1471,3.1471,3.1508,3.1508,3.1522,3.1522,3.1482,3.1516,3.1406,3.1319,3.1083,3.0922,3.0667,3.0229,2.9587,2.9063,2.8384,2.8053,2.7987,2.7914,2.7782,2.7703,2.7802,2.7881,2.7769,2.7669,2.7782,3.5489,3.5504,3.5407,3.5359,3.5311,3.5261,3.5213,3.5228,3.5213,3.5213,3.5213,3.5213,3.5228,3.5213,3.5213,3.5228,3.518,3.5213,3.5261,3.5374,3.5374,3.5407,3.5504,3.5489,3.5489,3.5457,3.5392,3.5344,3.5344,3.5409,3.5489,3.5474,3.5489,3.531,3.51,3.5011,3.4816,3.4485,3.4439,3.4375,3.4422,3.4297,3.4233,3.4137,3.4076,3.4088,3.3959,3.3862,3.3732,3.3696,3.3434,3.3273,3.3044,3.2715,3.2224,3.1768,3.1514,3.153,3.1681,3.1625,3.1768,3.1946,3.2036,3.2124,3.2321,3.239,3.2381,3.2322,3.2264,3.2191,3.2191,3.2155,3.2191,3.2191,3.2155,3.2155,3.2155,3.2155,3.2155,3.2082,3.1913,3.178,3.1743,3.173,3.1827,3.1863,3.1863,3.1863,3.1877,3.1863,3.1863,3.2009,3.2046,3.2082,3.2082,3.2082,3.2082,3.1988,3.1915,3.1729,3.1597,3.1272,3.1013,3.0623,2.993,2.9145,2.863,2.8578,2.8404,2.8243,2.8145,2.8112,2.8164,2.8216,2.8295,3.5489,3.5489,3.5489,3.5489,3.5489,3.5489,3.5489,3.5489,3.5489,3.5472,3.5489,3.5489,3.5472,3.5504,3.5472,3.5489,3.5489,3.5457,3.5472,3.5472,3.5472,3.5504,3.5504,3.5489,3.5489,3.5489,3.5457,3.5489,3.5457,3.5504,3.5504,3.5489,3.5489,3.5489,3.5444,3.5385,3.5489,3.5489,3.5489,3.5489,3.5489,3.5489,3.5424,3.5294,3.5261,3.5106,3.4919,3.4838,3.4806,3.4721,3.4566,3.4442,3.4433,3.4244,3.3708,3.2953,3.2601,3.266,3.2779,3.2883,3.2835,3.2925,3.2938,3.2952,3.2917,3.2966,3.2895,3.2881,3.281,3.2761,3.2775,3.281,3.281,3.281,3.281,3.281,3.2775,3.2775,3.2739,3.261,3.2386,3.2277,3.2241,3.2155,3.225,3.225,3.225,3.225,3.225,3.225,3.2273,3.2489,3.2596,3.2704,3.2739,3.2704,3.2704,3.2676,3.2648,3.2546,3.2519,3.2437,3.2215,3.1917,3.132,3.0541,2.9918,2.9257,2.9094,2.888,2.8527,2.8406,2.8554,2.8605,2.8605,3.5489,3.5489,3.5489,3.5489,3.5489,3.5489,3.5489,3.5489,3.5489,3.5489,3.5489,3.5489,3.5489,3.5489,3.5489,3.5489,3.5489,3.5489,3.5489,3.5489,3.5489,3.5489,3.5489,3.5489,3.5489,3.5489,3.5489,3.5489,3.5489,3.5489,3.5489,3.5489,3.5489,3.5489,3.5489,3.5489,3.5489,3.5489,3.5489,3.5489,3.5489,3.5489,3.5472,3.5457,3.5424,3.5424,3.5326,3.5261,3.5148,3.5148,3.4983,3.4835,3.482,3.4835,3.4587,3.4211,3.3905,3.3693,3.3695,3.364,3.3591,3.3591,3.366,3.373,3.3591,3.3486,3.3417,3.3486,3.3333,3.3234,3.3234,3.3248,3.3234,3.3234,3.3248,3.3234,3.3234,3.3213,3.3248,3.3248,3.303,3.2874,3.2753,3.2682,3.2632,3.2632,3.2632,3.2668,3.2668,3.2739,3.2789,3.3002,3.3108,3.3213,3.3213,3.3199,3.3234,3.3248,3.3234,3.3283,3.3199,3.3199,3.3394,3.3055,3.2455,3.1878,3.1241,3.0624,3.0028,2.9733,2.9585,2.9283,2.9017,2.9017,2.916,3.5489,3.5489,3.5489,3.5489,3.5489,3.5489,3.5489,3.5489,3.5489,3.5489,3.5489,3.5489,3.5489,3.5489,3.5489,3.5489,3.5489,3.5489,3.5489,3.5489,3.5489,3.5489,3.5489,3.5489,3.5489,3.5489,3.5489,3.5489,3.5489,3.5489,3.5489,3.5489,3.5489,3.5489,3.5489,3.5489,3.5489,3.5489,3.5489,3.5489,3.5489,3.5489,3.5489,3.5489,3.5489,3.5489,3.5472,3.5439,3.5359,3.5326,3.5195,3.5082,3.5034,3.4968,3.4802,3.4687,3.452,3.4264,3.3965,3.3931,3.3951,3.3931,3.3931,3.3848,3.3896,3.3848,3.3779,3.3744,3.3695,3.3646,3.3646,3.366,3.366,3.366,3.3681,3.3681,3.3681,3.3626,3.364,3.3675,3.3709,3.3542,3.3423,3.3388,3.3318,3.3262,3.3262,3.3297,3.3368,3.3452,3.3452,3.3521,3.3591,3.3626,3.3612,3.3612,3.366,3.366,3.3646,3.3695,3.3709,3.3779,3.3917,3.3917,3.3408,3.2897,3.2438,3.1794,3.1068,3.0853,3.0741,3.0387,3.0047,3.0055,3.0087,3.5489,3.5489,3.5489,3.5489,3.5489,3.5489,3.5489,3.5489,3.5489,3.5489,3.5489,3.5489,3.5489,3.5489,3.5489,3.5489,3.5489,3.5489,3.5489,3.5489,3.5489,3.5489,3.5489,3.5489,3.5489,3.5489,3.5489,3.5489,3.5489,3.5489,3.5489,3.5489,3.5489,3.5489,3.5489,3.5489,3.5489,3.5489,3.5489,3.5489,3.5489,3.5489,3.5489,3.5489,3.5489,3.5489,3.5489,3.5489,3.5504,3.5439,3.5374,3.5261,3.5246,3.5195,3.5049,3.4968,3.4902,3.4702,3.438,3.421,3.4157,3.4157,3.4157,3.4244,3.421,3.4142,3.4142,3.421,3.4176,3.4176,3.4142,3.4176,3.421,3.421,3.4176,3.4157,3.4157,3.4142,3.4176,3.4244,3.4264,3.4196,3.4128,3.4142,3.4074,3.3917,3.3896,3.3917,3.3917,3.3951,3.3902,3.3902,3.4054,3.4074,3.4108,3.4108,3.4088,3.4088,3.4088,3.4108,3.4191,3.4225,3.4327,3.4225,3.4088,3.3998,3.3624,3.282,3.2065,3.1853,3.1646,3.1409,3.1183,3.1166,3.1101,3.5489,3.5489,3.5489,3.5489,3.5489,3.5489,3.5489,3.5489,3.5489,3.5489,3.5489,3.5489,3.5489,3.5489,3.5489,3.5489,3.5489,3.5489,3.5489,3.5489,3.5489,3.5489,3.5489,3.5489,3.5489,3.5489,3.5489,3.5489,3.5489,3.5489,3.5489,3.5489,3.5489,3.5489,3.5489,3.5489,3.5489,3.5489,3.5489,3.5489,3.5489,3.5489,3.5489,3.5489,3.5489,3.5489,3.5489,3.5489,3.5489,3.5504,3.5472,3.5439,3.5392,3.5392,3.5294,3.5228,3.5195,3.5016,3.4817,3.4702,3.4769,3.4817,3.4783,3.4716,3.4668,3.4769,3.4802,3.4702,3.4635,3.4702,3.4735,3.4802,3.4668,3.465,3.4582,3.4582,3.4582,3.465,3.4702,3.4802,3.4735,3.4601,3.4601,3.4549,3.4448,3.4244,3.4176,3.421,3.4176,3.4176,3.4162,3.4196,3.4462,3.4563,3.4616,3.4582,3.4549,3.4549,3.4549,3.4635,3.4702,3.475,3.4616,3.465,3.4582,3.4702,3.4677,3.3775,3.3058,3.2777,3.2539,3.2489,3.2206,3.2008,3.2011,3.5489,3.5489,3.5489,3.5489,3.5489,3.5489,3.5489,3.5489,3.5489,3.5489,3.5489,3.5489,3.5489,3.5489,3.5489,3.5489,3.5489,3.5489,3.5489,3.5489,3.5489,3.5489,3.5489,3.5489,3.5489,3.5489,3.5489,3.5489,3.5489,3.5489,3.5489,3.5489,3.5489,3.5489,3.5489,3.5489,3.5489,3.5489,3.5489,3.5489,3.5489,3.5489,3.5489,3.5489,3.5489,3.5489,3.5489,3.5489,3.5489,3.5489,3.5489,3.5489,3.5489,3.5489,3.5457,3.5359,3.5359,3.5326,3.5195,3.5049,3.4902,3.4902,3.4902,3.4935,3.4968,3.4935,3.4902,3.4902,3.4935,3.4968,3.4887,3.4902,3.4868,3.4902,3.4935,3.4935,3.4968,3.5016,3.4968,3.4968,3.4935,3.4835,3.4835,3.4868,3.4735,3.4601,3.4534,3.4467,3.4433,3.4448,3.4433,3.4501,3.4716,3.4783,3.485,3.4883,3.4935,3.4935,3.4968,3.4968,3.5016,3.4902,3.4802,3.4902,3.4935,3.4935,3.4762,3.4449,3.4078,3.379,3.3736,3.378,3.3401,3.2928,3.287,3.5489,3.5489,3.5489,3.5489,3.5489,3.5489,3.5489,3.5489,3.5489,3.5489,3.5489,3.5489,3.5489,3.5489,3.5489,3.5489,3.5489,3.5489,3.5489,3.5489,3.5489,3.5489,3.5489,3.5489,3.5489,3.5489,3.5489,3.5489,3.5489,3.5489,3.5489,3.5489,3.5489,3.5489,3.5489,3.5489,3.5489,3.5489,3.5489,3.5489,3.5489,3.5489,3.5489,3.5489,3.5489,3.5489,3.5489,3.5489,3.5489,3.5489,3.5489,3.5489,3.5489,3.5489,3.5489,3.5489,3.5489,3.5489,3.5392,3.5294,3.5082,3.5148,3.5115,3.5115,3.5082,3.5082,3.5148,3.5115,3.5115,3.5067,3.5067,3.5148,3.5148,3.5195,3.5195,3.5195,3.5195,3.5195,3.518,3.5133,3.5115,3.5115,3.5148,3.5148,3.4968,3.4835,3.4735,3.4702,3.4735,3.4735,3.4769,3.4802,3.4916,3.4983,3.5016,3.5082,3.5195,3.5228,3.5228,3.5148,3.5148,3.5049,3.5082,3.518,3.5195,3.5115,3.499,3.4868,3.4832,3.4795,3.4648,3.4438,3.4332,3.387,3.3774,3.5489,3.5489,3.5489,3.5489,3.5489,3.5489,3.5489,3.5489,3.5489,3.5489,3.5489,3.5489,3.5489,3.5489,3.5489,3.5489,3.5489,3.5489,3.5489,3.5489,3.5489,3.5489,3.5489,3.5489,3.5489,3.5489,3.5489,3.5489,3.5489,3.5489,3.5489,3.5489,3.5489,3.5489,3.5489,3.5489,3.5489,3.5489,3.5489,3.5489,3.5489,3.5489,3.5489,3.5489,3.5489,3.5489,3.5489,3.5489,3.5489,3.5489,3.5489,3.5489,3.5489,3.5489,3.5489,3.5489,3.5489,3.5489,3.5489,3.5472,3.5424,3.5392,3.5359,3.5359,3.5424,3.5457,3.5392,3.5326,3.5392,3.5424,3.5472,3.5472,3.5439,3.5407,3.5359,3.5359,3.5359,3.5359,3.5326,3.5279,3.5392,3.5457,3.5457,3.5424,3.5213,3.5067,3.4935,3.4935,3.4968,3.5001,3.5082,3.5082,3.5148,3.518,3.5228,3.5374,3.5439,3.5472,3.5439,3.5359,3.5359,3.5326,3.5359,3.5439,3.5407,3.5294,3.5359,3.5442,3.5279,3.5115,3.5001,3.4865,3.4846,3.4791,3.459,3.5489,3.5489,3.5489,3.5489,3.5489,3.5489,3.5489,3.5489,3.5489,3.5489,3.5489,3.5489,3.5489,3.5489,3.5489,3.5489,3.5489,3.5489,3.5489,3.5489,3.5489,3.5489,3.5489,3.5489,3.5489,3.5489,3.5489,3.5489,3.5489,3.5489,3.5489,3.5489,3.5489,3.5489,3.5489,3.5489,3.5489,3.5489,3.5489,3.5489,3.5489,3.5489,3.5489,3.5489,3.5489,3.5489,3.5489,3.5489,3.5489,3.5489,3.5489,3.5489,3.5489,3.5489,3.5489,3.5489,3.5489,3.5489,3.5489,3.5504,3.5489,3.5489,3.5489,3.5489,3.5489,3.5489,3.5489,3.5489,3.5489,3.5489,3.5504,3.5504,3.5457,3.5472,3.5457,3.5457,3.5457,3.5457,3.5457,3.5424,3.5489,3.5489,3.5489,3.5489,3.5359,3.5311,3.5213,3.5213,3.5279,3.5326,3.5359,3.5359,3.5407,3.5407,3.5439,3.5472,3.5504,3.5472,3.5472,3.5457,3.5457,3.5489,3.5489,3.5472,3.5472,3.5489,3.5489,3.5489,3.5472,3.5326,3.5228,3.5213,3.5184,3.5234,3.5207,3.5489,3.5489,3.5489,3.5489,3.5489,3.5489,3.5489,3.5489,3.5489,3.5489,3.5489,3.5489,3.5489,3.5489,3.5489,3.5489,3.5489,3.5489,3.5489,3.5489,3.5489,3.5489,3.5489,3.5489,3.5489,3.5489,3.5489,3.5489,3.5489,3.5489,3.5489,3.5489,3.5489,3.5489,3.5489,3.5489,3.5489,3.5489,3.5489,3.5489,3.5489,3.5489,3.5489,3.5489,3.5489,3.5489,3.5489,3.5489,3.5489,3.5489,3.5489,3.5489,3.5489,3.5489,3.5489,3.5489,3.5489,3.5489,3.5489,3.5489,3.5489,3.5489,3.5489,3.5489,3.5489,3.5489,3.5489,3.5489,3.5489,3.5489,3.5489,3.5489,3.5489,3.5489,3.5489,3.5489,3.5489,3.5489,3.5489,3.5489,3.5489,3.5489,3.5489,3.5489,3.5457,3.5457,3.5457,3.5489,3.5489,3.5489,3.5489,3.5504,3.5504,3.5472,3.5472,3.5472,3.5489,3.5489,3.5489,3.5489,3.5489,3.5489,3.5489,3.5489,3.5489,3.5489,3.5489,3.5504,3.5472,3.5472,3.5424,3.5424,3.5489,3.5489,3.5489,3.5489,3.5489,3.5489,3.5489,3.5489,3.5489,3.5489,3.5489,3.5489,3.5489,3.5489,3.5489,3.5489,3.5489,3.5489,3.5489,3.5489,3.5489,3.5489,3.5489,3.5489,3.5489,3.5489,3.5489,3.5489,3.5489,3.5489,3.5489,3.5489,3.5489,3.5489,3.5489,3.5489,3.5489,3.5489,3.5489,3.5489,3.5489,3.5489,3.5489,3.5489,3.5489,3.5489,3.5489,3.5489,3.5489,3.5489,3.5489,3.5489,3.5489,3.5489,3.5489,3.5489,3.5489,3.5489,3.5489,3.5489,3.5489,3.5489,3.5489,3.5489,3.5489,3.5489,3.5489,3.5489,3.5489,3.5489,3.5489,3.5489,3.5489,3.5489,3.5489,3.5489,3.5489,3.5489,3.5489,3.5489,3.5489,3.5489,3.5489,3.5489,3.5489,3.5489,3.5489,3.5489,3.5489,3.5489,3.5489,3.5489,3.5489,3.5489,3.5489,3.5504,3.5489,3.5489,3.5489,3.5489,3.5489,3.5489,3.5489,3.5489,3.5489,3.5489,3.5489,3.5489,3.5489,3.5489,3.5489,3.5489,3.5489,3.5489,3.5489,3.5489,3.5489,3.5489,3.5489,3.5489,3.5489,3.5489,3.5489,3.5489,3.5489,3.5489,3.5489,3.5489,3.5489,3.5489,3.5489,3.5489,3.5489,3.5489,3.5489,3.5489,3.5489,3.5489,3.5489,3.5489,3.5489,3.5489,3.5489,3.5489,3.5489,3.5489,3.5489,3.5489,3.5489,3.5489,3.5489,3.5489,3.5489,3.5489,3.5489,3.5489,3.5489,3.5489,3.5489,3.5489,3.5489,3.5489,3.5489,3.5489,3.5489,3.5489,3.5489,3.5489,3.5489,3.5489,3.5489,3.5489,3.5489,3.5489,3.5489,3.5489,3.5489,3.5489,3.5489,3.5489,3.5489,3.5489,3.5489,3.5489,3.5489,3.5489,3.5489,3.5489,3.5489,3.5489,3.5489,3.5489,3.5489,3.5489,3.5489,3.5489,3.5489,3.5489,3.5489,3.5489,3.5489,3.5489,3.5489,3.5489,3.5489,3.5489,3.5489,3.5489,3.5489,3.5489,3.5489,3.5489,3.5489,3.5489,3.5489,3.5489,3.5489,3.5489,3.5489,3.5489,3.5489,3.5489,3.5489,3.5489,3.5489,3.5489,3.5489,3.5489,3.5489,3.5489,3.5489,3.5489,3.5489,3.5489,3.5489,3.5489,3.5489,3.5489,3.5489,3.5489,3.5489,3.5489,3.5489,3.5489,3.5489,3.5489,3.5489,3.5489,3.5489,3.5489,3.5489,3.5489,3.5489,3.5489,3.5489,3.5489,3.5489,3.5489,3.5489,3.5489,3.5489,3.5489,3.5489,3.5489,3.5489,3.5489,3.5489,3.5489,3.5489,3.5489,3.5489,3.5489,3.5489,3.5489,3.5489,3.5489,3.5489,3.5489,3.5489,3.5489,3.5489,3.5489,3.5489,3.5489,3.5489,3.5489,3.5489,3.5489,3.5489,3.5489,3.5489,3.5489,3.5489,3.5489,3.5489,3.5489,3.5489,3.5489,3.5489,3.5489,3.5489,3.5489,3.5489,3.5489,3.5489,3.5489,3.5489,3.5489,3.5489,3.5489,3.5489,3.5489,3.5489,3.5489,3.5489,3.5489,3.5489,3.5489,3.5489,3.5489,3.5489,3.5489,3.5489,3.5489,3.5489,3.5489,3.5489,3.5489,3.5489,3.5489,3.5489,3.5489,3.5489,3.5489,3.5489,3.5489,3.5489,3.5489,3.5489,3.5489,3.5489,3.5489,3.5489,3.5489,3.5489,3.5489,3.5489,3.5489,3.5489,3.5489,3.5489,3.5489,3.5489,3.5489,3.5489,3.5489,3.5489,3.5489,3.5489,3.5489,3.5489,3.5489,3.5489,3.5489,3.5489,3.5489,3.5489,3.5489,3.5489,3.5489,3.5489,3.5489,3.5489,3.5489,3.5489,3.5489,3.5489,3.5489,3.5489,3.5489,3.5489,3.5489,3.5489,3.5489,3.5489,3.5489,3.5489,3.5489,3.5489,3.5489,3.5489,3.5489,3.5489,3.5489,3.5489,3.5489,3.5489,3.5489,3.5489,3.5489,3.5489,3.5489,3.5489,3.5489,3.5489,3.5489,3.5489,3.5489,3.5489,3.5489,3.5489,3.5489,3.5489,3.5489,3.5489,3.5489,3.5489,3.5489,3.5489,3.5489,3.5489,3.5489,3.5489,3.5489,3.5489,3.5489,3.5489,3.5489,3.5489,3.5489,3.5489,3.5489,3.5489,3.5489,3.5489,3.5489,3.5489,3.5489,3.5489,3.5489,3.5489,3.5489,3.5489,3.5489,3.5489,3.5489,3.5489,3.5489,3.5489,3.5489,3.5489,3.5489,3.5489,3.5489,3.5489,3.5489,3.5489,3.5489,3.5489,3.5489,3.5489,3.5489,3.5489,3.5489,3.5489,3.5489,3.5489,3.5489,3.5489,3.5489,3.5489,3.5489,3.5489,3.5489,3.5489,3.5489,3.5489,3.5489,3.5489,3.5489,3.5489,3.5489,3.5489,3.5489,3.5489,3.5489,3.5489,3.5489,3.5489,3.5489,3.5489,3.5489,3.5489,3.5489,3.5489,3.5489,3.5489,3.5489,3.5489,3.5489,3.5489,3.5489,3.5489,3.5489,3.5489,3.5489,3.5489,3.5489,3.5489,3.5489,3.5489,3.5489,3.5489,3.5489,3.5489,3.5489,3.5489,3.5489,3.5489,3.5489,3.5489,3.5489,3.5489,3.5489,3.5489,3.5489,3.5489,3.5489,3.5489,3.5489,3.5489,3.5489,3.5489,3.5489,3.5489,3.5489,3.5489,3.5489,3.5489,3.5489,3.5489,3.5489,3.5489,3.5489,3.5489,3.5489,3.5489,3.5489,3.5489,3.5489,3.5489,3.5489,3.5489,3.5489,3.5489,3.5489,3.5489,3.5489,3.5489,3.5489,3.5489,3.5489,3.5489,3.5489,3.5489,3.5489,3.5489,3.5489,3.5489,3.5489,3.5489,3.5489,3.5489,3.5489,3.5489,3.5522,3.5522,3.5522,3.5489,3.5489,3.5489,3.5489,3.5489,3.5489,3.5489,3.5489,3.5489,3.5489,3.5489,3.5489,3.5504,3.5504,3.5489,3.5489,3.5489,3.5489,3.5489,3.5489,3.5489,3.5489,3.5489,3.5489,3.5489,3.5489,3.5489,3.5489,3.5489,3.5489,3.5489,3.5489,3.5489,3.5489,3.5489,3.5489,3.5489,3.5489,3.5489,3.5489,3.5489,3.5489,3.5489,3.5489,3.5489,3.5489,3.5489,3.5489,3.5489,3.5489,3.5489,3.5489,3.5489,3.5489,3.5489,3.5489,3.5489,3.5489,3.5489,3.5489,3.5489,3.5489,3.5489,3.5489,3.5489,3.5489,3.5489,3.5489,3.5489,3.5489,3.5489,3.5489,3.5489,3.5489,3.5489,3.5489,3.5489,3.5489,3.5489,3.5489,3.5489,3.5489,3.5489,3.5489,3.5489,3.5489,3.5489,3.5489,3.5489,3.5489,3.5489,3.5489,3.5489,3.5489,3.5489,3.5489,3.5489,3.5489,3.5489,3.5489,3.5489,3.5489,3.5489,3.5489,3.5489,3.5489,3.5489,3.5489,3.5489,3.5489,3.5489,3.5537,3.5554,3.5604,3.5636,3.5489,3.5489,3.5489,3.5489,3.5489,3.5489,3.5489,3.5489,3.5489,3.5489,3.5549,3.5639,3.5609,3.5519,3.5489,3.5489,3.5489,3.5489,3.5489,3.5489,3.5489,3.5489,3.5489,3.5489,3.5489,3.5489,3.5489,3.5489,3.5489,3.5489,3.5489,3.5489,3.5489,3.5489,3.5504,3.5489,3.5489,3.5489,3.5489,3.5489,3.5489,3.5489,3.5489,3.5489,3.5489,3.5489,3.5489,3.5489,3.5489,3.5489,3.5489,3.5489,3.5489,3.5489,3.5489,3.5489,3.5489,3.5489,3.5489,3.5489,3.5489,3.5489,3.5489,3.5489,3.5489,3.5489,3.5489,3.5489,3.5489,3.5489,3.5489,3.5489,3.5489,3.5489,3.5489,3.5489,3.5489,3.5489,3.5489,3.5489,3.5489,3.5489,3.5489,3.5489,3.5489,3.5489,3.5489,3.5489,3.5489,3.5489,3.5489,3.5489,3.5489,3.5489,3.5489,3.5489,3.5489,3.5489,3.5489,3.5489,3.5489,3.5489,3.5489,3.5489,3.5489,3.5489,3.5489,3.5489,3.5489,3.5522,3.5572,3.5604,3.5733,3.5782,3.5814,3.5489,3.5489,3.5489,3.5489,3.5489,3.5489,3.5489,3.5489,3.5504,3.5489,3.5684,3.6043,3.6058,3.5519,3.5489,3.5579,3.5804,3.5714,3.5549,3.5489,3.5624,3.5564,3.5489,3.5489,3.5489,3.5489,3.5489,3.5489,3.5489,3.5489,3.5489,3.5489,3.5489,3.5504,3.5549,3.5564,3.5639,3.5699,3.5729,3.5744,3.5639,3.5609,3.5504,3.5489,3.5489,3.5489,3.5489,3.5489,3.5489,3.5489,3.5489,3.5489,3.5489,3.5489,3.5489,3.5489,3.5489,3.5489,3.5489,3.5489,3.5489,3.5489,3.5489,3.5489,3.5489,3.5489,3.5489,3.5489,3.5489,3.5489,3.5489,3.5489,3.5489,3.5489,3.5489,3.5489,3.5489,3.5489,3.5489,3.5489,3.5489,3.5489,3.5489,3.5489,3.5489,3.5489,3.5489,3.5489,3.5489,3.5489,3.5489,3.5489,3.5489,3.5489,3.5489,3.5489,3.5489,3.5489,3.5489,3.5489,3.5489,3.5489,3.5489,3.5489,3.5489,3.5489,3.5489,3.5539,3.5604,3.5668,3.5671,3.572,3.5863,3.5958,3.6053]}]]